[[{"header":{"parameterUnit":"m.s-1","parameterCategory":1,"la1":30.6,"la2":29.2853,"lo1":-89.7004,"lo2":-87.6739,"dy":0.0162,"dx":0.0183,"nx":112,"ny":82,"refTime":"2024-04-18T12:00:00:Z","depth":0,"parameterNumber":2,"parameterNumberName":"U-component_of_WINDS"},"data":[0.0,0.0,0.0,0.0,0.0,0.0,0.0,0.0,0.0,0.0,0.0,0.0,0.0,0.0,0.0,0.0,0.0,0.0,0.0,0.0,0.0,0.0,0.0,0.0,0.0,0.0,0.0,0.0,0.0,0.0,0.0,0.0,0.0,0.0,0.0,0.0,0.0,0.0,0.0,0.0,0.0,0.0,0.0,0.0,0.0,0.0,0.0,0.0,0.0,0.0,0.0,0.0,0.0,0.0,0.0,0.0,0.0,0.0,0.0,0.0,0.0,0.0,0.0,0.0,0.0,0.0,0.0,0.0,0.0,0.0,0.0,0.0,0.0,0.0,0.0,0.0,0.0,0.0,0.0,0.0,0.0,0.0,0.0,0.0,0.0,0.0,0.0,0.0,0.0,0.0,-3.5174,-4.2746,-4.7587,-5.0274,-5.0274,-5.0159,-4.677,-3.901,0.0,0.0,0.0,0.0,0.0,0.0,0.0,0.0,0.0,0.0,0.0,0.0,0.0,0.0,0.0,0.0,0.0,0.0,0.0,0.0,0.0,0.0,0.0,0.0,0.0,0.0,0.0,0.0,0.0,0.0,0.0,0.0,0.0,0.0,0.0,0.0,0.0,0.0,0.0,0.0,0.0,0.0,0.0,0.0,0.0,0.0,0.0,0.0,0.0,0.0,0.0,0.0,0.0,0.0,0.0,0.0,0.0,0.0,0.0,0.0,0.0,0.0,0.0,0.0,0.0,0.0,0.0,0.0,0.0,0.0,0.0,0.0,0.0,0.0,0.0,0.0,0.0,0.0,0.0,0.0,0.0,0.0,0.0,0.0,0.0,0.0,0.0,0.0,0.0,0.0,0.0,0.0,0.0,0.0,0.0,0.0,0.0,0.0,0.0,0.0,0.0,0.0,0.0,0.0,-3.8053,-4.6471,-4.9268,-5.0602,-5.0703,-4.9421,-4.6011,-3.9871,0.0,0.0,0.0,0.0,0.0,0.0,0.0,0.0,0.0,0.0,0.0,0.0,0.0,0.0,0.0,0.0,0.0,0.0,0.0,0.0,0.0,0.0,0.0,0.0,0.0,0.0,0.0,0.0,0.0,0.0,0.0,0.0,0.0,0.0,0.0,0.0,0.0,0.0,0.0,0.0,0.0,0.0,0.0,0.0,0.0,0.0,0.0,0.0,0.0,0.0,0.0,0.0,0.0,0.0,0.0,0.0,0.0,0.0,0.0,0.0,0.0,0.0,0.0,0.0,0.0,0.0,0.0,0.0,0.0,0.0,0.0,0.0,0.0,0.0,0.0,0.0,0.0,0.0,0.0,0.0,0.0,0.0,0.0,0.0,0.0,0.0,0.0,0.0,0.0,0.0,0.0,0.0,0.0,0.0,0.0,0.0,0.0,0.0,0.0,0.0,0.0,0.0,0.0,-3.6196,-4.0809,-4.6754,-4.853,-4.9305,-4.9402,-4.8323,-4.5205,-3.9412,-3.818,0.0,0.0,0.0,0.0,0.0,0.0,0.0,0.0,0.0,0.0,0.0,0.0,0.0,0.0,0.0,0.0,0.0,0.0,0.0,0.0,0.0,0.0,0.0,0.0,0.0,0.0,0.0,0.0,0.0,0.0,0.0,0.0,0.0,0.0,0.0,0.0,0.0,0.0,0.0,0.0,0.0,0.0,0.0,0.0,0.0,0.0,0.0,0.0,0.0,0.0,0.0,0.0,0.0,0.0,0.0,0.0,0.0,0.0,0.0,0.0,0.0,0.0,0.0,0.0,0.0,0.0,0.0,0.0,0.0,0.0,0.0,0.0,0.0,0.0,0.0,0.0,0.0,0.0,0.0,0.0,0.0,0.0,0.0,0.0,0.0,0.0,0.0,0.0,0.0,0.0,0.0,0.0,0.0,0.0,0.0,0.0,0.0,0.0,0.0,0.0,0.0,0.0,-3.997,-4.3221,-4.64,-4.7633,-4.8226,-4.8207,-4.7349,-4.4436,-3.8848,-3.6638,0.0,0.0,0.0,0.0,0.0,0.0,0.0,0.0,0.0,0.0,0.0,0.0,0.0,0.0,0.0,0.0,0.0,0.0,0.0,0.0,0.0,0.0,0.0,0.0,0.0,0.0,0.0,0.0,0.0,0.0,0.0,0.0,0.0,0.0,0.0,0.0,0.0,0.0,0.0,0.0,0.0,0.0,0.0,0.0,0.0,0.0,0.0,0.0,0.0,0.0,0.0,0.0,0.0,0.0,0.0,0.0,0.0,0.0,0.0,0.0,0.0,0.0,0.0,0.0,0.0,0.0,0.0,0.0,0.0,0.0,0.0,0.0,0.0,0.0,0.0,0.0,0.0,0.0,0.0,0.0,0.0,0.0,0.0,0.0,0.0,0.0,0.0,0.0,0.0,0.0,0.0,0.0,0.0,0.0,0.0,0.0,0.0,0.0,0.0,0.0,0.0,0.0,-4.0725,-4.4986,-4.6624,-4.7694,-4.8267,-4.8207,-4.6837,-4.3849,-3.8812,-3.5594,0.0,0.0,0.0,0.0,0.0,0.0,0.0,0.0,0.0,0.0,0.0,0.0,0.0,0.0,0.0,0.0,0.0,0.0,0.0,0.0,0.0,0.0,0.0,0.0,0.0,0.0,0.0,0.0,0.0,0.0,0.0,0.0,0.0,0.0,0.0,0.0,0.0,0.0,0.0,0.0,0.0,0.0,0.0,0.0,0.0,0.0,0.0,0.0,0.0,0.0,0.0,0.0,0.0,0.0,0.0,0.0,0.0,0.0,0.0,0.0,0.0,0.0,0.0,0.0,0.0,0.0,0.0,0.0,0.0,0.0,0.0,0.0,0.0,0.0,0.0,0.0,0.0,0.0,0.0,0.0,0.0,0.0,0.0,0.0,0.0,0.0,0.0,0.0,0.0,0.0,0.0,0.0,0.0,0.0,0.0,0.0,0.0,0.0,0.0,0.0,0.0,0.0,-3.9241,-4.3342,0.0,-4.7653,-4.8007,-4.7492,-4.6507,-4.3574,-3.8097,0.0,0.0,0.0,0.0,0.0,0.0,0.0,0.0,0.0,0.0,0.0,0.0,0.0,0.0,0.0,0.0,0.0,0.0,0.0,0.0,0.0,0.0,0.0,0.0,0.0,0.0,0.0,0.0,0.0,0.0,0.0,0.0,0.0,0.0,0.0,0.0,0.0,0.0,0.0,0.0,0.0,0.0,0.0,0.0,0.0,0.0,0.0,0.0,0.0,0.0,0.0,0.0,0.0,0.0,0.0,0.0,0.0,0.0,0.0,0.0,0.0,0.0,0.0,0.0,0.0,0.0,0.0,0.0,0.0,0.0,0.0,0.0,0.0,0.0,0.0,0.0,0.0,0.0,0.0,0.0,0.0,0.0,0.0,0.0,0.0,0.0,0.0,0.0,0.0,0.0,0.0,0.0,0.0,0.0,0.0,0.0,0.0,0.0,0.0,0.0,0.0,0.0,-3.411,-3.8585,-4.2614,0.0,-4.6846,-4.7218,-4.6669,-4.548,-4.251,-3.7256,0.0,0.0,0.0,0.0,0.0,0.0,0.0,0.0,0.0,0.0,0.0,0.0,0.0,0.0,0.0,0.0,0.0,0.0,0.0,0.0,0.0,0.0,0.0,0.0,0.0,0.0,0.0,0.0,0.0,0.0,0.0,0.0,0.0,0.0,0.0,0.0,0.0,0.0,0.0,0.0,0.0,0.0,0.0,0.0,0.0,0.0,0.0,0.0,0.0,0.0,0.0,0.0,0.0,0.0,0.0,0.0,0.0,0.0,0.0,0.0,0.0,0.0,0.0,0.0,0.0,0.0,0.0,0.0,0.0,0.0,0.0,0.0,0.0,0.0,0.0,0.0,0.0,0.0,0.0,0.0,0.0,0.0,0.0,0.0,0.0,0.0,0.0,0.0,0.0,0.0,0.0,0.0,0.0,0.0,0.0,0.0,0.0,0.0,0.0,0.0,0.0,0.0,-3.3478,-3.9185,-4.3377,-4.4214,-4.5185,-4.5791,-4.5791,-4.3647,-4.0531,0.0,0.0,0.0,0.0,0.0,0.0,0.0,0.0,0.0,0.0,0.0,0.0,0.0,0.0,0.0,0.0,0.0,0.0,0.0,0.0,0.0,0.0,0.0,0.0,0.0,0.0,0.0,0.0,0.0,0.0,0.0,0.0,0.0,0.0,0.0,0.0,0.0,0.0,0.0,0.0,0.0,0.0,0.0,0.0,0.0,0.0,0.0,0.0,0.0,0.0,0.0,0.0,0.0,0.0,0.0,0.0,0.0,0.0,0.0,0.0,0.0,0.0,0.0,0.0,0.0,0.0,0.0,0.0,0.0,0.0,0.0,0.0,0.0,0.0,0.0,0.0,0.0,0.0,0.0,0.0,0.0,0.0,0.0,0.0,0.0,0.0,0.0,0.0,0.0,0.0,0.0,0.0,0.0,0.0,0.0,0.0,0.0,0.0,0.0,0.0,0.0,0.0,0.0,-3.3156,-3.804,-4.205,-4.4068,-4.5128,-4.5478,-4.4986,-4.3335,-4.0531,-3.6364,0.0,0.0,0.0,0.0,0.0,0.0,0.0,0.0,0.0,0.0,0.0,0.0,0.0,0.0,0.0,0.0,0.0,0.0,0.0,0.0,0.0,0.0,0.0,0.0,0.0,0.0,0.0,0.0,0.0,0.0,0.0,0.0,0.0,0.0,0.0,0.0,0.0,0.0,0.0,0.0,0.0,0.0,0.0,0.0,0.0,0.0,0.0,0.0,0.0,0.0,0.0,0.0,0.0,0.0,0.0,0.0,0.0,0.0,0.0,0.0,0.0,0.0,0.0,0.0,0.0,0.0,0.0,0.0,0.0,0.0,0.0,0.0,0.0,0.0,0.0,0.0,0.0,0.0,0.0,0.0,0.0,0.0,0.0,0.0,0.0,0.0,0.0,0.0,0.0,0.0,0.0,0.0,0.0,0.0,0.0,0.0,0.0,0.0,0.0,0.0,0.0,0.0,-3.2534,-3.6816,-4.0563,-4.3105,-4.4144,-4.451,-4.418,-4.2729,-4.0166,-3.6264,0.0,0.0,0.0,0.0,0.0,0.0,0.0,0.0,0.0,0.0,0.0,0.0,0.0,0.0,0.0,0.0,0.0,0.0,0.0,0.0,0.0,0.0,0.0,0.0,0.0,0.0,0.0,0.0,0.0,0.0,0.0,0.0,0.0,0.0,0.0,0.0,0.0,0.0,0.0,0.0,0.0,0.0,0.0,0.0,0.0,0.0,0.0,0.0,0.0,0.0,0.0,0.0,0.0,0.0,0.0,0.0,0.0,0.0,0.0,0.0,0.0,0.0,0.0,0.0,0.0,0.0,0.0,0.0,0.0,0.0,0.0,0.0,0.0,0.0,0.0,0.0,0.0,0.0,0.0,0.0,0.0,0.0,0.0,0.0,0.0,0.0,0.0,0.0,0.0,0.0,0.0,0.0,0.0,0.0,0.0,0.0,0.0,0.0,0.0,0.0,0.0,0.0,-3.1781,-3.5709,-3.9183,-4.172,-4.2722,-4.3268,-4.3463,-4.2069,-3.9717,-3.6303,0.0,0.0,0.0,0.0,0.0,0.0,0.0,0.0,0.0,0.0,0.0,0.0,0.0,0.0,0.0,0.0,0.0,0.0,0.0,0.0,0.0,0.0,0.0,0.0,0.0,0.0,0.0,0.0,0.0,0.0,0.0,0.0,0.0,0.0,0.0,0.0,0.0,0.0,0.0,0.0,0.0,0.0,0.0,0.0,0.0,0.0,0.0,0.0,0.0,0.0,0.0,0.0,0.0,0.0,0.0,0.0,0.0,0.0,0.0,0.0,-3.6171,0.0,0.0,0.0,0.0,0.0,0.0,0.0,0.0,0.0,0.0,0.0,0.0,0.0,0.0,0.0,0.0,0.0,0.0,0.0,0.0,0.0,0.0,0.0,0.0,0.0,0.0,0.0,0.0,0.0,0.0,0.0,0.0,0.0,0.0,0.0,0.0,0.0,0.0,0.0,0.0,0.0,-3.1795,-3.5709,-3.9183,-4.172,-4.2722,-4.3233,-4.325,-4.2356,-4.0574,-3.7742,-3.5564,0.0,0.0,0.0,0.0,0.0,0.0,0.0,0.0,0.0,0.0,0.0,0.0,0.0,0.0,0.0,0.0,0.0,0.0,0.0,0.0,0.0,0.0,0.0,0.0,0.0,0.0,0.0,0.0,0.0,0.0,0.0,0.0,0.0,0.0,0.0,0.0,0.0,0.0,0.0,0.0,0.0,0.0,0.0,0.0,0.0,0.0,0.0,0.0,0.0,0.0,0.0,0.0,0.0,0.0,0.0,0.0,0.0,0.0,0.0,0.0,-3.7341,0.0,0.0,0.0,0.0,0.0,0.0,0.0,0.0,0.0,0.0,0.0,0.0,0.0,0.0,0.0,0.0,0.0,0.0,0.0,0.0,0.0,0.0,0.0,0.0,0.0,0.0,0.0,0.0,0.0,0.0,0.0,0.0,0.0,0.0,0.0,0.0,0.0,0.0,0.0,0.0,-3.1148,-3.4833,-3.8071,-4.0589,-4.159,-4.2082,-4.2065,-4.1698,-4.0483,-3.8144,-3.6616,0.0,0.0,0.0,0.0,0.0,0.0,0.0,0.0,0.0,0.0,0.0,0.0,0.0,0.0,0.0,0.0,0.0,0.0,0.0,0.0,0.0,0.0,0.0,0.0,0.0,0.0,0.0,0.0,0.0,0.0,0.0,0.0,0.0,0.0,0.0,0.0,0.0,0.0,0.0,0.0,0.0,0.0,0.0,0.0,0.0,0.0,0.0,0.0,0.0,0.0,0.0,0.0,0.0,-4.4129,-4.4792,-4.5491,-4.5501,-4.5504,-4.5523,-4.6093,-4.4609,-4.1694,-4.0739,0.0,0.0,0.0,0.0,0.0,0.0,0.0,0.0,0.0,0.0,0.0,0.0,0.0,0.0,0.0,0.0,0.0,0.0,0.0,0.0,0.0,0.0,0.0,0.0,-3.5558,-3.5359,0.0,0.0,0.0,0.0,0.0,0.0,0.0,0.0,0.0,0.0,0.0,0.0,-3.0563,-3.4101,-3.7158,-3.9351,-4.0364,-4.0894,-4.0937,-4.1007,-4.0267,-3.849,-3.7761,-3.5931,0.0,0.0,0.0,0.0,0.0,0.0,0.0,0.0,0.0,0.0,0.0,0.0,0.0,0.0,0.0,0.0,0.0,0.0,0.0,0.0,0.0,0.0,0.0,0.0,0.0,0.0,0.0,0.0,0.0,0.0,0.0,0.0,-3.8324,-4.0693,0.0,0.0,0.0,0.0,0.0,0.0,0.0,0.0,0.0,0.0,0.0,0.0,0.0,-4.1062,-4.2066,-4.5878,-4.7835,-4.7991,-5.1024,-5.2529,-5.2646,-5.2647,-5.2633,-5.2617,-5.1952,0.0,-4.4368,-4.2744,0.0,0.0,0.0,0.0,0.0,0.0,0.0,0.0,0.0,0.0,0.0,0.0,0.0,0.0,0.0,0.0,0.0,0.0,0.0,0.0,0.0,0.0,-3.9365,-4.0291,-3.9461,-3.8792,0.0,-3.4723,-2.9945,-3.0281,-2.8314,0.0,0.0,0.0,0.0,0.0,0.0,0.0,-3.0853,-3.5038,-3.833,-3.9478,-4.0333,-4.1012,-4.1542,-4.1597,-4.1089,-3.989,-3.9084,-3.7289,-3.4233,-3.3158,0.0,0.0,0.0,0.0,0.0,0.0,0.0,0.0,0.0,0.0,0.0,0.0,0.0,0.0,0.0,0.0,0.0,0.0,0.0,0.0,0.0,0.0,0.0,0.0,0.0,0.0,0.0,0.0,0.0,-3.7032,-3.9976,-4.035,-4.0971,-4.0152,0.0,0.0,0.0,0.0,0.0,0.0,0.0,0.0,0.0,-4.4887,-4.6687,-4.7796,-4.8174,-5.1027,-5.2454,-5.2474,-5.4006,-5.5218,-5.6112,-5.5672,-5.5718,-5.6093,-5.5253,-5.3046,-4.9849,-4.7077,-4.4237,-4.1377,0.0,0.0,0.0,0.0,-3.4911,-3.5238,-3.5238,-3.6406,0.0,-3.6149,0.0,0.0,0.0,0.0,0.0,0.0,0.0,0.0,0.0,0.0,-4.074,-4.2488,-4.2345,-4.1971,-4.2552,-3.8922,-3.5201,0.0,-3.179,-2.9167,-2.6581,0.0,0.0,0.0,0.0,-3.0581,-3.2741,-3.5685,-3.7925,-3.8838,-3.927,-3.9735,-4.0293,-4.0453,-4.0202,-3.9477,-3.9192,-3.806,-3.5838,-3.511,-3.3428,0.0,0.0,0.0,0.0,0.0,0.0,0.0,0.0,0.0,0.0,0.0,0.0,0.0,0.0,0.0,0.0,0.0,0.0,0.0,0.0,0.0,0.0,0.0,0.0,0.0,0.0,0.0,0.0,-3.9656,-4.2173,-4.1054,-4.3223,-4.3076,0.0,0.0,0.0,0.0,0.0,0.0,-4.5313,-4.6279,-4.8106,-5.1102,-5.3249,-5.4337,-5.4348,-5.5613,-5.6274,-5.6274,-5.605,-5.6595,-5.7779,-5.7187,-5.712,-5.7457,-5.6621,-5.5408,-5.3752,-5.0628,-4.7139,-4.3666,-4.262,-4.1021,-3.9242,-3.8573,-3.8604,-3.8931,-3.871,-4.0165,-4.1758,-3.9461,0.0,-3.8777,-3.4754,0.0,0.0,0.0,0.0,-3.6222,-3.8935,-4.0444,-4.1772,-4.3834,-4.4331,-4.426,-4.3976,-4.1935,-3.9637,0.0,-3.5396,-3.2588,-2.934,0.0,0.0,0.0,0.0,-3.1347,-3.3954,-3.5919,-3.7414,-3.831,-3.8446,-3.862,-3.9022,-3.9178,-3.9093,-3.8672,-3.8744,-3.8293,-3.7139,-3.6612,-3.5169,-3.2666,0.0,0.0,0.0,0.0,0.0,0.0,0.0,0.0,0.0,0.0,0.0,0.0,0.0,0.0,0.0,0.0,0.0,0.0,0.0,0.0,0.0,0.0,0.0,0.0,0.0,0.0,0.0,0.0,0.0,-4.5355,-4.9689,0.0,0.0,0.0,0.0,-4.4179,-4.4957,-4.7043,-5.0615,-5.1573,-5.3682,-5.7322,-5.8313,-5.8776,-5.8788,-5.8875,-5.8907,-5.8909,-5.807,-5.7721,-5.7797,-5.776,-5.7342,-5.6613,-5.5741,-5.4842,-5.3857,-5.1874,-4.9964,-4.7923,-4.4473,-4.3016,-4.2541,-4.0127,-4.0239,-4.1489,-4.0669,-4.1535,-4.3124,-4.372,-4.2338,-3.9788,-3.6315,-3.5776,0.0,0.0,-3.7436,-4.0196,-4.1132,-4.2584,-4.4045,-4.501,-4.522,-4.5137,-4.4811,-4.258,-4.0744,0.0,-3.8381,-3.5712,-3.4433,0.0,-3.1073,-2.8737,-3.0496,-3.2415,-3.3339,-3.5546,-3.735,-3.831,-3.8399,-3.8387,-3.8343,-3.8361,-3.8245,-3.7971,-3.7847,-3.7811,-3.7845,-3.6968,-3.597,-3.4871,-3.2582,0.0,0.0,0.0,0.0,0.0,0.0,0.0,0.0,0.0,0.0,0.0,0.0,0.0,0.0,0.0,0.0,0.0,0.0,0.0,0.0,0.0,0.0,0.0,0.0,0.0,0.0,0.0,0.0,-4.9757,-5.3348,0.0,-5.1075,-5.079,-5.0887,-5.1111,-5.2418,-5.4514,-5.7533,-5.8009,-5.9338,-6.1803,-6.2249,-6.1902,-6.078,-6.0224,-5.9378,-5.8265,-5.7953,-5.7797,-5.7797,-5.7797,-5.7633,-5.7296,-5.5894,-5.4805,-5.3896,-5.2483,-5.0918,-4.9234,-4.7804,-4.691,-4.6202,-4.4721,-4.4573,-4.4951,-4.4127,-4.4215,-4.4662,-4.4393,-4.2962,-4.1099,-3.9837,-3.966,-3.9915,-4.0058,-4.137,-4.2929,-4.374,-4.438,-4.4914,-4.522,-4.5307,-4.5162,-4.4637,-4.3498,-4.2434,-4.1984,-3.9143,-3.6245,-3.4449,-3.3898,-3.3077,-3.1178,-3.2061,-3.3447,-3.4769,-3.5711,-3.659,-3.7528,-3.7161,-3.7223,-3.8097,-3.7342,-3.7084,-3.7667,-3.7309,-3.7272,-3.7757,-3.6986,-3.6164,-3.5342,-3.3269,-3.0467,0.0,0.0,0.0,0.0,0.0,0.0,0.0,0.0,0.0,0.0,0.0,0.0,0.0,0.0,0.0,0.0,0.0,0.0,0.0,0.0,0.0,0.0,0.0,0.0,0.0,0.0,-5.198,-5.2276,-5.6163,-5.7853,-5.5425,-5.5713,-5.6437,-5.7308,-5.8391,-6.0057,-6.2442,-6.2666,-6.3405,-6.4922,-6.4823,-6.3895,-6.2152,-6.0987,-5.9534,-5.7797,-5.7797,-5.766,-5.7406,-5.7406,-5.6907,-5.602,-5.4912,-5.3768,-5.263,-5.2095,-5.122,-5.022,-5.0,-4.9574,-4.8945,-4.7788,-4.7369,-4.7171,-4.6069,-4.5673,-4.5541,-4.4963,-4.402,-4.3041,-4.2695,-4.2774,-4.3045,-4.3197,-4.3867,-4.4661,-4.5165,-4.5307,-4.5307,-4.5307,-4.5067,-4.4767,-4.4482,-4.324,-4.2133,-4.1838,-3.976,-3.7259,-3.4944,-3.452,-3.3879,-3.2028,-3.2238,-3.3067,-3.4407,-3.5074,-3.5678,-3.6294,-3.641,-3.6583,-3.6886,-3.5866,-3.5667,-3.6791,-3.5999,-3.6016,-3.722,-3.6185,-3.524,-3.4486,-3.2258,-2.9839,-2.7307,0.0,0.0,0.0,0.0,0.0,0.0,0.0,0.0,0.0,0.0,0.0,0.0,0.0,0.0,0.0,0.0,0.0,0.0,0.0,0.0,0.0,0.0,0.0,-4.3193,-4.916,-5.3451,-5.3092,-5.8436,-6.1216,-5.8954,-6.0268,-6.1621,-6.2472,-6.253,-6.3272,-6.5037,-6.5211,-6.5687,-6.6597,-6.5899,-6.4679,-6.2941,-6.1245,-5.9514,-5.7758,-5.7758,-5.7328,-5.6528,-5.6547,-5.5162,-5.2743,-5.2701,-5.1735,-5.0214,-5.0757,-5.1001,-5.1031,-5.0792,-5.0729,-5.0608,-4.893,-4.8229,-4.7887,-4.6221,-4.5668,-4.5708,-4.5708,-4.5708,-4.5538,-4.4619,-4.494,-4.5395,-4.4413,-4.4757,-4.5398,-4.5317,-4.5307,-4.5307,-4.5307,-4.4628,-4.407,-4.4312,-4.1831,-3.9812,-4.0777,-4.0308,-3.892,-3.6295,-3.5042,-3.3617,-3.1383,-3.1106,0.0,-3.2216,-3.3717,-3.4724,-3.4775,-3.6191,-3.6465,-3.4779,-3.3993,-3.4105,-3.5301,-3.3988,-3.4135,-3.6256,-3.4624,-3.33,-3.2524,-2.9626,-2.8442,-2.9068,0.0,0.0,0.0,0.0,0.0,0.0,0.0,0.0,0.0,0.0,0.0,0.0,0.0,0.0,0.0,0.0,0.0,0.0,0.0,0.0,0.0,-4.5848,-4.9448,-5.0083,-5.4723,-5.8768,-6.0723,-6.3339,-6.4715,-6.4073,-6.4492,-6.4909,-6.5141,-6.516,-6.5383,-6.5867,-6.4914,-6.4476,-6.4739,-6.4074,-6.2874,-6.1138,-6.0636,-5.9222,-5.6938,-5.6938,-5.6157,-5.4732,-5.5376,-5.4927,-5.36,-5.2963,-5.2432,-5.1894,-5.0636,-5.014,-5.0192,-5.0563,-5.0729,-5.0608,-4.893,-4.751,-4.631,-4.5152,-4.5171,-4.57,-4.5706,-4.5698,-4.566,-4.5384,-4.5492,-4.5599,-4.5287,-4.5293,-4.54,-4.538,-4.5339,-4.5307,-4.5307,-4.4628,-4.3909,-4.3597,-4.1875,-4.0336,-4.0231,-3.9392,-3.8296,-3.698,-3.6405,-3.573,-3.4633,-3.4482,0.0,-3.4772,-3.4694,-3.5084,-3.6308,-3.4772,-3.4171,-3.5439,-3.4247,-3.3783,-3.4559,-3.4707,-3.5,-3.5507,-3.5133,-3.4252,-3.2893,-3.0123,-2.8598,0.0,0.0,0.0,0.0,0.0,0.0,0.0,0.0,0.0,0.0,0.0,0.0,0.0,0.0,0.0,0.0,0.0,0.0,0.0,0.0,0.0,0.0,-4.9694,-5.3664,-5.6089,-5.8799,-6.1485,-6.4045,-6.5214,-6.5861,-6.6047,-6.6134,-6.6205,-6.6205,-6.6205,-6.6205,-6.6205,-6.5429,-6.4694,-6.4015,-6.365,-6.2295,-5.9883,-5.9857,-5.8584,-5.6059,-5.6059,-5.5337,-5.401,-5.4147,-5.3541,0.0,-5.2214,-5.1548,-5.0527,-5.0046,-4.9605,0.0,0.0,0.0,0.0,0.0,-4.6924,-4.5725,-4.5179,-4.5326,-4.575,-4.5746,-4.5722,-4.5706,-4.5706,-4.5205,-4.463,-4.4542,-4.3696,-4.3041,-4.4049,-4.401,-4.3883,-4.459,-4.4112,-4.3338,-4.2768,-4.0804,-3.9288,-3.9801,-3.8517,0.0,-3.7608,-3.6888,-3.5961,-3.4953,-3.4516,-3.4407,-3.4751,-3.4709,-3.4994,-3.5952,-3.5033,-3.4629,-3.5299,-3.4177,0.0,0.0,0.0,-3.3841,-3.354,-3.349,0.0,0.0,0.0,-2.8781,-2.8784,0.0,0.0,0.0,-2.6819,-2.6299,0.0,0.0,0.0,0.0,0.0,0.0,0.0,0.0,0.0,0.0,0.0,0.0,0.0,0.0,0.0,0.0,-5.3362,-5.6982,-6.0905,-6.1666,-6.2538,-6.4457,-6.5118,-6.5553,-6.5947,-6.6112,-6.6205,-6.6205,-6.6205,-6.6205,-6.6205,0.0,0.0,0.0,0.0,-6.2192,-5.9115,-5.9003,-5.7672,-5.5144,-5.5144,-5.4654,-5.3678,-5.28,-5.155,-5.0143,-5.0926,-4.998,-4.7983,-4.9249,-4.9201,-4.8404,-4.9092,-4.8841,-4.7964,-4.7166,-4.6418,-4.5793,-4.5679,0.0,0.0,-4.58,-4.575,-4.57,-4.5708,-4.4658,-4.3459,-4.3344,-4.1602,-4.0266,-4.2403,-4.2307,-4.202,-4.351,-4.3252,-4.2491,-4.1939,-3.9419,-3.7779,-3.9478,-3.783,-3.6614,-3.8034,-3.6937,-3.5453,-3.4139,-3.3248,-3.2995,-3.3719,-3.4392,-3.4842,-3.486,0.0,0.0,-3.5002,-3.4105,-3.381,-3.4283,-3.2921,-3.1934,-3.1538,-3.1132,-3.0472,-2.9568,-2.9061,-2.9115,-2.9703,-2.9703,-3.0015,-3.046,-2.7933,-2.7342,0.0,0.0,0.0,0.0,0.0,0.0,0.0,0.0,0.0,0.0,0.0,0.0,0.0,0.0,0.0,-5.3251,-5.7357,-6.072,-6.284,-6.3182,-6.3565,-6.4519,-6.5134,-6.5594,-6.59,-6.6091,-6.6205,-6.6205,-6.6205,-6.6205,-6.6205,-6.4982,-6.4155,-6.3849,-6.2016,-6.0386,-5.9027,-5.8384,-5.6777,-5.4257,0.0,0.0,-5.1863,-5.1004,-5.0416,-5.0104,-5.028,-5.0076,-4.9583,-4.9119,-4.8281,-4.7378,-4.8144,-4.7953,-4.7138,-4.6337,-4.5943,-4.5699,-4.5008,-4.5175,-4.5714,-4.5727,-4.5711,-4.5706,-4.5758,-4.5519,0.0,-4.5259,-4.4326,-4.3415,-4.3889,-4.3281,-4.2642,-4.2957,-4.2374,-4.1655,-4.1332,-4.0085,-3.9058,-3.9217,-3.8044,-3.7131,-3.738,-3.753,-3.7542,-3.7305,-3.6596,-3.6125,-3.6288,-3.5872,-3.5835,-3.6469,-3.5688,-3.552,-3.6531,-3.525,-3.4395,-3.438,-3.3329,-3.2985,-3.3577,-3.2284,-3.175,-3.2236,-3.085,-3.0199,-3.0328,-3.0434,-3.0558,-3.0654,-2.9987,-2.9745,0.0,0.0,0.0,0.0,0.0,0.0,0.0,0.0,0.0,0.0,0.0,-4.1888,-4.4936,0.0,-5.1599,-5.6205,-5.8906,-6.1196,-6.3301,-6.3534,-6.372,-6.427,-6.4854,-6.5326,-6.5626,-6.5974,-6.6205,-6.6205,-6.6205,-6.6205,-6.6205,-6.5432,-6.4625,-6.384,-6.2735,-6.1138,-5.9029,-5.8621,-5.6958,-5.4005,-5.4,-5.3098,-5.1375,-5.0494,-5.0104,-5.0104,-5.0104,-4.9856,-4.9362,-4.8393,-4.7392,-4.648,-4.6819,-4.694,-4.6855,-4.6039,-4.5762,-4.5681,-4.529,-4.538,-4.5709,-4.5735,-4.5703,-4.5665,-4.5777,-4.5179,-4.4357,-4.3965,-4.2879,-4.1929,-4.2264,-4.1976,-4.1684,-4.2068,-4.182,-4.1332,-4.064,-3.9747,-3.8936,-3.8569,-3.7655,-3.6889,-3.6687,-3.6846,-3.6991,-3.6997,-3.6309,-3.5928,-3.6345,-3.5711,-3.5496,-3.6309,-3.5693,-3.5398,-3.5856,-3.4755,-3.3958,-3.3772,-3.327,-3.3174,-3.3518,-3.2563,-3.2123,-3.2341,-3.1348,-3.0699,-3.0506,-3.0568,-3.0609,-3.0609,-3.0609,-3.0485,0.0,0.0,0.0,0.0,0.0,0.0,0.0,0.0,-3.9105,-4.2636,-4.3734,-4.5259,-4.9318,-5.1394,-5.3942,-5.8312,-5.9729,-6.1014,-6.3127,-6.3424,-6.3527,-6.3731,-6.4369,-6.4892,-6.512,-6.5709,-6.6056,-6.5973,-6.6108,-6.6205,-6.6205,-6.6205,-6.5461,-6.3817,-6.3579,-6.2098,-5.9233,-5.879,-5.7114,-5.4245,-5.4083,-5.3082,-5.1379,-5.0496,-5.0104,-5.0085,-4.9928,-4.956,-4.8961,-4.7801,-4.6875,-4.6145,-4.5835,-4.6209,-4.6818,-4.6009,-4.5706,-4.5719,-4.575,-4.573,-4.5682,-4.5762,-4.5706,-4.564,-4.577,-4.4804,-4.3512,-4.2662,-4.131,-4.0226,-4.0575,-4.0537,-4.0541,-4.1122,-4.1266,-4.0979,-3.9951,-3.9117,-3.8436,-3.7898,-3.7017,-3.6271,-3.6001,-3.5688,-3.5542,-3.5779,-3.5098,-3.4811,-3.5478,-3.4989,-3.486,-3.5496,-3.5713,-3.5491,-3.4767,-3.4065,-3.3523,-3.3196,-3.3101,-3.3024,-3.293,-3.2521,-3.2144,-3.1823,-3.1338,-3.0945,-3.0613,-3.0531,-3.0506,-3.0506,-3.0609,-3.0568,-3.0398,-3.036,-3.1624,-3.4958,-3.6432,-3.803,0.0,0.0,-4.5744,-4.7781,-4.988,-5.1993,-5.4168,-5.6379,-5.8187,-5.9271,-6.1083,-6.2475,-6.2776,-6.3247,-6.3342,-6.2662,-6.3641,-6.4344,-6.4235,-6.512,-6.5522,-6.517,-6.5799,-6.6205,-6.6205,-6.6205,-6.5441,-6.3758,-6.2335,-6.1078,-5.999,-5.7801,-5.6174,-5.5153,-5.4376,-5.3098,-5.1369,-5.05,-5.0104,-5.0065,-4.9286,-4.9325,-4.9817,-4.8105,-4.7297,-4.7047,-4.6141,-4.6283,-4.6879,-4.6018,-4.5701,-4.5709,-4.5717,-4.5665,-4.5631,-4.5701,-4.5657,-4.564,-4.577,-4.5619,-4.5263,-4.4501,-4.3559,-4.2598,-4.184,-4.1026,-4.0402,-4.0434,-4.0435,-4.0186,-3.9289,-3.885,-3.8363,-3.7535,-3.6361,-3.5497,-3.5406,-3.4595,-3.4381,-3.5693,-3.51,-3.4568,-3.4718,-3.4661,-3.4643,-3.4718,-3.5369,-3.5491,-3.4767,-3.4406,-3.398,-3.3488,-3.3119,-3.2979,-3.307,-3.2588,-3.2283,-3.2231,-3.149,-3.1083,-3.1024,-3.0658,-3.0506,-3.0506,-3.0526,-3.0485,-3.2593,-3.3675,0.0,0.0,-3.9545,-4.2236,-4.4373,-4.5891,-4.7501,-4.985,-5.1817,-5.3731,-5.5699,-5.7098,-5.8473,0.0,-6.0832,-6.155,-6.2567,-6.2751,-6.2676,-6.2428,-6.1563,-6.1337,-6.2254,-6.3439,-6.4176,-6.4241,-6.5025,-6.5489,-6.5489,-6.5489,-6.4715,-6.2994,-6.2333,-6.1121,-5.9301,-5.8367,-5.6757,-5.449,-5.4161,-5.3091,-5.1376,-5.0508,-4.9819,-4.9325,-4.8954,-4.874,-4.8585,-4.7792,-4.7122,-4.6552,-4.6091,-4.6362,-4.6895,-4.5976,-4.5967,-4.6333,-4.5866,-4.5648,-4.5603,-4.5679,-4.569,-4.5665,-4.5727,-4.5727,-4.5441,-4.4155,-4.3873,-4.3516,-4.1609,-4.115,-4.1075,-4.0485,-3.9936,-3.9451,-3.9088,-3.8156,-3.7215,-3.6699,-3.5799,-3.5008,-3.4711,-3.422,-3.4014,-3.4429,-3.4177,-3.3915,-3.39,-3.39,-3.39,-3.39,-3.4208,-3.428,-3.3963,-3.3912,-3.3752,-3.3414,-3.3196,-3.307,-3.3042,-3.2311,-3.1801,-3.1599,-3.0662,-3.0263,-3.0456,-2.9665,-2.9483,-2.9843,-2.9466,-2.9264,-3.3581,0.0,0.0,-3.8395,-4.1783,-4.4931,-4.575,-4.6948,-4.8486,-5.0673,-5.2278,-5.3875,-5.5771,-5.6882,-5.8065,-5.9846,-6.0404,-6.1043,-6.2303,-6.2338,-6.2023,-6.1422,-5.9316,-5.814,-5.8776,-6.0881,-6.2452,-6.3064,-6.4076,-6.4648,-6.4648,-6.4648,-6.3729,-6.1776,-6.1972,-6.0911,-5.8382,-5.8495,-5.712,-5.4267,-5.4055,-5.3072,-5.1361,-5.0494,-4.9765,-4.9134,-4.8663,-4.8252,-4.7883,-4.7376,-4.6894,-4.6459,-4.6128,-4.6416,-4.6913,-4.5978,-4.617,-4.6778,-4.5956,-4.564,-4.5603,-4.5671,-4.5671,-4.5635,-4.5406,-4.5337,-4.4998,-4.3342,-4.3318,-4.3233,-4.0887,-4.0688,-4.0873,-3.9912,-3.9157,-3.8598,-3.8362,-3.736,-3.637,-3.5941,-3.5344,-3.4792,-3.4446,-3.4221,-3.3972,-3.3698,-3.3591,-3.3495,-3.3396,-3.3197,-3.3067,-3.3067,-3.3067,-3.3067,-3.3067,-3.3136,-3.3136,-3.3041,-3.2733,-3.2484,-3.2396,-3.1722,-3.1184,-3.0775,-2.9918,-2.9555,-2.9679,-2.8834,-2.8658,-2.9118,-2.8641,-2.8392,-3.2191,0.0,-3.3934,-3.8836,-4.2156,-4.4552,-4.5734,-4.7884,-4.9799,-5.0457,-5.164,-5.3033,-5.4635,-5.6523,-5.782,-5.789,-6.0114,-6.187,-6.1924,-6.2212,-6.1478,-5.8998,-5.7198,-5.5375,0.0,-5.7245,-6.0404,-6.1575,-6.2954,-6.3739,-6.3739,-6.3739,-6.2578,-6.0054,-6.0731,-5.9977,-5.7567,-5.7488,-5.6678,-5.5157,-5.4315,-5.303,-5.1365,-5.0497,-5.008,-4.9963,-4.8333,-4.8076,-4.8642,-4.7004,-4.6788,-4.7363,-4.637,-4.645,-4.6979,-4.6042,-4.6202,-4.6778,-4.5902,-4.5594,-4.5594,-4.5594,-4.5594,-4.5468,-4.4683,-4.4441,-4.4102,-4.2488,-4.2017,-4.1584,-3.9886,-3.9415,-3.9126,-3.812,-3.7857,-3.7603,-3.6765,-3.6538,-3.6252,-3.5392,-3.5056,-3.4908,-3.487,-3.4491,-3.4173,-3.4099,-3.382,-3.352,-3.3322,-3.268,-3.2234,-3.2234,-3.2234,-3.2234,-3.2234,-3.2177,-3.2191,-3.2314,-3.1412,-3.0869,-3.088,-3.0783,-3.0495,-2.9954,-2.9659,-2.9316,-2.8943,-2.8569,-2.8409,-2.8426,-2.8409,-2.8392,-3.2086,0.0,-3.7642,-4.0149,-4.321,-4.5574,-4.5488,-4.7605,-4.9283,-4.8242,-4.8345,-4.8903,-4.9644,-5.0824,-5.2365,-5.4401,-5.6253,-5.8511,-6.1462,-6.0012,-5.884,-5.9393,-5.6936,0.0,0.0,0.0,0.0,-5.8226,-6.0389,-6.1739,-6.1959,-6.2511,-6.193,-5.9957,-6.0151,-5.9355,-5.7381,-5.6861,-5.5796,-5.418,-5.2862,-5.1674,-5.0584,-5.0309,-4.9544,-4.8406,-4.7834,-4.7421,-4.7108,-4.6537,-4.6464,-4.6671,-4.6288,-4.6583,-4.7128,-4.6189,-4.6303,-4.6838,-4.592,-4.5594,-4.5594,-4.5594,-4.5631,-4.5503,-4.46,-4.4358,-4.4055,-4.236,-4.1886,-4.1643,-4.0487,-3.9748,-3.9206,-3.888,-3.789,-3.6918,-3.6618,-3.5651,-3.4904,-3.5152,-3.4702,-3.4372,-3.46,-3.4497,-3.4279,-3.3895,-3.3657,-3.3477,-3.3382,-3.3143,-3.2795,-3.2252,-3.2687,-3.256,-3.1492,-3.1918,-3.2005,-3.1461,-3.1083,-3.0896,-3.0938,-3.0173,-2.9744,-2.97,-2.8567,-2.8164,-2.8511,-2.7945,-2.7912,-2.8392,-2.8392,-2.8127,-3.4129,-3.6971,-3.9864,-4.187,-4.4452,-4.6215,-4.5139,-4.675,-4.7919,-4.5979,-4.5824,-4.6019,-4.6048,-4.7219,-4.8941,-5.1154,-5.3132,-5.5784,-5.9763,-5.8488,-5.7659,-5.8966,-5.7029,-5.5549,0.0,0.0,0.0,-5.572,-5.7921,-5.9323,-5.9611,-5.9949,-5.9899,-5.9455,-5.9435,-5.8468,-5.6437,-5.6211,-5.5171,-5.3241,-5.1652,-5.0642,-5.0175,-4.9549,-4.8492,-4.714,-4.7137,-4.6644,-4.5859,-4.617,-4.6303,-4.6284,-4.6229,-4.6476,-4.6801,-4.6189,-4.6238,-4.6441,-4.5464,-4.5152,-4.5094,-4.4806,-4.4746,-4.4589,-4.3671,-4.3445,-4.315,-4.1432,-4.0966,-4.0745,-3.9578,-3.8864,-3.8362,-3.8013,-3.7043,-3.6155,-3.6144,-3.5223,-3.4547,-3.5087,-3.4773,-3.4507,-3.4708,-3.4614,-3.4353,-3.3921,-3.3712,-3.3563,-3.3452,-3.3154,-3.2777,-3.2252,-3.2415,-3.2125,-3.1089,-3.1257,-3.1179,-3.0618,-3.0256,-3.0089,-3.0076,-2.9386,-2.8993,-2.8927,-2.7917,-2.758,-2.7921,-2.735,-2.7334,-2.7801,-2.767,-2.7497,-3.7789,-3.9487,-4.0577,-4.3927,-4.576,-4.6339,-4.4688,-4.5416,-4.5846,-4.3783,-4.3894,-4.4182,0.0,0.0,-4.7279,-4.8187,-5.0799,-5.3856,-5.7035,-5.7744,-5.7891,0.0,0.0,0.0,0.0,0.0,0.0,-5.4153,0.0,-5.6756,-5.7026,-5.6435,-5.6865,-5.8546,-5.8516,-5.7308,-5.489,-5.5498,-5.4664,-5.2403,-5.082,-5.0084,-5.0078,-4.8417,-4.7165,-4.6302,-4.6302,-4.5828,-4.513,-4.5958,-4.6309,-4.6285,-4.6228,-4.617,-4.6095,-4.6092,-4.5953,-4.5602,-4.4588,-4.4267,-4.4162,-4.3355,-4.3104,-4.2931,-4.2058,-4.184,-4.1559,-3.993,-3.9455,-3.909,-3.7454,-3.699,-3.6728,-3.5791,-3.5488,-3.5391,-3.5316,-3.5176,-3.507,-3.5174,-3.5168,-3.5124,-3.5127,-3.4727,-3.4353,-3.4074,-3.3897,-3.3739,-3.352,-3.278,-3.2248,-3.2144,-3.1492,-3.1003,-3.0876,-3.0219,-2.9784,-2.9748,-2.9029,-2.8536,-2.8406,-2.8471,-2.8264,-2.7774,-2.7789,-2.7612,-2.7213,-2.6908,-2.6759,-2.6725,-2.6446,-2.6667,-3.7719,-4.0592,-4.3722,-4.5175,-4.5807,-4.5518,-4.3573,-4.3721,-4.3444,-4.0479,-3.908,-3.8164,0.0,0.0,0.0,-4.5313,-4.8534,0.0,-5.6837,-5.7399,0.0,-5.7877,0.0,-5.7691,-5.6633,-5.683,0.0,0.0,-5.5021,-5.6383,-5.7522,-5.7527,-5.7832,-5.8584,-5.7346,-5.636,-5.5702,-5.4059,-5.2663,-5.153,-5.1154,-5.0358,-4.9219,-4.8769,-4.7734,-4.6308,-4.6307,-4.6168,-4.5991,-4.6203,-4.6299,-4.6299,-4.6284,-4.623,-4.6166,-4.6126,-4.5652,-4.4888,-4.3852,-4.3836,-4.4162,-4.3355,-4.3104,-4.2931,-4.2058,-4.1816,-4.1601,-4.0519,-4.0253,-4.0056,-3.897,-3.8234,-3.7566,-3.6684,-3.5963,-3.5453,-3.5391,-3.4791,-3.4461,-3.5076,-3.4558,-3.4015,-3.4014,-3.3779,-3.351,-3.325,-3.3667,-3.3895,-3.3549,-3.3338,-3.2728,-3.1368,-3.1627,-3.1152,-2.929,-2.9541,-2.9549,-2.8938,-2.8708,-2.8612,-2.8607,-2.8543,-2.8479,-2.8448,-2.8014,-2.7654,-2.735,-2.7453,-2.7397,-2.7163,-2.7618,-2.7647,-4.0435,-4.2426,-4.4527,-4.5555,-4.5349,-4.4259,-4.1841,-4.131,-4.0363,-3.7044,-3.5627,-3.4841,-3.4232,-3.6298,0.0,0.0,0.0,0.0,-5.5018,-5.5991,-5.6617,0.0,-5.8184,0.0,-5.826,-5.7921,-5.7081,0.0,-5.5119,-5.5381,-5.6385,-5.566,-5.5908,-5.7361,-5.5782,-5.4716,-5.4349,-5.2565,-5.1508,-5.1142,-5.0449,-4.9669,-4.8782,-4.8085,-4.7012,-4.5742,0.0,-4.6073,-4.5758,-4.6148,-4.6303,-4.6301,-4.6301,-4.6287,-4.623,-4.6208,-4.5604,-4.4657,-4.3672,-4.3309,-4.3146,-4.2252,-4.195,-4.1873,-4.1373,-4.1239,-4.1054,-4.0204,-3.9726,-3.9252,-3.8423,-3.761,-3.6858,-3.6357,-3.5828,-3.5338,-3.4913,-3.4657,-3.4508,-3.4581,-3.3817,-3.3158,-3.3158,-3.3318,-3.3379,-3.3227,-3.3769,-3.4086,-3.3807,-3.3619,-3.3121,-3.2061,-3.1737,-3.1032,-2.9665,-2.9344,-2.9057,-2.8636,-2.86,-2.8612,-2.8644,-2.8569,-2.8574,-2.8607,-2.8304,-2.8027,-2.78,-2.7673,-2.7487,-2.7247,-2.7379,-2.7398,-4.3848,-4.4227,-4.4255,-4.5507,-4.4685,-4.2866,-4.0245,-3.8808,-3.7148,-3.4017,-3.3193,-3.3044,-3.2961,-3.5929,-3.9159,-4.1576,0.0,-4.9521,-5.2621,-5.4374,-5.5765,-5.683,-5.7953,-5.8846,-5.9382,-5.8002,-5.7228,-5.7652,-5.5593,-5.4468,-5.4757,-5.2972,-5.2995,-5.5326,-5.4055,-5.2898,-5.2028,-5.1273,-5.0961,-5.1086,-4.9518,-4.875,-4.866,-4.7143,-4.5995,-4.5213,-4.5976,0.0,-4.5229,-4.5994,-4.6306,-4.6303,-4.6303,-4.6305,-4.6287,-4.617,-4.5505,-4.4536,-4.366,-4.2688,-4.1726,-4.0805,-4.0504,-4.0516,-4.065,-4.0593,-4.0389,-3.9795,-3.902,-3.8122,-3.7198,-3.6447,-3.5855,-3.5567,-3.5468,-3.5201,-3.4433,-3.4725,-3.4854,-3.3992,-3.3244,-3.2683,-3.2481,-3.3004,-3.3458,-3.3439,-3.3882,-3.4174,-3.4105,-3.3712,-3.3342,-3.3163,-3.174,-3.0722,-3.0576,-2.9291,-2.8482,-2.8442,-2.8533,-2.86,-2.86,-2.86,-2.8574,-2.8518,-2.8574,-2.8484,-2.8268,-2.771,-2.7365,-2.7197,-2.6572,-2.6607,-4.3216,-4.4227,-4.5507,-4.576,-4.4322,-4.2442,-4.0783,-3.7929,0.0,0.0,-3.1661,-3.1092,-3.2413,-3.4616,-3.79,-4.2995,-4.5972,-4.8679,-5.1786,-5.4516,-5.6196,0.0,-5.714,0.0,0.0,0.0,0.0,0.0,0.0,-5.5407,-5.5221,-5.391,-5.3066,-5.277,-5.2547,-5.2008,-5.113,-5.0975,-5.0961,-5.1086,-5.0073,-4.9285,-4.8677,-4.7712,-4.6847,-4.6074,-4.623,0.0,-4.6093,-4.623,-4.6308,-4.6308,-4.6308,-4.6308,-4.6209,-4.5488,-4.4667,-4.3769,-4.2827,-4.1929,-4.1103,-4.0705,-4.0549,-4.0631,-4.1354,-4.1066,-4.0612,-4.1208,-4.0789,-3.9791,-3.8202,-3.773,-3.7301,-3.5848,-3.5481,-3.5422,-3.522,-3.5185,-3.4937,-3.4116,-3.3762,-3.3176,-3.1852,-3.2262,-3.274,-3.2625,-3.3233,-3.3815,-3.4068,-3.3793,-3.3237,-3.2386,-3.1398,-3.023,-2.886,-2.8607,-2.8234,-2.7566,-2.8194,-2.86,-2.86,-2.86,-2.8625,-2.8657,-2.8574,-2.8383,-2.8116,-2.7855,-2.758,-2.7272,-2.6808,-2.6691,-4.3579,-4.4196,-4.5333,-4.5713,-4.3943,-4.1367,-3.8539,0.0,0.0,-3.0464,-2.9494,-2.9637,-3.1215,-3.3322,0.0,-4.1164,-4.417,-4.7185,-5.0916,-5.2976,0.0,-5.542,-5.619,0.0,0.0,0.0,0.0,0.0,0.0,-5.3937,-5.5119,-5.3811,-5.2666,-5.1914,-5.1612,-5.1299,-5.0956,-5.0914,-5.0719,-5.0352,-4.9528,-4.8691,-4.7887,-4.7157,-4.6602,-4.6243,-4.6288,0.0,-4.5664,-4.6113,-4.6035,-4.5664,-4.6113,-4.6015,-4.5566,-4.5156,-4.416,-4.2968,-4.2507,-4.1752,-4.0976,-4.0805,-4.0693,-4.0668,-4.1027,-4.0835,-4.0593,-4.1008,-4.0543,-3.9634,-3.8322,-3.7695,-3.7055,-3.5795,-3.5154,-3.4909,-3.5276,-3.4573,-3.3769,-3.3347,-3.2844,-3.2241,-3.1489,-3.2411,-3.31,-3.2585,-3.3865,-3.464,-3.3939,-3.3912,-3.3663,-3.281,-3.1953,-3.1074,-3.0198,-2.9053,-2.827,-2.7944,-2.7922,-2.776,-2.7369,-2.8165,-2.8413,-2.8027,-2.842,-2.8518,-2.8313,-2.8065,-2.7855,-2.7648,-2.7225,-2.6938,-4.4202,-4.4452,-4.508,-4.5665,-4.369,-4.0577,-3.6722,-3.44,0.0,-2.8572,-2.8184,-2.8954,-3.0537,-3.2431,-3.5099,0.0,-4.1646,-4.4734,-4.9732,-5.075,-5.1969,0.0,-5.5299,0.0,0.0,0.0,0.0,0.0,0.0,0.0,-5.4261,-5.3029,-5.1986,-5.1371,-5.0981,-5.0852,-5.0968,-5.0759,-5.0341,-4.9681,-4.8671,-4.7847,-4.7181,-4.6479,-4.6167,-4.6204,-4.6264,0.0,0.0,-4.5937,-4.5781,-4.5096,-4.5957,-4.5879,-4.5254,-4.5078,-4.4121,-4.289,-4.2534,-4.192,-4.1264,-4.0998,-4.0821,-4.0715,-4.0775,-4.065,-4.0535,-4.0727,-4.0054,-3.9111,-3.8238,-3.7353,-3.6538,-3.5904,-3.5103,-3.4686,-3.5448,-3.4358,-3.3135,-3.2705,-3.2344,-3.1931,-3.1385,-3.2578,-3.3448,-3.295,-3.4134,-3.4794,-3.3989,-3.3995,-3.3913,-3.3502,-3.2607,-3.1917,-3.1607,-2.9876,-2.8717,-2.8481,-2.789,-2.7308,-2.6735,-2.7767,-2.8129,-2.7676,-2.8336,-2.871,-2.8771,-2.8371,-2.825,-2.836,-2.7736,-2.7317,-4.4532,-4.5302,-4.5728,-4.5792,-4.369,-4.083,-3.7968,0.0,-3.2222,-2.9819,-2.9155,-2.96,-3.1496,-3.2438,-3.4527,0.0,0.0,-4.0659,-4.7902,-4.8281,-4.9368,-5.3591,0.0,0.0,0.0,0.0,0.0,0.0,0.0,0.0,-5.2012,-5.1447,-5.0873,-5.0269,-5.0606,-5.081,-5.0819,-5.0151,-4.9765,-4.9676,-4.8019,-4.7224,-4.7176,-4.6386,-4.6084,-4.6202,-4.6206,0.0,0.0,-4.5937,-4.5781,-4.5096,-4.5957,-4.625,-4.6074,-4.5293,-4.4902,-4.4531,-4.2949,-4.2344,-4.2129,-4.1265,-4.0851,-4.082,-4.1548,-4.1176,-4.0669,-4.147,-4.0527,-3.9111,-3.8238,-3.7353,-3.6673,-3.6615,-3.5962,-3.5596,-3.6397,-3.5782,-3.4588,-3.3009,-3.3819,-3.401,-3.1694,-3.2028,-3.2898,-3.3666,-3.2664,-3.2551,-3.4519,-3.3975,-3.3527,-3.3911,-3.2933,-3.1897,-3.0966,-3.0654,-2.989,-2.8501,-2.8391,-2.8397,-2.8382,-2.7821,-2.7821,-2.8491,-2.8563,-2.8956,-2.9681,-2.8848,-2.8845,-2.9521,-2.8449,-2.7855,-4.2305,-4.4025,-4.5697,-4.5254,-4.3058,-4.0151,-3.6943,0.0,-3.176,-2.938,-2.908,-2.9526,-3.0552,-3.0902,-3.21,0.0,0.0,0.0,-4.3822,-4.4662,-4.6671,-5.2156,0.0,0.0,0.0,0.0,0.0,0.0,0.0,0.0,-5.0652,-5.0656,-5.0644,-5.065,-5.0466,-5.0488,-5.0748,-4.9961,-4.9335,-4.8837,-4.7669,-4.6841,-4.6358,-4.6105,-4.6027,-4.6099,-4.6728,0.0,0.0,-4.6268,-4.5956,-4.4352,-4.5742,-4.5976,-4.5488,-4.5137,-4.4668,-4.4121,-4.3418,-4.3183,-4.3027,-4.2128,-4.1761,-4.1591,-4.1274,-4.0919,-4.068,-4.095,-4.0181,-3.9111,-3.8238,-3.6988,-3.5981,-3.5981,-3.5334,-3.4814,-3.5122,-3.4875,-3.4215,-3.3006,-3.3592,-3.4016,-3.3035,-3.3506,-3.3964,-3.3853,-3.4154,-3.4192,-3.3581,-3.407,-3.4216,-3.3639,-3.3269,-3.2837,-3.2247,-3.1322,-3.0273,-2.912,-2.8667,-2.8044,-2.7139,-2.7773,-2.8057,-2.7876,-2.8346,-2.9011,-2.9802,-2.945,-2.9468,-2.9802,-2.926,-2.8348,-4.061,-4.3013,-4.5365,-4.4843,-4.2473,-3.9424,0.0,0.0,-3.1074,-2.885,-2.8828,-2.935,-2.971,-2.9852,-3.0555,0.0,0.0,-3.5241,-4.0395,-4.1723,-4.4085,0.0,0.0,0.0,0.0,0.0,0.0,0.0,0.0,0.0,-4.9899,-4.9928,-5.0099,-5.0491,-5.0182,-5.0061,-5.0163,-4.9394,-4.8636,-4.7952,-4.7105,-4.625,-4.5425,-4.5789,-4.5809,-4.5647,-4.6628,0.0,0.0,-4.6299,-4.5954,-4.4234,-4.5722,-4.5762,-4.5039,-4.5293,-4.4824,-4.4082,-4.4082,-4.3926,-4.3555,-4.2675,-4.2205,-4.1784,-4.0715,-4.0558,-4.0709,-4.0595,-3.9764,-3.87,-3.7834,-3.6558,-3.5558,-3.5808,-3.5199,-3.4641,-3.4891,-3.4716,-3.4251,-3.3355,-3.375,-3.4159,-3.3906,-3.4321,-3.4552,-3.4219,-3.4577,-3.4412,-3.3124,-3.3546,-3.3711,-3.3058,-3.3235,-3.3346,-3.3265,-3.2213,-3.12,-3.0309,-2.9327,-2.8296,-2.7211,-2.8061,-2.8442,-2.8123,-2.8889,-2.9717,-3.0509,-3.0273,-3.0178,-3.0218,-2.9929,-2.8899,-4.0213,-4.2718,-4.4717,-4.4717,-4.2094,-3.8792,0.0,-3.3002,-3.0304,-2.8476,-2.8647,-2.919,-2.9448,-2.971,-3.0577,-3.2677,0.0,0.0,-3.8352,-3.9873,0.0,0.0,0.0,0.0,0.0,0.0,0.0,0.0,0.0,0.0,-4.9806,-4.9177,-4.8962,-4.9308,-4.9641,-4.9531,-4.8926,-4.8194,-4.7568,-4.7102,-4.6232,-4.5363,-4.4532,-4.5406,-4.5364,0.0,0.0,0.0,0.0,-4.5847,-4.5729,-4.5076,-4.5957,-4.5762,-4.5098,-4.5976,-4.5723,-4.498,-4.498,-4.4414,-4.3555,-4.2676,-4.1855,-4.1015,-4.002,-4.0211,-4.0786,-4.0711,-3.9398,-3.7815,-3.6942,-3.6115,-3.5692,-3.65,-3.6077,-3.5692,-3.65,-3.6058,-3.521,-3.4263,-3.474,-3.4967,-3.3965,-3.3859,-3.4156,-3.4887,-3.29,-3.1944,-3.3589,-3.219,-3.1336,-3.2128,-3.2642,-3.3086,-3.356,-3.3462,-3.2987,-3.2119,-3.0567,-2.9683,-2.9665,-2.8907,-2.8892,-2.9766,-3.0581,-3.1365,-3.2162,-3.1365,-3.0998,-3.098,-3.0314,-2.9563,-3.5922,-3.7956,-3.9661,-3.914,-3.748,-3.5473,-3.3699,-3.1697,-2.9963,-2.8996,-2.8894,-2.9082,-2.9425,-2.9576,-3.0251,-3.2141,-3.3024,0.0,0.0,0.0,0.0,0.0,0.0,0.0,0.0,0.0,0.0,0.0,0.0,0.0,-4.9085,-4.8917,-4.8943,-4.9292,-4.9396,-4.9514,-4.9638,-4.8365,-4.7728,-4.7691,-4.6402,-4.5348,-4.4534,-4.5459,-4.537,0.0,0.0,0.0,0.0,-4.6445,-4.5892,-4.4138,-4.5057,-4.4883,-4.4141,-4.4414,-4.4355,-4.4101,-4.4101,-4.3535,-4.2676,-4.1855,-4.0996,-4.0137,-3.9236,-3.9468,-3.9794,-3.8524,-3.7683,-3.6987,-3.6162,-3.5727,-3.5558,-3.5827,-3.5238,-3.468,-3.493,-3.4795,-3.4519,-3.423,-3.4777,-3.5197,-3.4883,-3.4767,-3.4795,-3.5043,-3.3895,-3.3004,-3.298,-3.2454,-3.1914,-3.1421,-3.2003,-3.2545,-3.2884,-3.278,-3.2555,-3.2187,-3.1123,-3.0545,-3.0595,-3.0306,-3.0301,-3.0618,-3.0871,-3.1397,-3.2198,-3.1926,-3.1542,-3.0962,-2.899,-2.7972,-3.3423,-3.5417,-3.6975,-3.6445,-3.5074,-3.3556,-3.2467,-3.0854,-2.9437,-2.9069,-2.936,-2.9619,-2.9339,-2.9811,-3.0452,-3.1082,-3.2923,0.0,0.0,0.0,0.0,0.0,0.0,0.0,0.0,0.0,0.0,0.0,0.0,0.0,-4.875,-4.8544,-4.848,-4.8695,-4.8994,-4.9052,-4.8837,-4.7985,-4.719,-4.6484,-4.5654,-4.4666,-4.3543,-4.4469,-4.4554,0.0,0.0,0.0,0.0,-4.5737,-4.5211,-4.4046,-4.3683,-4.3397,-4.3203,-4.3203,-4.3203,-4.3262,-4.3594,-4.293,-4.1855,-4.1367,-4.0176,-3.8828,-3.8261,-3.8624,-3.9039,-3.8186,-3.7637,-3.7257,-3.7044,-3.6472,-3.5942,-3.5942,-3.5315,-3.4603,-3.4263,-3.4449,-3.4584,-3.4263,-3.4831,-3.5364,-3.5315,-3.4942,-3.4632,-3.4605,-3.3576,-3.2593,-3.2096,-3.1762,-3.133,-3.0663,-3.1261,-3.1774,-3.1945,-3.236,-3.2394,-3.1932,-3.1633,-3.1342,-3.1043,-3.1237,-3.14,-3.1492,-3.1731,-3.197,-3.2198,-3.1582,-3.1211,-3.0989,-2.8791,-2.7797,0.0,-3.4403,-3.5843,-3.5742,-3.425,-3.2662,-3.2023,-3.0291,0.0,-2.8919,-3.0022,-3.0582,-2.9273,-3.0458,-3.115,-2.9799,-3.2973,0.0,0.0,0.0,0.0,0.0,0.0,0.0,0.0,0.0,0.0,0.0,0.0,0.0,-4.8473,-4.7892,-4.7497,-4.7441,-4.8166,-4.7982,-4.6813,-4.6933,-4.5998,-4.3971,-4.4186,-4.345,-4.1909,-4.2791,-4.3199,0.0,0.0,0.0,0.0,-4.4151,-4.3946,-4.438,-4.2023,-4.1553,-4.2207,-4.2148,-4.2168,-4.2324,-4.3144,-4.2324,-4.0918,-4.0859,-3.9199,-3.7206,-3.7203,-3.7684,-3.8374,-3.9058,-3.8609,-3.8093,-3.8859,-3.7822,-3.6615,-3.6615,-3.6038,-3.5269,-3.4468,-3.493,-3.525,-3.4449,-3.4911,-3.5364,-3.5234,-3.4446,-3.3797,-3.3733,-3.2243,-3.1151,-3.1207,-3.0448,-2.9916,-2.9991,-3.0487,-3.0829,-3.0829,-3.2013,-3.2372,-3.1495,-3.1986,-3.2001,-3.1247,-3.1858,-3.226,-3.2383,-3.2933,-3.2849,-3.2107,-3.0563,-3.0191,-3.0884,-2.939,-2.8737,-2.988,0.0,-3.0819,-3.0779,-3.0392,-3.0006,0.0,-2.9289,0.0,0.0,0.0,0.0,0.0,-3.1687,-3.2124,-3.0574,-3.2845,-3.5088,-3.6022,0.0,0.0,0.0,0.0,0.0,0.0,0.0,0.0,0.0,0.0,-4.6617,-4.5715,-4.5788,-4.5565,-4.4896,-4.5045,-4.5392,-4.5906,-4.4758,-4.4033,-4.3762,-4.3379,-4.2647,-4.1714,-4.2726,-4.3134,0.0,0.0,0.0,-4.4754,-4.4505,-4.3384,-4.1782,-4.124,-4.074,-4.0264,-3.9648,-3.983,-4.0457,-4.0702,-3.9668,-3.8105,-3.7441,-3.6815,-3.6307,-3.6307,-3.6425,-3.6589,-3.6713,-3.6502,-3.6309,-3.6505,-3.6125,-3.5715,-3.5762,-3.5635,-3.5442,-3.5231,-3.5365,-3.5442,-3.5231,-3.4814,-3.4507,-3.4467,-3.3688,-3.3049,-3.3046,-3.2019,-3.1496,-3.2161,-3.0858,-3.0162,-3.0825,-3.0431,-3.0141,-3.0141,-3.0797,-3.1384,-3.176,-3.1691,-3.1868,-3.2371,-3.2898,-3.3161,-3.3151,-3.2632,-3.2018,-3.1274,-3.0273,-2.9585,-2.9186,-2.8806,-2.8662,-2.899,-2.9052,-2.9233,-2.9816,-2.9486,-2.9163,-2.9736,0.0,0.0,0.0,0.0,0.0,0.0,0.0,-3.1823,-3.1006,-3.2762,0.0,0.0,0.0,0.0,0.0,0.0,0.0,0.0,0.0,0.0,0.0,0.0,-4.5276,-4.4726,-4.4548,-4.451,-4.4599,-4.4209,-4.4287,-4.4853,-4.3769,-4.312,-4.2946,-4.2787,-4.2106,-4.1041,-4.2058,-4.2263,0.0,0.0,0.0,-4.3168,-4.2142,-4.1601,-4.1301,-3.9762,-3.9377,-3.9544,-3.8358,-3.8468,-3.9214,-3.9274,-3.8418,-3.7168,-3.6289,-3.5995,-3.5995,-3.5995,-3.5996,-3.6054,-3.6377,-3.6402,-3.6414,-3.6716,-3.6149,-3.5496,-3.5468,-3.5166,-3.4673,-3.3871,-3.4339,-3.468,-3.3904,-3.3667,-3.3609,-3.3603,-3.3132,-3.2627,-3.2259,-3.1718,-3.1351,-3.1407,-3.0584,-3.0154,-3.0568,-3.0181,-2.9897,-2.9897,-3.0167,-3.049,-3.0872,-3.1362,-3.1668,-3.1732,-3.2252,-3.2466,-3.2292,-3.1134,-3.0681,-3.0998,-2.9445,-2.8848,-2.9137,-2.8763,-2.8625,-2.892,-2.9069,-2.9525,-3.0728,-2.9965,-2.9281,-3.0554,0.0,0.0,0.0,0.0,0.0,0.0,-3.118,0.0,0.0,0.0,0.0,0.0,0.0,0.0,0.0,0.0,0.0,0.0,0.0,0.0,0.0,0.0,-4.359,-4.3848,-4.3256,-4.3367,-4.4321,-4.3633,-4.3318,-4.3448,-4.3002,-4.2406,-4.1676,-4.1984,-4.1453,-4.0234,-4.1082,-4.1078,-4.04,0.0,0.0,-4.1314,-3.9374,-3.9633,-4.0994,-3.8253,-3.8039,-3.9078,-3.753,-3.7531,-3.8284,-3.8217,-3.7714,-3.6973,-3.623,-3.5996,-3.5975,-3.5838,-3.5799,-3.5898,-3.6396,-3.662,-3.6821,-3.7394,-3.6387,-3.5169,-3.5053,-3.4513,-3.359,-3.2097,-3.2942,-3.357,-3.2148,-3.2314,-3.2705,-3.2699,-3.249,-3.2094,-3.1421,-3.1255,-3.0963,-3.0293,-3.0122,-3.0079,-3.0094,-2.9991,-2.9897,-2.9897,-2.9897,-2.9847,-2.9744,-3.0993,-3.1392,-3.0676,-3.1108,-3.121,-3.0867,-2.9533,-2.9388,-3.0455,-2.8515,-2.8207,-2.9422,-2.8853,-2.8587,-2.8982,-2.9446,-3.0067,-3.0944,-3.0101,-2.9438,-3.0817,-2.9973,0.0,0.0,0.0,0.0,0.0,-3.4394,-3.4922,0.0,0.0,0.0,0.0,0.0,0.0,0.0,0.0,0.0,0.0,0.0,0.0,0.0,0.0,-4.1116,-4.0109,-4.0266,-4.0274,-4.0067,-3.9918,-4.0197,-4.0954,-4.0867,-4.0463,-3.9718,-3.9896,-3.9908,-3.9807,-4.0184,-4.0253,-4.0091,0.0,-4.0018,-3.9572,-4.0039,-3.9148,-3.7565,-3.7897,-3.7707,-3.7141,-3.6252,-3.6524,-3.7236,-3.661,-3.6308,-3.6172,-3.6035,-3.5995,-3.5858,-3.5114,-3.4898,-3.4761,-3.4139,-3.4427,-3.4928,-3.5025,-3.4229,-3.3388,-3.3367,-3.3231,-3.3012,-3.2697,-3.2831,-3.2947,-3.2678,-3.2172,-3.1808,-3.1789,-3.1174,-3.0631,-3.0497,-3.039,-3.0506,-3.1104,-3.0459,-3.0202,-3.092,-3.0332,-2.9897,-2.9897,-2.9897,-2.9888,-2.9872,-3.0508,-3.1002,-3.1244,-3.1241,-3.0927,-3.0251,-2.9792,-2.9057,-2.804,-2.8185,-2.8088,-2.7785,-2.8278,-2.8549,-2.8701,-2.8881,-2.9486,-3.1675,-3.1236,-3.0788,-3.2888,-3.1589,0.0,0.0,0.0,0.0,0.0,0.0,-3.3583,-3.3107,0.0,0.0,0.0,0.0,0.0,0.0,0.0,0.0,0.0,0.0,0.0,0.0,0.0,0.0,-3.9623,-4.0185,-4.0392,-4.0188,-4.056,-4.0651,-4.0401,-3.9918,-3.9798,-3.9989,-4.0088,-3.9971,-3.9665,-4.0302,-4.0108,-3.9268,0.0,-3.8314,-3.8418,-3.7971,-3.7634,-3.7394,-3.7398,-3.7154,-3.6658,-3.5475,-3.5359,-3.5713,-3.539,-3.5307,-3.5388,-3.5859,-3.5683,-3.5213,-3.4823,-3.4372,-3.3901,-3.3512,-3.3633,-3.3903,-3.3853,-3.3164,-3.2438,-3.2365,-3.2306,-3.2107,-3.1609,-3.1834,-3.2005,-3.1545,-3.1123,-3.0867,-3.0887,-3.0931,-3.079,-3.0369,-3.0656,-3.087,-3.071,-3.0327,-3.0174,-3.0473,-3.0143,-2.9897,-2.9897,-2.9897,-2.9897,-2.9897,-3.0002,-3.0139,-3.0361,-2.9724,-2.9399,-2.9442,-2.8476,-2.7997,-2.8094,-2.7934,-2.7909,-2.7989,-2.8343,-2.8549,-2.8303,-2.8357,-2.8966,-3.184,-3.1593,-3.1511,-3.475,-3.2922,0.0,0.0,0.0,0.0,0.0,-3.2426,0.0,-3.5064,0.0,0.0,0.0,0.0,0.0,0.0,0.0,0.0,0.0,0.0,0.0,0.0,0.0,0.0,-3.9491,-4.0085,-4.0397,-4.0306,-4.0989,-4.0835,-3.9707,-3.911,-3.9286,-4.0247,-4.0109,-3.9864,-3.9508,-4.0277,-3.9773,-3.8212,-3.7081,-3.683,-3.7138,-3.6104,-3.6344,-3.7298,-3.6873,-3.6639,-3.6349,-3.4976,-3.4395,-3.4286,-3.4357,-3.4241,-3.423,-3.5116,-3.4941,-3.4354,-3.414,-3.3612,-3.3061,-3.2869,-3.2807,-3.2846,-3.2984,-3.2368,-3.1663,-3.1569,-3.1497,-3.1259,-3.0571,-3.0914,-3.1142,-3.0433,-3.0267,-3.0228,-3.0266,-3.0783,-3.0986,-3.0369,-3.0829,-3.0975,-3.0221,-3.015,-3.0106,-2.9964,-2.9924,-2.9897,-2.9897,-2.9726,-2.9631,-2.9631,-2.9587,-2.9551,-2.9503,-2.8635,-2.8331,-2.8698,-2.7577,-2.7432,-2.8341,-2.7832,-2.7897,-2.8492,-2.8479,-2.8523,-2.791,-2.8334,-2.9115,-3.0598,-3.0024,-3.035,-3.5212,-3.296,0.0,-3.4538,0.0,0.0,0.0,-3.3846,-3.446,0.0,0.0,0.0,0.0,0.0,0.0,0.0,0.0,0.0,0.0,0.0,0.0,0.0,0.0,0.0,-3.8164,-3.8364,-3.8338,-3.7951,-3.8526,-3.8465,-3.7621,-3.7868,-3.8409,-3.9189,-3.8459,-3.8473,-3.9142,-3.9399,-3.8621,-3.7052,-3.731,-3.6559,-3.5275,-3.6143,-3.6078,-3.549,-3.6368,-3.6273,-3.5577,-3.4725,-3.3934,-3.3313,-3.3388,-3.29,-3.2432,-3.3292,-3.3531,-3.3338,-3.2538,-3.2243,-3.2045,-3.1285,-3.109,-3.1247,-3.1992,-3.1481,-3.0781,-3.0779,-3.072,-3.0638,-3.051,-3.0545,-3.051,-3.0339,-3.0296,-3.0279,-3.0219,-3.0249,-3.0275,-3.0226,-3.0197,-3.0202,-3.0194,-3.0087,-3.003,-3.0087,-2.9972,-2.9897,-2.9897,-2.9215,-2.8798,-2.8798,-2.9408,-2.969,-2.9504,-2.9301,-2.8864,-2.8177,-2.8358,-2.8166,-2.758,-2.7972,-2.8259,-2.8492,-2.8432,-2.8489,-2.7884,-2.8155,-2.8763,-3.1441,-3.0779,0.0,0.0,-3.394,-3.3181,-3.6095,-3.5115,0.0,0.0,0.0,0.0,0.0,0.0,0.0,0.0,0.0,0.0,0.0,0.0,0.0,0.0,0.0,0.0,0.0,0.0,0.0,-3.7745,-3.8342,-3.8317,-3.7414,-3.7808,-3.7834,-3.7393,-3.6569,-3.6641,-3.7596,-3.7299,-3.7286,-3.7543,-3.7623,-3.736,-3.682,-3.644,-3.6039,-3.5685,-3.5578,-3.541,-3.5237,-3.5661,-3.5343,-3.4564,-3.3799,-3.3026,-3.2344,-3.246,-3.2294,-3.2182,-3.3109,-3.3039,-3.2535,-3.2245,-3.1776,-3.1287,-3.0995,-3.0897,-3.0974,-3.1268,-3.1055,-3.0759,-3.0751,-3.0708,-3.0655,-3.063,-3.0552,-3.0487,-3.0428,-3.0418,-3.0381,-3.0279,-3.0254,-3.0248,-3.0213,-3.0219,-3.0194,-3.0152,-3.0178,-3.0123,-2.9988,-2.9934,-2.9702,-2.9196,-2.8874,-2.8495,-2.7998,-2.8606,-2.8964,-2.8872,-2.8746,-2.8802,-2.9026,-2.855,-2.8323,-2.8381,-2.8406,-2.8419,-2.8362,-2.7838,-2.7921,-2.745,-2.7868,-2.8646,-3.1483,0.0,0.0,-3.4494,-3.4351,-3.4432,-3.7484,-3.6146,0.0,0.0,0.0,0.0,0.0,0.0,0.0,0.0,0.0,0.0,0.0,0.0,0.0,0.0,0.0,0.0,0.0,0.0,0.0,0.0,-3.7754,-3.7586,-3.6603,-3.6736,-3.6659,-3.6336,-3.5251,-3.5053,-3.579,-3.5608,-3.593,-3.6621,-3.6607,-3.6499,-3.6323,-3.5752,-3.5525,-3.5526,-3.5078,-3.4876,-3.4835,-3.4871,-3.4392,-3.3592,-3.2851,-3.2221,-3.1738,-3.1561,-3.1514,-3.1657,-3.2313,-3.2144,-3.1691,-3.1736,-3.1366,-3.0898,-3.0898,-3.0898,-3.0897,-3.0896,-3.0877,-3.084,-3.0801,-3.0769,-3.0735,-3.0726,-3.0661,-3.0583,-3.0564,-3.0539,-3.0495,-3.0386,-3.0365,-3.0248,-2.9896,-2.9883,-2.9877,-2.9777,-2.9588,-2.949,-2.9523,-2.9545,-2.9309,-2.8728,-2.8433,-2.8043,-2.7502,-2.7889,-2.8299,-2.8574,-2.871,-2.9053,-2.9653,-2.8623,-2.8277,-2.8658,-2.8129,-2.7936,-2.8039,-2.7169,-2.7379,-2.6543,-2.7489,-2.8835,-3.0256,0.0,0.0,-3.4698,-3.4018,-3.4163,-3.8572,0.0,-3.5998,-3.5323,0.0,0.0,0.0,0.0,0.0,0.0,0.0,0.0,0.0,0.0,0.0,0.0,0.0,0.0,0.0,0.0,0.0,0.0,-3.6275,-3.5745,-3.5197,-3.4987,-3.4604,-3.3993,-3.3851,-3.3775,-3.3788,-3.3241,-3.4271,-3.6668,-3.6602,-3.6149,-3.5371,-3.5442,-3.5055,-3.442,-3.4743,-3.4552,-3.3987,-3.3975,-3.3493,-3.2683,-3.1859,-3.1628,-3.1559,-3.0681,-3.0485,-3.0593,-3.0593,-3.0689,-3.081,-3.079,-3.0856,-3.0898,-3.0897,-3.0898,-3.0898,-3.0897,-3.0896,-3.0877,-3.082,-3.08,-3.08,-3.0793,-3.0796,-3.0771,-3.0716,-3.0652,-3.0571,-3.05,-3.0501,-3.0178,-2.922,-2.9096,-2.9074,-2.9015,-2.8256,-2.7966,-2.8624,-2.8768,-2.8761,-2.8596,-2.7848,-2.7392,-2.738,-2.7399,-2.7816,-2.8753,-2.9423,-2.9796,-2.9801,-2.868,-2.8099,-2.81,-2.6901,-2.672,-2.7472,-2.6453,-2.6851,-2.7728,-2.8207,0.0,-3.0938,0.0,0.0,0.0,-3.4512,0.0,0.0,0.0,-3.6319,0.0,0.0,0.0,0.0,0.0,0.0,0.0,0.0,0.0,0.0,0.0,0.0,0.0,0.0,0.0,0.0,0.0,0.0,0.0,-3.5202,-3.4907,-3.4233,-3.3838,-3.3615,-3.3582,-3.2648,-3.2274,-3.2448,-3.2056,-3.2896,-3.4801,-3.4789,-3.4281,-3.3403,-3.2859,-3.292,-3.3436,-3.3826,-3.392,-3.3684,-3.2657,-3.2072,-3.1642,-3.0286,-2.9818,-2.984,-2.9632,-2.9579,-2.9721,-3.0393,-3.0626,-3.0677,-3.078,-3.0813,-3.0836,-3.0898,-3.0898,-3.0898,-3.0898,-3.0897,-3.0897,-3.0878,-3.082,-3.08,-3.0798,-3.0808,-3.0789,-3.0771,-3.0756,-3.0514,-2.9837,-3.0207,-3.0044,-2.8483,-2.8825,-2.9226,-2.9149,-2.8785,-2.8609,-2.8824,-2.9277,-2.884,-2.7059,-2.7176,-2.6824,-2.5646,-2.6715,-2.7816,-2.8753,-2.8393,-2.8761,-2.9984,-2.8388,-2.7731,-2.81,-2.7036,-2.6483,-2.6429,-2.5548,-2.599,-2.8225,-2.8927,0.0,-3.2143,-3.2861,-3.3236,-3.4037,0.0,0.0,0.0,0.0,-3.6787,0.0,0.0,0.0,0.0,0.0,0.0,0.0,0.0,0.0,0.0,0.0,0.0,0.0,0.0,0.0,0.0,0.0,0.0,0.0,-3.3592,-3.3403,-3.3328,-3.2187,-3.1823,-3.2318,-3.1064,-3.0711,-3.1258,-3.0844,-3.1442,-3.2919,-3.3038,-3.2767,-3.2213,-3.1728,-3.1915,-3.2553,-3.2502,-3.2381,-3.2096,-3.0782,-3.0129,-2.9796,-2.8752,-2.8447,-2.8548,-2.8589,-2.8621,-2.8737,-2.9297,-2.9761,-3.0102,-3.0185,-3.0477,-3.0809,-3.0855,-3.0878,-3.0898,-3.0898,-3.0898,-3.0898,-3.0898,-3.0879,-3.0742,-3.039,-3.0563,-3.0592,-2.9943,-3.0052,-3.009,-2.9544,-2.9844,-2.9775,-2.8624,-2.8928,-2.9119,-2.8768,-2.9201,-2.9384,-2.8983,-2.9339,-2.8784,-2.6835,-2.7074,-2.6745,-2.5363,-2.6288,-2.7293,-2.8214,-2.807,-2.848,-2.9559,-2.7831,-2.7062,-2.7422,-2.6274,-2.5777,-2.5859,-2.486,-2.5218,-2.8404,-2.9645,-3.1088,-3.3446,-3.4369,0.0,-3.4307,-3.5769,-3.738,-3.798,0.0,0.0,0.0,0.0,0.0,0.0,0.0,0.0,0.0,0.0,0.0,0.0,0.0,0.0,0.0,0.0,0.0,0.0,0.0,0.0,0.0,-3.1614,-3.1419,-3.2247,-3.032,-2.9675,-3.054,-2.9338,-2.9189,-3.0097,-2.9569,-2.9894,-3.0936,-3.1439,-3.1557,-3.1365,-3.1513,-3.1559,-3.1509,-3.0934,-3.0405,-2.9845,-2.8657,-2.7975,-2.7637,-2.7312,-2.7404,-2.7682,-2.7606,-2.7726,-2.7904,-2.7909,-2.8599,-2.9392,-2.9403,-3.0041,-3.0771,-3.0798,-3.0774,-3.0781,-3.0878,-3.0838,-3.08,-3.0879,-3.0898,-3.0663,-2.9784,-3.0175,-3.0212,-2.8611,-2.8956,-2.9486,-2.9402,-2.9513,-2.9545,-2.9352,-2.9197,-2.8863,-2.8199,-2.9382,-2.9926,-2.9011,-2.8951,-2.8482,-2.7293,-2.7252,-2.6885,-2.5951,-2.6019,-2.6446,-2.7233,-2.7979,-2.8461,-2.8677,-2.7044,-2.6242,-2.6352,-2.5065,-2.481,-2.552,-2.436,-2.4574,-2.984,-3.0142,0.0,0.0,-3.3485,-3.3914,-3.4881,-3.5052,-3.4993,-3.5034,-3.5457,0.0,0.0,0.0,0.0,0.0,0.0,0.0,0.0,0.0,0.0,0.0,0.0,0.0,0.0,0.0,0.0,0.0,0.0,0.0,-3.0346,-3.0032,-2.9856,-2.9776,-2.9302,-2.9168,-2.9357,-2.8631,-2.8354,0.0,-2.8185,-2.8002,-2.809,-3.035,-3.0428,-2.8875,-3.0131,-3.0021,-2.8967,-2.9536,-2.9747,-2.9476,-2.7398,-2.6983,-2.7378,-2.6025,-2.6447,-2.7605,-2.6911,-2.758,-2.8759,-2.8789,-2.9385,-3.0106,-3.0214,-3.0358,-3.0524,-3.0685,-3.0237,-2.9896,-3.0702,-3.039,-3.0057,-3.0741,-3.0898,-3.0664,-2.9785,-2.9746,-2.955,-2.8493,-2.8999,-2.9366,-2.8689,-2.9652,-3.0275,-2.9566,-2.8812,-2.8509,-2.8966,-2.874,-2.8451,-2.8246,-2.809,-2.7376,-2.5801,-2.616,-2.6071,-2.5114,-2.5706,-2.6159,-2.6305,-2.5988,-2.6425,-2.7748,-2.6119,-2.5553,-2.6076,-2.5156,-2.4615,-2.4441,-2.417,-2.4363,-2.9061,0.0,0.0,-3.306,0.0,-3.4303,-3.4304,-3.3836,-3.3353,-3.3311,0.0,0.0,0.0,0.0,0.0,0.0,0.0,0.0,0.0,0.0,0.0,0.0,0.0,0.0,0.0,0.0,0.0,0.0,0.0,-2.9663,-2.8596,-2.8497,-2.8546,-2.8718,-2.8193,-2.8061,-2.8416,-2.7403,-2.713,-2.7571,-2.7039,-2.689,-2.7153,-2.8551,-2.8993,-2.869,-2.9124,-2.9071,-2.8724,-2.8812,-2.8659,-2.8222,-2.6501,-2.5968,-2.6107,-2.5182,-2.5518,-2.6409,-2.6396,-2.6988,-2.7829,-2.8287,-2.8989,-2.9613,-2.9305,-2.9492,-2.9758,-2.9447,-2.9377,-2.9418,-2.9523,-2.9883,-3.0231,-3.0269,-3.0602,-3.0662,-2.9783,-2.9921,-2.9843,-2.8554,-2.9003,-2.9451,-2.8953,-2.9946,-3.0659,-3.0193,-2.9349,-2.8929,-2.9331,-2.8631,-2.8083,-2.8043,-2.7945,-2.7335,-2.5934,-2.614,-2.592,-2.4903,-2.5263,-2.552,-2.5469,-2.5109,-2.5516,-2.6805,-2.5617,-2.5167,-2.552,-2.5035,-2.4662,-2.4422,-2.4301,-2.426,-2.7814,0.0,-3.1734,-3.3517,-3.4497,0.0,-3.3439,-3.2768,-3.2337,-3.2137,0.0,0.0,0.0,0.0,0.0,0.0,0.0,0.0,0.0,0.0,0.0,0.0,0.0,0.0,0.0,0.0,0.0,0.0,0.0,-2.857,-2.7309,-2.7104,-2.733,-2.8018,-2.7107,-2.6944,-2.7604,-2.6269,-2.5995,-2.6753,-2.5944,-2.5979,-2.6757,-2.6446,-2.7209,-2.8728,-2.8132,-2.828,-2.8895,-2.8046,-2.7446,-2.6952,-2.594,-2.522,-2.4798,-2.5028,-2.5245,-2.557,-2.6308,-2.6785,-2.7154,-2.772,-2.8505,-2.9053,-2.8242,-2.853,-2.8994,-2.83,-2.8489,-2.8852,-2.8603,-2.9489,-3.031,-2.9914,-3.0364,-3.0659,-2.9783,-3.0174,-3.0194,-2.8613,-2.9004,-2.959,-2.9525,-3.0104,-3.0518,-3.0375,-2.9747,-2.9283,-2.9279,-2.8503,-2.7948,-2.7901,-2.7756,-2.7286,-2.641,-2.6318,-2.5921,-2.5012,-2.4954,-2.4933,-2.4884,-2.4849,-2.5155,-2.5857,-2.5291,-2.4991,-2.4973,-2.4875,-2.4824,-2.4775,-2.4567,-2.4275,-2.8283,0.0,-3.2342,0.0,-3.3497,-3.3545,0.0,0.0,-3.2087,0.0,0.0,0.0,0.0,0.0,0.0,0.0,0.0,0.0,0.0,0.0,0.0,0.0,0.0,0.0,0.0,0.0,0.0,0.0,-2.7624,-2.7074,-2.6631,-2.5911,-2.5842,-2.6561,-2.643,-2.6503,-2.6843,-2.6031,-2.5659,-2.5776,-2.4692,-2.4624,-2.5413,-2.4349,-2.4723,-2.6219,-2.6754,-2.706,-2.7167,-2.6368,-2.6377,-2.6842,-2.5987,-2.5239,-2.4792,-2.6184,-2.6927,-2.7252,-2.7258,-2.8332,-2.9588,-2.8943,-2.9325,-2.9874,-2.9007,-2.8835,-2.8945,-2.8935,-2.7942,-2.7412,-2.9758,-2.9413,-2.8844,-3.0369,-3.0771,-3.0591,-2.978,-2.9685,-2.9472,-2.8495,-2.9002,-2.9608,-2.9589,-2.9637,-2.9424,-2.8655,-2.8459,-2.8374,-2.8368,-2.7609,-2.7067,-2.7058,-2.6326,-2.5786,-2.5648,-2.5584,-2.5446,-2.519,-2.5154,-2.5056,-2.4816,-2.4863,-2.4906,-2.4964,-2.4932,-2.4905,-2.4905,-2.4957,-2.4875,-2.4704,-2.4684,-2.4451,-2.793,-2.9131,-3.0193,0.0,-3.2118,-3.2262,-3.2732,0.0,-3.1116,0.0,0.0,0.0,0.0,0.0,0.0,0.0,0.0,0.0,0.0,0.0,0.0,0.0,0.0,0.0,0.0,0.0,0.0,0.0,-2.7214,-2.6588,-2.5608,-2.5384,-2.5438,-2.5684,-2.6083,-2.6165,-2.5866,-2.5291,-2.478,-2.4357,-2.3941,-2.3995,-2.4433,-2.3533,-2.4215,-2.6078,-2.5917,-2.6507,-2.7501,-2.6702,-2.6572,-2.6851,-2.6498,-2.5902,-2.5368,-2.6606,-2.715,-2.7347,-2.7938,-2.8647,-2.9341,-2.9565,-2.9587,-2.9352,-2.8485,-2.7912,-2.7478,-2.7042,-2.6737,-2.673,-2.7475,-2.8258,-2.8917,-2.9256,-3.0115,-3.0632,-2.9777,-2.9977,-3.0078,-2.9197,-2.9332,-2.9431,-2.8965,-2.8846,-2.8703,-2.8311,-2.7819,-2.7463,-2.7466,-2.6719,-2.6172,-2.616,-2.58,-2.5549,-2.5492,-2.547,-2.5418,-2.5311,-2.5244,-2.5143,-2.5031,-2.4907,-2.4834,-2.4791,-2.4827,-2.4863,-2.4891,-2.4931,-2.491,-2.4861,-2.4791,-2.4851,0.0,0.0,-2.8399,-3.0219,-3.0941,-3.1313,0.0,0.0,0.0,0.0,0.0,0.0,0.0,0.0,0.0,0.0,0.0,0.0,0.0,0.0,0.0,0.0,0.0,0.0,0.0,0.0,0.0,0.0,-2.7209,-2.6519,-2.5172,-2.5238,-2.5282,-2.525,-2.5688,-2.5694,-2.5196,-2.4553,-2.3864,-2.3122,-2.3221,-2.3343,-2.3467,-2.298,-2.3744,-2.5464,-2.5187,-2.596,-2.7377,-2.6813,-2.6581,-2.6553,-2.6581,-2.6089,-2.5549,-2.6851,-2.7186,-2.7185,-2.8424,-2.8882,-2.906,-2.9855,-2.9751,-2.9091,-2.8033,-2.7281,-2.6636,-2.5776,-2.5887,-2.6192,-2.6002,-2.7493,-2.888,-2.8264,-2.9355,-3.0422,-3.0012,-3.0095,-3.0117,-2.9684,-2.9428,-2.8998,-2.8123,-2.7968,-2.789,-2.7666,-2.7047,-2.6598,-2.6591,-2.6009,-2.5608,-2.5608,-2.56,-2.5571,-2.5529,-2.5538,-2.5517,-2.5429,-2.5333,-2.5255,-2.5234,-2.4993,-2.4879,-2.4858,-2.4794,-2.4813,-2.4863,-2.4884,-2.4924,-2.4971,-2.4896,-2.5197,0.0,-2.7034,0.0,-2.9019,-3.0211,0.0,0.0,0.0,0.0,0.0,0.0,0.0,0.0,0.0,0.0,0.0,0.0,0.0,0.0,0.0,0.0,0.0,0.0,0.0,0.0,0.0,0.0,0.0,-2.7462,-2.6767,-2.5972,-2.5349,-2.5143,-2.5378,-2.5054,-2.4992,-2.5196,-2.4033,-2.3088,-2.2347,-2.2361,-2.2361,-2.2389,-2.2355,-2.2565,-2.305,-2.4428,-2.5218,-2.5543,-2.5699,-2.5699,-2.5596,-2.5718,-2.528,-2.4835,-2.7113,-2.7546,-2.7214,-2.8732,-2.9514,-2.984,-2.9905,-3.0023,-2.9829,-2.8198,-2.7663,-2.7471,-2.6655,-2.586,-2.5667,-2.7327,-2.7921,-2.8084,-2.8184,-2.8902,-2.9803,-3.0643,-2.957,-2.867,-2.9449,-2.8935,-2.809,-2.7217,-2.7067,-2.6796,-2.5956,-2.5787,-2.5764,-2.5751,-2.5667,-2.5608,-2.5608,-2.56,-2.5604,-2.5602,-2.565,-2.5637,-2.5501,-2.5492,-2.5427,-2.5309,-2.5154,-2.5043,-2.4994,-2.4808,-2.4749,-2.4806,-2.4875,-2.4898,-2.4917,-2.4964,-2.539,0.0,0.0,0.0,-2.7298,-2.7547,-2.7595,-2.8697,-2.8893,0.0,0.0,0.0,0.0,0.0,0.0,0.0,0.0,0.0,0.0,0.0,0.0,0.0,0.0,0.0,0.0,0.0,0.0,0.0,0.0,0.0,-2.6062,-2.5461,-2.4662,-2.4507,-2.5127,-2.4745,-2.4307,-2.3781,-2.3102,-2.2606,-2.2296,-2.2296,-2.2296,-2.2296,-2.2296,-2.2457,-2.2803,-2.3897,-2.4557,-2.4874,-2.4598,-2.4771,-2.5267,-2.5484,-2.5708,-2.6078,-2.7483,-2.8159,-2.845,-2.9118,-2.9089,-2.8764,-2.8899,-2.837,-2.7585,-2.6923,-2.6473,-2.6094,-2.5757,-2.5431,-2.5343,-2.6005,-2.6663,-2.7336,-2.8035,-2.8036,-2.8144,-2.9042,-2.873,-2.8223,-2.7986,-2.7689,-2.7197,-2.6322,-2.6165,-2.6069,-2.5742,-2.5701,-2.5694,-2.5708,-2.5689,-2.5652,-2.5591,-2.5593,-2.5598,-2.5604,-2.5628,-2.5626,-2.5637,-2.5543,-2.5486,-2.5431,-2.529,-2.5225,-2.5182,-2.5041,-2.491,-2.4798,-2.482,-2.4863,-2.491,-2.5501,-2.6479,-2.4654,0.0,0.0,0.0,0.0,-2.6078,-2.7193,0.0,0.0,0.0,0.0,0.0,0.0,0.0,0.0,0.0,0.0,0.0,0.0,0.0,0.0,0.0,0.0,0.0,0.0,0.0,0.0,0.0,0.0,0.0,-2.5445,-2.4851,-2.4523,-2.4461,-2.4182,-2.36,-2.2707,-2.2399,-2.2279,-2.2366,-2.2352,-2.2352,-2.2366,-2.2352,-2.2432,-2.264,-2.3191,-2.368,-2.41,-2.408,-2.4256,-2.4596,-2.4805,-2.5294,-2.5954,-2.6794,-2.7419,-2.7954,-2.8349,-2.8132,-2.7726,-2.7875,-2.7331,-2.6553,-2.6282,-2.5946,-2.5568,-2.5283,-2.5222,-2.5238,-2.5238,-2.5749,-2.6507,-2.7498,-2.711,-2.666,-2.7255,-2.74,-2.7344,-2.707,-2.6755,-2.638,-2.5796,-2.5694,-2.5694,-2.5702,-2.5703,-2.5702,-2.5706,-2.5707,-2.5685,-2.5648,-2.5615,-2.5593,-2.5604,-2.5607,-2.563,-2.5699,-2.561,-2.5571,-2.5571,-2.542,-2.532,-2.5329,-2.5187,-2.518,-2.5344,-2.5012,-2.5029,-2.5324,-2.5889,-2.7218,0.0,0.0,0.0,0.0,0.0,0.0,-2.6135,0.0,-2.7392,0.0,0.0,0.0,0.0,0.0,0.0,0.0,0.0,0.0,0.0,0.0,0.0,0.0,0.0,0.0,0.0,0.0,0.0,0.0,-2.7793,-2.7462,-2.6088,-2.5977,-2.5187,-2.3424,-2.3323,-2.2899,-2.2099,-2.1969,-2.2118,-2.2501,-2.2432,-2.2432,-2.2501,-2.2432,-2.2391,-2.2408,-2.2338,-2.2605,-2.3161,-2.4141,-2.4128,-2.3511,-2.3649,-2.3909,-2.4311,-2.5041,-2.5413,-2.5659,-2.6438,-2.6789,-2.6898,-2.6944,-2.7033,-2.6997,-2.6355,-2.6215,-2.6117,-2.5409,-2.5248,-2.5308,-2.5308,-2.5345,-2.5627,-2.6539,-2.6107,-2.5522,-2.558,-2.5649,-2.5954,-2.6797,-2.6288,-2.5699,-2.5695,-2.5694,-2.5696,-2.57,-2.5703,-2.5703,-2.57,-2.5699,-2.5694,-2.5692,-2.5648,-2.5595,-2.5604,-2.5607,-2.563,-2.5699,-2.5699,-2.5699,-2.5699,-2.551,-2.5421,-2.5441,-2.5254,-2.5587,-2.6431,-2.5501,-2.5413,-2.6155,-2.6223,-2.7604,-2.522,0.0,0.0,0.0,0.0,0.0,-2.5207,-2.5607,-2.5847,0.0,0.0,0.0,0.0,0.0,0.0,0.0,0.0,0.0,0.0,0.0,0.0,0.0,0.0,0.0,0.0,0.0,0.0,0.0,-2.7362,-2.6919,-2.6175,-2.5595,-2.4581,-2.3106,-2.3271,-2.2883,-2.1812,-2.1969,-2.22,-2.2501,-2.2487,-2.2487,-2.2501,-2.2487,-2.2446,-2.2391,-2.2394,-2.246,-2.2636,-2.3046,-2.3223,-2.323,-2.3466,-2.4064,-2.4829,-2.523,-2.6015,-2.6859,-2.669,-2.6615,-2.6534,-2.6008,-2.5615,-2.5284,-2.5098,-2.521,-2.5397,-2.5184,-2.5203,-2.5308,-2.5308,-2.5345,-2.5464,-2.5724,-2.5633,-2.5508,-2.5512,-2.5587,-2.5702,-2.5992,-2.5852,-2.5691,-2.57,-2.57,-2.5699,-2.57,-2.5703,-2.5703,-2.57,-2.5693,-2.5698,-2.5696,-2.5685,-2.566,-2.5675,-2.563,-2.563,-2.5699,-2.5699,-2.5699,-2.5699,-2.5643,-2.5897,-2.6462,-2.643,-2.6761,-2.7479,-2.6403,-2.6315,-2.7222,-2.8984,-3.0817,0.0,0.0,0.0,0.0,0.0,0.0,-2.4469,-2.5076,-2.5461,0.0,0.0,0.0,0.0,0.0,0.0,0.0,0.0,0.0,0.0,0.0,0.0,0.0,0.0,0.0,0.0,-2.7908,-2.8189,-2.7984,-2.7879,-2.7456,-2.6614,-2.5844,-2.478,-2.3354,-2.3524,-2.3067,-2.1952,-2.2228,-2.236,-2.2368,-2.2497,-2.2569,-2.2565,-2.2538,-2.2528,-2.2487,-2.2446,-2.2432,-2.2446,-2.2582,-2.2734,-2.2947,-2.3176,-2.3713,-2.4407,-2.4637,-2.5269,-2.5976,-2.5667,-2.5513,-2.5398,-2.5016,-2.47,-2.4452,-2.4569,-2.4746,-2.4923,-2.5056,-2.5195,-2.5308,-2.5308,-2.5322,-2.5354,-2.536,-2.54,-2.543,-2.5452,-2.5492,-2.5532,-2.5637,-2.5681,-2.5703,-2.5698,-2.5698,-2.5698,-2.5702,-2.5703,-2.5703,-2.5702,-2.5698,-2.5709,-2.5696,-2.5701,-2.5691,-2.5705,-2.5634,-2.5628,-2.5654,-2.5677,-2.5699,-2.5699,-2.603,-2.6414,-2.6889,-2.7269,-2.7938,-2.8946,-2.752,-2.7412,-2.8613,-3.0717,-3.2425,0.0,0.0,0.0,0.0,-2.5417,0.0,-2.3966,-2.4863,-2.5489,-2.4271,0.0,0.0,0.0,0.0,0.0,0.0,0.0,0.0,0.0,0.0,0.0,0.0,0.0,0.0,-2.7869,-2.8761,-2.9123,-2.8438,-2.8771,-2.8435,-2.7178,-2.6404,-2.5341,-2.3935,-2.3904,-2.3374,-2.2312,-2.2541,-2.2508,-2.2206,-2.2436,-2.2605,-2.2699,-2.2632,-2.2623,-2.2609,-2.2542,-2.2515,-2.2515,-2.2501,-2.2565,-2.2712,-2.2829,-2.3103,-2.3455,-2.3642,-2.3904,-2.4124,-2.4062,-2.4089,-2.4125,-2.4181,-2.4209,-2.4266,-2.4515,-2.4604,-2.4678,-2.5019,-2.5193,-2.5274,-2.5303,-2.5308,-2.5313,-2.5313,-2.5313,-2.5327,-2.5397,-2.5397,-2.5433,-2.5552,-2.563,-2.5689,-2.5687,-2.5707,-2.5692,-2.5702,-2.5703,-2.5703,-2.5702,-2.5699,-2.5694,-2.5693,-2.5696,-2.5699,-2.5694,-2.566,-2.5609,-2.5607,-2.5654,-2.5736,-2.5835,-2.6517,-2.6983,-2.7178,-2.8133,-2.9262,-3.0553,-2.8915,-2.888,-3.0364,-3.1839,-3.3004,0.0,0.0,0.0,0.0,0.0,0.0,-2.3897,-2.3702,-2.365,0.0,0.0,0.0,0.0,0.0,0.0,0.0,0.0,0.0,0.0,0.0,0.0,0.0,0.0,0.0,-2.9022,-2.925,-2.9286,-2.8983,-2.8532,-2.7952,-2.7146,-2.6404,-2.5341,-2.3935,-2.3904,-2.3374,-2.2312,-2.2345,-2.2321,-2.2206,-2.2248,-2.2419,-2.2699,-2.2685,-2.2646,-2.2592,-2.2596,-2.2565,-2.2582,-2.2528,-2.2565,-2.2699,-2.2725,-2.285,-2.3035,-2.3177,-2.3732,-2.4349,-2.3862,-2.4212,-2.4811,-2.4353,-2.4228,-2.4312,-2.4464,-2.4588,-2.4742,-2.5025,-2.5121,-2.5165,-2.5269,-2.5346,-2.5389,-2.5389,-2.5384,-2.5373,-2.5403,-2.5406,-2.5412,-2.5433,-2.5486,-2.5566,-2.5609,-2.5666,-2.5698,-2.5691,-2.57,-2.5703,-2.5701,-2.57,-2.5697,-2.5709,-2.5693,-2.5709,-2.5708,-2.5696,-2.5685,-2.5677,-2.5632,-2.5925,-2.6632,-2.6827,-2.7567,-2.897,-3.0477,-3.1352,-3.1521,-3.1012,-3.1551,-3.3058,-3.3314,-3.3885,0.0,0.0,0.0,-2.5083,0.0,0.0,0.0,-2.338,-2.3401,-2.3452,0.0,0.0,0.0,0.0,0.0,0.0,0.0,0.0,0.0,0.0,0.0,0.0,0.0,0.0,-2.9325,-2.9614,-2.9694,-2.9485,-2.8926,-2.809,-2.6951,-2.6687,-2.5898,-2.4476,-2.4444,-2.3998,-2.3115,-2.2921,-2.2639,-2.2246,-2.2219,-2.2292,-2.2463,-2.2615,-2.2672,-2.2646,-2.2646,-2.2646,-2.2646,-2.2605,-2.2619,-2.2646,-2.2685,-2.2738,-2.2829,-2.2993,-2.3447,-2.3958,-2.3656,-2.3948,-2.4402,-2.4182,-2.4162,-2.4266,-2.4367,-2.4539,-2.4738,-2.4861,-2.5,-2.5118,-2.5182,-2.5298,-2.5398,-2.5398,-2.5407,-2.5393,-2.5393,-2.5402,-2.5406,-2.5397,-2.5429,-2.5466,-2.5542,-2.5611,-2.5653,-2.5657,-2.565,-2.5659,-2.5703,-2.5703,-2.5702,-2.5692,-2.5694,-2.571,-2.5692,-2.5696,-2.5679,-2.5645,-2.6035,-2.6446,-2.6879,-2.7721,-2.9013,-3.0754,-3.1581,-3.2382,-3.3204,-3.2995,-3.3256,-3.3956,-3.3843,-3.423,0.0,0.0,0.0,0.0,0.0,-2.4762,0.0,0.0,0.0,0.0,0.0,0.0,0.0,0.0,0.0,0.0,0.0,0.0,0.0,0.0,0.0,0.0,0.0,0.0,0.0,-2.9546,-2.969,-2.9484,-2.9061,-2.8151,-2.6589,-2.6706,-2.623,-2.4973,-2.4946,-2.4614,-2.3885,-2.3465,-2.2937,-2.228,-2.2169,-2.215,-2.2206,-2.2544,-2.2699,-2.2699,-2.2699,-2.2699,-2.2699,-2.2699,-2.2659,-2.2592,-2.2646,-2.2646,-2.2659,-2.2816,-2.3114,-2.3417,-2.3417,-2.3598,-2.3816,-2.3966,-2.4094,-2.4209,-2.4284,-2.4454,-2.4637,-2.465,-2.4842,-2.5036,-2.509,-2.5233,-2.538,-2.5398,-2.5407,-2.5393,-2.5406,-2.5397,-2.5407,-2.5402,-2.5393,-2.5412,-2.5483,-2.5538,-2.5588,-2.5597,-2.5609,-2.5622,-2.5677,-2.5681,-2.5703,-2.5699,-2.5694,-2.5706,-2.5694,-2.5697,-2.5755,-2.5853,-2.6519,-2.7048,-2.7381,-2.8907,-3.0496,-3.2073,-3.2201,-3.2961,-3.4348,-3.452,-3.4533,-3.4395,-3.4259,-3.4541,0.0,0.0,0.0,0.0,-2.4275,0.0,0.0,0.0,-2.3264,-2.2005,0.0,0.0,0.0,0.0,0.0,0.0,0.0,0.0,0.0,0.0,0.0,0.0,0.0,0.0,0.0,-2.8535,-2.8196,-2.8286,-2.7974,-2.7205,-2.5883,-2.5826,-2.5483,-2.4681,-2.4746,-2.4492,-2.3821,-2.3119,-2.259,-2.2213,-2.1961,-2.1969,-2.2206,-2.2544,-2.2699,-2.2699,-2.2699,-2.2699,-2.2699,-2.2699,-2.2659,-2.2592,-2.2538,-2.2487,-2.2432,-2.2391,-2.2708,-2.3157,-2.3157,-2.3434,-2.3816,-2.3966,-2.4094,-2.4209,-2.4284,-2.4312,-2.4375,-2.4491,-2.462,-2.4797,-2.5041,-2.5157,-2.5253,-2.5364,-2.54,-2.5408,-2.5395,-2.5406,-2.5402,-2.5403,-2.5397,-2.5423,-2.5499,-2.5503,-2.5528,-2.5588,-2.5595,-2.5598,-2.5602,-2.5658,-2.5703,-2.5703,-2.5702,-2.5696,-2.5706,-2.5694,-2.6032,-2.68,-2.6881,-2.7595,-2.9143,-3.0139,-3.1101,-3.2073,-3.2842,-3.3317,-3.3451,-3.498,-3.5616,-3.5423,-3.5284,-3.5254,0.0,0.0,0.0,0.0,0.0,0.0,-2.3174,0.0,-2.2334,0.0,0.0,0.0,0.0,0.0,0.0,0.0,-2.2784,0.0,0.0,0.0,0.0,0.0,0.0,0.0,0.0,0.0,0.0,0.0,-2.7223,-2.6377,-2.4482,-2.5217,-2.5513,-2.5129,-2.4725,-2.4549,-2.4673,-2.3316,-2.2556,-2.242,-2.1986,-2.1855,-2.1984,-2.248,-2.2699,-2.2699,-2.2699,-2.2699,-2.2699,-2.2699,-2.2685,-2.2646,-2.2579,-2.2501,-2.2391,-2.2405,-2.2632,-2.2947,-2.3145,-2.3429,-2.3718,-2.3935,-2.4044,-2.4103,-2.42,-2.4266,-2.4312,-2.4374,-2.4534,-2.4731,-2.4835,-2.5031,-2.5203,-2.5274,-2.5345,-2.5401,-2.5444,-2.5436,-2.5404,-2.5395,-2.5402,-2.5406,-2.5444,-2.5476,-2.552,-2.5582,-2.5607,-2.5593,-2.5609,-2.5629,-2.5644,-2.5636,-2.5683,-2.5702,-2.5699,-2.5657,-2.6002,-2.6893,-2.7853,-2.9199,-3.0932,-3.0871,-3.1443,-3.2822,-3.2728,-3.2875,-3.3358,-3.4567,-3.51,-3.5037,-3.5364,-3.5496,-2.892,0.0,0.0,0.0,0.0,0.0,0.0,0.0,0.0,0.0,0.0,0.0,0.0,0.0,0.0,0.0,0.0,-2.3412,0.0,0.0,0.0,0.0,0.0,0.0,0.0,0.0,0.0,0.0,0.0,-2.5471,-2.3285,-2.4503,-2.5247,-2.5242,-2.4585,-2.4512,-2.5089,-2.3402,-2.2562,-2.2605,-2.2069,-2.1796,-2.184,-2.244,-2.2712,-2.2725,-2.2712,-2.2699,-2.2699,-2.2699,-2.2699,-2.2699,-2.2646,-2.2569,-2.246,-2.2487,-2.2632,-2.285,-2.3114,-2.3377,-2.3649,-2.3935,-2.3996,-2.3976,-2.4103,-2.4181,-2.4219,-2.4266,-2.4426,-2.4615,-2.4689,-2.4869,-2.5097,-2.5176,-2.5269,-2.5367,-2.5452,-2.5429,-2.5401,-2.5429,-2.54,-2.5406,-2.5421,-2.5453,-2.5506,-2.5567,-2.5589,-2.5593,-2.5605,-2.5609,-2.5593,-2.5597,-2.5637,-2.5761,-2.6015,-2.5985,-2.6421,-2.7535,-2.9024,-3.0528,-3.2032,-3.1268,-3.1504,-3.3019,-3.2413,-3.2409,-3.3041,-3.3862,-3.4265,-3.4289,-3.5245,-3.5688,0.0,0.0,0.0,-2.4774,0.0,0.0,0.0,0.0,-2.1884,0.0,0.0,0.0,0.0,0.0,0.0,0.0,0.0,0.0,0.0,0.0,0.0,0.0,0.0,0.0,0.0,0.0,0.0,0.0,0.0,0.0,-2.2717,-2.3609,-2.4271,-2.4529,-2.4276,-2.4266,-2.462,-2.3154,-2.2493,-2.2687,-2.2101,-2.1825,-2.1928,-2.2453,-2.2738,-2.2803,-2.2725,-2.2699,-2.2699,-2.2699,-2.2699,-2.2699,-2.2699,-2.2646,-2.2596,-2.2511,-2.2672,-2.2906,-2.2919,-2.3211,-2.3649,-2.3994,-2.3976,-2.3827,-2.3976,-2.4006,-2.4036,-2.417,-2.4247,-2.4365,-2.4628,-2.4704,-2.4806,-2.5132,-2.5198,-2.5234,-2.5376,-2.5401,-2.5425,-2.5484,-2.5433,-2.5425,-2.5484,-2.543,-2.5426,-2.5489,-2.5564,-2.5601,-2.5601,-2.5593,-2.5601,-2.5603,-2.5595,-2.5939,-2.6788,-2.6854,-2.7587,-2.9304,-3.0263,-3.1159,-3.2054,-3.1259,-3.122,-3.2112,-3.2112,-3.2112,-3.2132,-3.3005,-3.3448,-3.3487,-3.512,-3.5895,0.0,0.0,-2.7143,-2.7079,0.0,0.0,0.0,0.0,0.0,0.0,0.0,0.0,0.0,0.0,0.0,0.0,0.0,0.0,0.0,0.0,0.0,0.0,0.0,0.0,0.0,0.0,0.0,0.0,0.0,0.0,0.0,-2.1732,-2.3099,-2.3499,-2.3891,-2.4334,-2.4872,-2.362,-2.2771,-2.2296,-2.2327,-2.1997,-2.1399,-2.22,-2.2569,-2.2511,-2.2287,-2.2368,-2.2685,-2.2463,-2.2504,-2.2699,-2.2699,-2.2685,-2.2659,-2.2632,-2.2659,-2.2725,-2.2889,-2.3236,-2.3624,-2.3736,-2.3782,-2.3806,-2.3847,-2.3927,-2.4026,-2.4163,-2.4247,-2.4348,-2.4588,-2.4662,-2.4749,-2.4897,-2.5065,-2.5215,-2.5313,-2.54,-2.546,-2.5507,-2.5484,-2.5456,-2.5433,-2.5453,-2.5479,-2.5492,-2.6006,-2.6194,-2.5676,-2.6104,-2.6443,-2.639,-2.6429,-2.68,-2.7615,-2.8254,-2.9097,-3.0215,-3.0611,-3.1451,-3.2909,-3.1571,-3.1217,-3.2073,-3.1536,-3.1246,-3.1242,-3.2686,-3.3101,-3.2584,-3.4298,-3.4773,-2.7295,-2.7138,0.0,-2.6996,-2.5856,0.0,-2.4636,0.0,0.0,0.0,0.0,0.0,0.0,0.0,0.0,0.0,0.0,0.0,0.0,-2.2347,0.0,0.0,0.0,0.0,0.0,0.0,0.0,0.0,0.0,0.0,0.0,0.0,-2.2631,-2.281,-2.362,-2.4307,-2.4814,-2.3754,-2.2924,-2.2274,-2.2331,-2.1908,-2.1118,-2.1838,-2.2175,-2.2206,-2.1928,-2.2056,-2.2463,-2.2289,-2.2405,-2.2672,-2.2712,-2.2738,-2.2738,-2.2712,-2.2672,-2.2672,-2.2927,-2.3194,-2.3393,-2.3497,-2.362,-2.3739,-2.3739,-2.3824,-2.3958,-2.4124,-2.4219,-2.4303,-2.449,-2.4578,-2.4651,-2.4766,-2.4936,-2.5096,-2.5198,-2.5572,-2.5794,-2.5481,-2.5955,-2.6276,-2.5927,-2.6156,-2.6273,-2.5964,-2.6149,-2.6364,-2.6489,-2.6705,-2.6977,-2.723,-2.7296,-2.767,-2.8485,-2.94,-3.0153,-3.0702,-3.0757,-3.1281,-3.2434,-3.1395,-3.1059,-3.1623,-3.1081,-3.0791,-3.0792,-3.1929,-3.2345,-3.2121,-3.3241,-3.3448]},{"header":{"parameterUnit":"m.s-1","parameterCategory":1,"la1":30.6,"la2":29.2853,"lo1":-89.7004,"lo2":-87.6739,"dy":0.0162,"dx":0.0183,"nx":112,"ny":82,"refTime":"2024-04-18T12:00:00:Z","depth":0,"parameterNumber":3,"parameterNumberName":"V-component_of_WINDS"},"data":[0.0,0.0,0.0,0.0,0.0,0.0,0.0,0.0,0.0,0.0,0.0,0.0,0.0,0.0,0.0,0.0,0.0,0.0,0.0,0.0,0.0,0.0,0.0,0.0,0.0,0.0,0.0,0.0,0.0,0.0,0.0,0.0,0.0,0.0,0.0,0.0,0.0,0.0,0.0,0.0,0.0,0.0,0.0,0.0,0.0,0.0,0.0,0.0,0.0,0.0,0.0,0.0,0.0,0.0,0.0,0.0,0.0,0.0,0.0,0.0,0.0,0.0,0.0,0.0,0.0,0.0,0.0,0.0,0.0,0.0,0.0,0.0,0.0,0.0,0.0,0.0,0.0,0.0,0.0,0.0,0.0,0.0,0.0,0.0,0.0,0.0,0.0,0.0,0.0,0.0,-1.1641,-1.4251,-1.7615,-1.9614,-1.9614,-1.9317,-1.7953,-1.517,0.0,0.0,0.0,0.0,0.0,0.0,0.0,0.0,0.0,0.0,0.0,0.0,0.0,0.0,0.0,0.0,0.0,0.0,0.0,0.0,0.0,0.0,0.0,0.0,0.0,0.0,0.0,0.0,0.0,0.0,0.0,0.0,0.0,0.0,0.0,0.0,0.0,0.0,0.0,0.0,0.0,0.0,0.0,0.0,0.0,0.0,0.0,0.0,0.0,0.0,0.0,0.0,0.0,0.0,0.0,0.0,0.0,0.0,0.0,0.0,0.0,0.0,0.0,0.0,0.0,0.0,0.0,0.0,0.0,0.0,0.0,0.0,0.0,0.0,0.0,0.0,0.0,0.0,0.0,0.0,0.0,0.0,0.0,0.0,0.0,0.0,0.0,0.0,0.0,0.0,0.0,0.0,0.0,0.0,0.0,0.0,0.0,0.0,0.0,0.0,0.0,0.0,0.0,0.0,-1.2825,-1.6914,-1.8359,-1.8919,-1.8705,-1.8171,-1.7032,-1.5106,0.0,0.0,0.0,0.0,0.0,0.0,0.0,0.0,0.0,0.0,0.0,0.0,0.0,0.0,0.0,0.0,0.0,0.0,0.0,0.0,0.0,0.0,0.0,0.0,0.0,0.0,0.0,0.0,0.0,0.0,0.0,0.0,0.0,0.0,0.0,0.0,0.0,0.0,0.0,0.0,0.0,0.0,0.0,0.0,0.0,0.0,0.0,0.0,0.0,0.0,0.0,0.0,0.0,0.0,0.0,0.0,0.0,0.0,0.0,0.0,0.0,0.0,0.0,0.0,0.0,0.0,0.0,0.0,0.0,0.0,0.0,0.0,0.0,0.0,0.0,0.0,0.0,0.0,0.0,0.0,0.0,0.0,0.0,0.0,0.0,0.0,0.0,0.0,0.0,0.0,0.0,0.0,0.0,0.0,0.0,0.0,0.0,0.0,0.0,0.0,0.0,0.0,0.0,-1.1848,-1.4301,-1.783,-1.8326,-1.8373,-1.8225,-1.7707,-1.6621,-1.4883,-1.4608,0.0,0.0,0.0,0.0,0.0,0.0,0.0,0.0,0.0,0.0,0.0,0.0,0.0,0.0,0.0,0.0,0.0,0.0,0.0,0.0,0.0,0.0,0.0,0.0,0.0,0.0,0.0,0.0,0.0,0.0,0.0,0.0,0.0,0.0,0.0,0.0,0.0,0.0,0.0,0.0,0.0,0.0,0.0,0.0,0.0,0.0,0.0,0.0,0.0,0.0,0.0,0.0,0.0,0.0,0.0,0.0,0.0,0.0,0.0,0.0,0.0,0.0,0.0,0.0,0.0,0.0,0.0,0.0,0.0,0.0,0.0,0.0,0.0,0.0,0.0,0.0,0.0,0.0,0.0,0.0,0.0,0.0,0.0,0.0,0.0,0.0,0.0,0.0,0.0,0.0,0.0,0.0,0.0,0.0,0.0,0.0,0.0,0.0,0.0,0.0,0.0,0.0,-1.386,-1.5678,-1.8044,-1.8047,-1.7911,-1.7964,-1.7468,-1.6393,-1.4718,-1.3881,0.0,0.0,0.0,0.0,0.0,0.0,0.0,0.0,0.0,0.0,0.0,0.0,0.0,0.0,0.0,0.0,0.0,0.0,0.0,0.0,0.0,0.0,0.0,0.0,0.0,0.0,0.0,0.0,0.0,0.0,0.0,0.0,0.0,0.0,0.0,0.0,0.0,0.0,0.0,0.0,0.0,0.0,0.0,0.0,0.0,0.0,0.0,0.0,0.0,0.0,0.0,0.0,0.0,0.0,0.0,0.0,0.0,0.0,0.0,0.0,0.0,0.0,0.0,0.0,0.0,0.0,0.0,0.0,0.0,0.0,0.0,0.0,0.0,0.0,0.0,0.0,0.0,0.0,0.0,0.0,0.0,0.0,0.0,0.0,0.0,0.0,0.0,0.0,0.0,0.0,0.0,0.0,0.0,0.0,0.0,0.0,0.0,0.0,0.0,0.0,0.0,0.0,-1.4421,-1.6931,-1.7897,-1.7773,-1.7747,-1.7964,-1.7221,-1.6122,-1.4704,-1.3441,0.0,0.0,0.0,0.0,0.0,0.0,0.0,0.0,0.0,0.0,0.0,0.0,0.0,0.0,0.0,0.0,0.0,0.0,0.0,0.0,0.0,0.0,0.0,0.0,0.0,0.0,0.0,0.0,0.0,0.0,0.0,0.0,0.0,0.0,0.0,0.0,0.0,0.0,0.0,0.0,0.0,0.0,0.0,0.0,0.0,0.0,0.0,0.0,0.0,0.0,0.0,0.0,0.0,0.0,0.0,0.0,0.0,0.0,0.0,0.0,0.0,0.0,0.0,0.0,0.0,0.0,0.0,0.0,0.0,0.0,0.0,0.0,0.0,0.0,0.0,0.0,0.0,0.0,0.0,0.0,0.0,0.0,0.0,0.0,0.0,0.0,0.0,0.0,0.0,0.0,0.0,0.0,0.0,0.0,0.0,0.0,0.0,0.0,0.0,0.0,0.0,0.0,-1.4672,-1.6746,0.0,-1.7995,-1.783,-1.7757,-1.71,-1.6021,-1.4386,0.0,0.0,0.0,0.0,0.0,0.0,0.0,0.0,0.0,0.0,0.0,0.0,0.0,0.0,0.0,0.0,0.0,0.0,0.0,0.0,0.0,0.0,0.0,0.0,0.0,0.0,0.0,0.0,0.0,0.0,0.0,0.0,0.0,0.0,0.0,0.0,0.0,0.0,0.0,0.0,0.0,0.0,0.0,0.0,0.0,0.0,0.0,0.0,0.0,0.0,0.0,0.0,0.0,0.0,0.0,0.0,0.0,0.0,0.0,0.0,0.0,0.0,0.0,0.0,0.0,0.0,0.0,0.0,0.0,0.0,0.0,0.0,0.0,0.0,0.0,0.0,0.0,0.0,0.0,0.0,0.0,0.0,0.0,0.0,0.0,0.0,0.0,0.0,0.0,0.0,0.0,0.0,0.0,0.0,0.0,0.0,0.0,0.0,0.0,0.0,0.0,0.0,-1.2668,-1.486,-1.6732,0.0,-1.7865,-1.7654,-1.7449,-1.6722,-1.563,-1.4069,0.0,0.0,0.0,0.0,0.0,0.0,0.0,0.0,0.0,0.0,0.0,0.0,0.0,0.0,0.0,0.0,0.0,0.0,0.0,0.0,0.0,0.0,0.0,0.0,0.0,0.0,0.0,0.0,0.0,0.0,0.0,0.0,0.0,0.0,0.0,0.0,0.0,0.0,0.0,0.0,0.0,0.0,0.0,0.0,0.0,0.0,0.0,0.0,0.0,0.0,0.0,0.0,0.0,0.0,0.0,0.0,0.0,0.0,0.0,0.0,0.0,0.0,0.0,0.0,0.0,0.0,0.0,0.0,0.0,0.0,0.0,0.0,0.0,0.0,0.0,0.0,0.0,0.0,0.0,0.0,0.0,0.0,0.0,0.0,0.0,0.0,0.0,0.0,0.0,0.0,0.0,0.0,0.0,0.0,0.0,0.0,0.0,0.0,0.0,0.0,0.0,0.0,-1.2351,-1.5042,-1.7032,-1.7361,-1.7232,-1.712,-1.712,-1.6048,-1.4902,0.0,0.0,0.0,0.0,0.0,0.0,0.0,0.0,0.0,0.0,0.0,0.0,0.0,0.0,0.0,0.0,0.0,0.0,0.0,0.0,0.0,0.0,0.0,0.0,0.0,0.0,0.0,0.0,0.0,0.0,0.0,0.0,0.0,0.0,0.0,0.0,0.0,0.0,0.0,0.0,0.0,0.0,0.0,0.0,0.0,0.0,0.0,0.0,0.0,0.0,0.0,0.0,0.0,0.0,0.0,0.0,0.0,0.0,0.0,0.0,0.0,0.0,0.0,0.0,0.0,0.0,0.0,0.0,0.0,0.0,0.0,0.0,0.0,0.0,0.0,0.0,0.0,0.0,0.0,0.0,0.0,0.0,0.0,0.0,0.0,0.0,0.0,0.0,0.0,0.0,0.0,0.0,0.0,0.0,0.0,0.0,0.0,0.0,0.0,0.0,0.0,0.0,0.0,-1.2977,-1.5128,-1.6776,-1.7359,-1.738,-1.723,-1.6875,-1.5934,-1.4902,-1.3777,0.0,0.0,0.0,0.0,0.0,0.0,0.0,0.0,0.0,0.0,0.0,0.0,0.0,0.0,0.0,0.0,0.0,0.0,0.0,0.0,0.0,0.0,0.0,0.0,0.0,0.0,0.0,0.0,0.0,0.0,0.0,0.0,0.0,0.0,0.0,0.0,0.0,0.0,0.0,0.0,0.0,0.0,0.0,0.0,0.0,0.0,0.0,0.0,0.0,0.0,0.0,0.0,0.0,0.0,0.0,0.0,0.0,0.0,0.0,0.0,0.0,0.0,0.0,0.0,0.0,0.0,0.0,0.0,0.0,0.0,0.0,0.0,0.0,0.0,0.0,0.0,0.0,0.0,0.0,0.0,0.0,0.0,0.0,0.0,0.0,0.0,0.0,0.0,0.0,0.0,0.0,0.0,0.0,0.0,0.0,0.0,0.0,0.0,0.0,0.0,0.0,0.0,-1.3062,-1.4874,-1.6234,-1.6817,-1.7056,-1.6919,-1.6409,-1.5658,-1.4818,-1.3875,0.0,0.0,0.0,0.0,0.0,0.0,0.0,0.0,0.0,0.0,0.0,0.0,0.0,0.0,0.0,0.0,0.0,0.0,0.0,0.0,0.0,0.0,0.0,0.0,0.0,0.0,0.0,0.0,0.0,0.0,0.0,0.0,0.0,0.0,0.0,0.0,0.0,0.0,0.0,0.0,0.0,0.0,0.0,0.0,0.0,0.0,0.0,0.0,0.0,0.0,0.0,0.0,0.0,0.0,0.0,0.0,0.0,0.0,0.0,0.0,0.0,0.0,0.0,0.0,0.0,0.0,0.0,0.0,0.0,0.0,0.0,0.0,0.0,0.0,0.0,0.0,0.0,0.0,0.0,0.0,0.0,0.0,0.0,0.0,0.0,0.0,0.0,0.0,0.0,0.0,0.0,0.0,0.0,0.0,0.0,0.0,0.0,0.0,0.0,0.0,0.0,0.0,-1.284,-1.4382,-1.5583,-1.6067,-1.6399,-1.6393,-1.5927,-1.5416,-1.485,-1.4209,0.0,0.0,0.0,0.0,0.0,0.0,0.0,0.0,0.0,0.0,0.0,0.0,0.0,0.0,0.0,0.0,0.0,0.0,0.0,0.0,0.0,0.0,0.0,0.0,0.0,0.0,0.0,0.0,0.0,0.0,0.0,0.0,0.0,0.0,0.0,0.0,0.0,0.0,0.0,0.0,0.0,0.0,0.0,0.0,0.0,0.0,0.0,0.0,0.0,0.0,0.0,0.0,0.0,0.0,0.0,0.0,0.0,0.0,0.0,0.0,-0.0197,0.0,0.0,0.0,0.0,0.0,0.0,0.0,0.0,0.0,0.0,0.0,0.0,0.0,0.0,0.0,0.0,0.0,0.0,0.0,0.0,0.0,0.0,0.0,0.0,0.0,0.0,0.0,0.0,0.0,0.0,0.0,0.0,0.0,0.0,0.0,0.0,0.0,0.0,0.0,0.0,0.0,-1.2806,-1.4382,-1.5583,-1.6067,-1.6399,-1.6541,-1.644,-1.61,-1.5727,-1.5345,-1.4324,0.0,0.0,0.0,0.0,0.0,0.0,0.0,0.0,0.0,0.0,0.0,0.0,0.0,0.0,0.0,0.0,0.0,0.0,0.0,0.0,0.0,0.0,0.0,0.0,0.0,0.0,0.0,0.0,0.0,0.0,0.0,0.0,0.0,0.0,0.0,0.0,0.0,0.0,0.0,0.0,0.0,0.0,0.0,0.0,0.0,0.0,0.0,0.0,0.0,0.0,0.0,0.0,0.0,0.0,0.0,0.0,0.0,0.0,0.0,0.0,-0.0407,0.0,0.0,0.0,0.0,0.0,0.0,0.0,0.0,0.0,0.0,0.0,0.0,0.0,0.0,0.0,0.0,0.0,0.0,0.0,0.0,0.0,0.0,0.0,0.0,0.0,0.0,0.0,0.0,0.0,0.0,0.0,0.0,0.0,0.0,0.0,0.0,0.0,0.0,0.0,0.0,-1.2584,-1.3941,-1.4996,-1.5581,-1.5861,-1.5996,-1.6095,-1.585,-1.5692,-1.5702,-1.4794,0.0,0.0,0.0,0.0,0.0,0.0,0.0,0.0,0.0,0.0,0.0,0.0,0.0,0.0,0.0,0.0,0.0,0.0,0.0,0.0,0.0,0.0,0.0,0.0,0.0,0.0,0.0,0.0,0.0,0.0,0.0,0.0,0.0,0.0,0.0,0.0,0.0,0.0,0.0,0.0,0.0,0.0,0.0,0.0,0.0,0.0,0.0,0.0,0.0,0.0,0.0,0.0,0.0,0.1011,0.1075,0.1241,0.0794,0.0596,0.0646,0.0251,-0.0243,-0.0682,-0.0533,0.0,0.0,0.0,0.0,0.0,0.0,0.0,0.0,0.0,0.0,0.0,0.0,0.0,0.0,0.0,0.0,0.0,0.0,0.0,0.0,0.0,0.0,0.0,0.0,-0.772,-0.7718,0.0,0.0,0.0,0.0,0.0,0.0,0.0,0.0,0.0,0.0,0.0,0.0,-1.231,-1.3562,-1.4543,-1.5155,-1.5293,-1.5493,-1.5817,-1.569,-1.5709,-1.5992,-1.5401,-1.4562,0.0,0.0,0.0,0.0,0.0,0.0,0.0,0.0,0.0,0.0,0.0,0.0,0.0,0.0,0.0,0.0,0.0,0.0,0.0,0.0,0.0,0.0,0.0,0.0,0.0,0.0,0.0,0.0,0.0,0.0,0.0,0.0,0.693,0.6992,0.0,0.0,0.0,0.0,0.0,0.0,0.0,0.0,0.0,0.0,0.0,0.0,0.0,0.0986,0.1423,0.1352,0.1253,0.1257,0.1058,0.1032,0.1034,0.0976,0.0632,0.0115,0.0283,0.0,-0.0774,-0.0933,0.0,0.0,0.0,0.0,0.0,0.0,0.0,0.0,0.0,0.0,0.0,0.0,0.0,0.0,0.0,0.0,0.0,0.0,0.0,0.0,0.0,0.0,-0.8412,-0.8564,-0.8433,-0.829,0.0,-0.8136,-0.7849,-0.8256,-0.886,0.0,0.0,0.0,0.0,0.0,0.0,0.0,-1.2426,-1.4112,-1.5244,-1.5204,-1.5483,-1.5949,-1.6679,-1.6701,-1.6862,-1.7241,-1.6893,-1.5924,-1.4224,-1.4504,0.0,0.0,0.0,0.0,0.0,0.0,0.0,0.0,0.0,0.0,0.0,0.0,0.0,0.0,0.0,0.0,0.0,0.0,0.0,0.0,0.0,0.0,0.0,0.0,0.0,0.0,0.0,0.0,0.0,0.8295,0.7861,0.7024,0.6627,0.618,0.0,0.0,0.0,0.0,0.0,0.0,0.0,0.0,0.0,0.1175,0.107,0.1252,0.1682,0.167,0.166,0.1661,0.1355,0.1325,0.1531,0.1154,0.0729,0.0306,0.0181,-0.0347,-0.1197,-0.1747,-0.2657,-0.3711,0.0,0.0,0.0,0.0,-0.6156,-0.6213,-0.6095,-0.6337,0.0,-0.6333,0.0,0.0,0.0,0.0,0.0,0.0,0.0,0.0,0.0,0.0,-0.8706,-0.9031,-0.9049,-0.9113,-0.9824,-0.9389,-0.8818,0.0,-0.9719,-1.0257,-0.925,0.0,0.0,0.0,0.0,-1.2317,-1.3228,-1.4282,-1.4939,-1.4909,-1.4927,-1.5352,-1.6279,-1.6088,-1.6294,-1.7114,-1.6788,-1.6058,-1.489,-1.5403,-1.5146,0.0,0.0,0.0,0.0,0.0,0.0,0.0,0.0,0.0,0.0,0.0,0.0,0.0,0.0,0.0,0.0,0.0,0.0,0.0,0.0,0.0,0.0,0.0,0.0,0.0,0.0,0.0,0.0,0.9429,0.882,0.7193,0.7136,0.6823,0.0,0.0,0.0,0.0,0.0,0.0,0.3516,0.3439,0.2732,0.1059,0.1162,0.1423,0.172,0.1881,0.1965,0.1965,0.1651,0.1729,0.1955,0.1498,0.0997,0.0627,0.0185,-0.0484,-0.1349,-0.2376,-0.3451,-0.4589,-0.5611,-0.6314,-0.6787,-0.6758,-0.6807,-0.6865,-0.6652,-0.6947,-0.7363,-0.6781,0.0,-0.7056,-0.6363,0.0,0.0,0.0,0.0,-0.7699,-0.8276,-0.8597,-0.8926,-0.9367,-0.9473,-0.9711,-1.0761,-1.0553,-1.0159,0.0,-1.0948,-1.1301,-1.0354,0.0,0.0,0.0,0.0,-1.2665,-1.3718,-1.433,-1.4691,-1.4706,-1.4566,-1.4825,-1.5618,-1.5383,-1.5597,-1.6615,-1.6446,-1.6058,-1.5526,-1.6014,-1.5704,-1.4458,0.0,0.0,0.0,0.0,0.0,0.0,0.0,0.0,0.0,0.0,0.0,0.0,0.0,0.0,0.0,0.0,0.0,0.0,0.0,0.0,0.0,0.0,0.0,0.0,0.0,0.0,0.0,0.0,0.0,0.7997,0.8259,0.0,0.0,0.0,0.0,0.6455,0.6669,0.5828,0.3595,0.3606,0.2696,0.05,0.0891,0.1218,0.1539,0.1927,0.2121,0.2057,0.2028,0.1953,0.2018,0.1954,0.1564,0.0926,0.0304,-0.0359,-0.1058,-0.2492,-0.3658,-0.4614,-0.5756,-0.6573,-0.7071,-0.694,-0.7095,-0.7316,-0.7125,-0.7277,-0.7604,-0.7709,-0.7561,-0.7284,-0.6731,-0.6954,0.0,0.0,-0.8,-0.8544,-0.8743,-0.9051,-0.9412,-0.9567,-0.9612,-0.9903,-1.0965,-1.1409,-1.2021,0.0,-1.3075,-1.2778,-1.352,0.0,-1.2871,-1.1977,-1.2476,-1.3097,-1.347,-1.4316,-1.4854,-1.4706,-1.4692,-1.4831,-1.5104,-1.5111,-1.5403,-1.6118,-1.6358,-1.6343,-1.6064,-1.5978,-1.5968,-1.6076,-1.4977,0.0,0.0,0.0,0.0,0.0,0.0,0.0,0.0,0.0,0.0,0.0,0.0,0.0,0.0,0.0,0.0,0.0,0.0,0.0,0.0,0.0,0.0,0.0,0.0,0.0,0.0,0.0,0.0,0.8327,0.839,0.0,0.7349,0.7138,0.7152,0.724,0.7483,0.6995,0.5476,0.4502,0.3369,0.2023,0.1426,0.1216,0.1592,0.1906,0.2074,0.2035,0.2024,0.2018,0.2018,0.2018,0.1635,0.1,0.0732,0.0,-0.1058,-0.3153,-0.4231,-0.4849,-0.6772,-0.7587,-0.768,-0.7534,-0.7709,-0.7926,-0.7533,-0.7598,-0.7875,-0.7828,-0.7624,-0.7386,-0.7338,-0.744,-0.7668,-0.815,-0.8558,-0.8929,-0.9247,-0.9433,-0.9547,-0.9612,-0.9579,-1.0064,-1.1804,-1.1604,-1.1868,-1.461,-1.4489,-1.3596,-1.2709,-1.3225,-1.349,-1.2716,-1.3035,-1.3514,-1.4048,-1.4428,-1.4598,-1.4453,-1.4265,-1.4429,-1.5247,-1.4662,-1.4889,-1.6378,-1.6126,-1.6013,-1.627,-1.6034,-1.5771,-1.5505,-1.5118,-1.4655,0.0,0.0,0.0,0.0,0.0,0.0,0.0,0.0,0.0,0.0,0.0,0.0,0.0,0.0,0.0,0.0,0.0,0.0,0.0,0.0,0.0,0.0,0.0,0.0,0.0,0.0,1.1881,0.9571,0.9335,0.9034,0.7975,0.7892,0.7932,0.8054,0.8206,0.784,0.6632,0.507,0.3739,0.2764,0.1627,0.1185,0.1424,0.1863,0.2079,0.2018,0.2018,0.2014,0.2005,0.2005,0.1739,0.1284,0.1018,0.0352,-0.0804,-0.3414,-0.4594,-0.5002,-0.7417,-0.824,-0.7971,-0.7783,-0.7927,-0.8158,-0.7761,-0.7643,-0.7723,-0.7625,-0.7465,-0.7396,-0.7672,-0.7783,-0.7929,-0.8592,-0.8925,-0.9137,-0.9497,-0.9579,-0.9579,-0.9579,-0.9579,-1.013,-1.2231,-1.1738,-1.1784,-1.5021,-1.5014,-1.4116,-1.2891,-1.3511,-1.3903,-1.3062,-1.3066,-1.336,-1.3901,-1.4127,-1.4144,-1.4069,-1.3931,-1.4135,-1.4856,-1.4038,-1.4275,-1.6141,-1.5513,-1.5474,-1.628,-1.6111,-1.5736,-1.5219,-1.5257,-1.4959,-1.4291,0.0,0.0,0.0,0.0,0.0,0.0,0.0,0.0,0.0,0.0,0.0,0.0,0.0,0.0,0.0,0.0,0.0,0.0,0.0,0.0,0.0,0.0,0.0,1.3826,1.3923,1.3451,1.1649,1.116,1.0381,0.8811,0.8604,0.866,0.878,0.8788,0.826,0.6979,0.5347,0.3874,0.2398,0.1582,0.1058,0.103,0.1737,0.2078,0.2017,0.2017,0.2002,0.1974,0.1975,0.1926,0.1784,0.1207,0.0564,-0.0219,-0.3216,-0.463,-0.5139,-0.7534,-0.8318,-0.7959,-0.7695,-0.7747,-0.7906,-0.7683,-0.7437,-0.7188,-0.7188,-0.7188,-0.7263,-0.7667,-0.7874,-0.8107,-0.8784,-0.9055,-0.9236,-0.9529,-0.9579,-0.9579,-0.9579,-0.9486,-1.0023,-1.2185,-1.1847,-1.1935,-1.4741,-1.4771,-1.4358,-1.4388,-1.4515,-1.4227,-1.3039,-1.2686,0.0,-1.3016,-1.3366,-1.3634,-1.3611,-1.3847,-1.3952,-1.3919,-1.3305,-1.3606,-1.5258,-1.4602,-1.4754,-1.6142,-1.6099,-1.5883,-1.547,-1.5504,-1.5847,-1.6446,0.0,0.0,0.0,0.0,0.0,0.0,0.0,0.0,0.0,0.0,0.0,0.0,0.0,0.0,0.0,0.0,0.0,0.0,0.0,0.0,0.0,1.5563,1.6126,1.5014,1.4535,1.3906,1.2769,1.1168,1.0033,0.9576,0.9279,0.9122,0.9155,0.9158,0.8971,0.8598,0.6251,0.4721,0.4314,0.2447,0.1441,0.1334,0.1853,0.2068,0.1988,0.1988,0.1961,0.1911,0.1934,0.1918,0.1872,0.1618,0.0972,-0.017,-0.2598,-0.4166,-0.5275,-0.7613,-0.8318,-0.7959,-0.7695,-0.7419,-0.7128,-0.7202,-0.7205,-0.7238,-0.7444,-0.7494,-0.7487,-0.7595,-0.7664,-0.7733,-0.7934,-0.8446,-0.8928,-0.9027,-0.9327,-0.9579,-0.9579,-0.9486,-0.9936,-1.1988,-1.1909,-1.2092,-1.4296,-1.4826,-1.4796,-1.4567,-1.4847,-1.4846,-1.4125,-1.3976,0.0,-1.4093,-1.3973,-1.3997,-1.4302,-1.3566,-1.3331,-1.4004,-1.362,-1.3778,-1.4758,-1.4956,-1.5264,-1.5809,-1.5688,-1.5926,-1.6624,-1.6398,-1.6678,0.0,0.0,0.0,0.0,0.0,0.0,0.0,0.0,0.0,0.0,0.0,0.0,0.0,0.0,0.0,0.0,0.0,0.0,0.0,0.0,0.0,0.0,1.6627,1.7436,1.7282,1.6514,1.5615,1.4492,1.2529,1.1021,1.0239,0.9663,0.9304,0.9304,0.9304,0.9304,0.9304,0.7166,0.566,0.5108,0.3197,0.1903,0.1503,0.1763,0.1854,0.1958,0.1958,0.1932,0.1886,0.1891,0.187,0.0,0.1823,0.1237,0.0165,-0.1802,-0.3469,0.0,0.0,0.0,0.0,0.0,-0.7118,-0.6681,-0.6903,-0.6976,-0.7042,-0.7194,-0.7344,-0.7444,-0.7444,-0.7362,-0.7368,-0.7654,-0.7951,-0.8269,-0.8812,-0.9104,-0.9328,-0.9478,-0.9376,-0.9806,-1.176,-1.1604,-1.1778,-1.4046,-1.4545,0.0,-1.4625,-1.4904,-1.485,-1.4166,-1.3945,-1.3901,-1.404,-1.3935,-1.3961,-1.4298,-1.3756,-1.3554,-1.4038,-1.3635,0.0,0.0,0.0,-1.4891,-1.5418,-1.5572,0.0,0.0,0.0,-1.7251,-1.803,0.0,0.0,0.0,-1.7045,-1.6916,0.0,0.0,0.0,0.0,0.0,0.0,0.0,0.0,0.0,0.0,0.0,0.0,0.0,0.0,0.0,0.0,1.7855,1.879,1.9863,1.9148,1.7933,1.637,1.4436,1.252,1.074,0.9807,0.9304,0.9304,0.9304,0.9304,0.9304,0.0,0.0,0.0,0.0,0.2579,0.1742,0.1545,0.1636,0.1865,0.1865,0.1909,0.1874,0.1844,0.18,0.1806,0.1778,0.1418,0.068,-0.0913,-0.274,-0.4714,-0.7282,-0.8118,-0.7919,-0.747,-0.6937,-0.6487,-0.6725,0.0,0.0,-0.6845,-0.7042,-0.7238,-0.7188,-0.7073,-0.7029,-0.7594,-0.757,-0.7599,-0.8675,-0.8848,-0.8884,-0.9298,-0.9194,-0.9566,-1.1385,-1.1117,-1.1235,-1.3786,-1.4097,-1.4055,-1.4552,-1.4783,-1.4595,-1.3836,-1.3433,-1.3331,-1.3623,-1.3677,-1.3813,-1.4084,0.0,0.0,-1.4097,-1.3606,-1.366,-1.4508,-1.4017,-1.4134,-1.5043,-1.5735,-1.6202,-1.6474,-1.7161,-1.7754,-1.8291,-1.8291,-1.8529,-1.9034,-1.7328,-1.7168,0.0,0.0,0.0,0.0,0.0,0.0,0.0,0.0,0.0,0.0,0.0,0.0,0.0,0.0,0.0,1.7753,1.8775,1.9802,2.0418,2.0377,1.9282,1.6836,1.4365,1.2305,1.1028,0.9951,0.9304,0.9304,0.9304,0.9304,0.9304,0.8123,0.731,0.7063,0.4609,0.3165,0.2964,0.1975,0.1487,0.148,0.0,0.0,0.1811,0.1781,0.1816,0.1804,0.1811,0.1475,0.0811,-0.0429,-0.2742,-0.566,-0.741,-0.7863,-0.7519,-0.708,-0.6815,-0.6728,-0.6726,-0.7054,-0.7394,-0.7191,-0.7291,-0.7444,-0.6992,-0.7006,0.0,-0.6764,-0.7169,-0.7753,-0.7986,-0.8364,-0.8773,-0.9082,-0.9007,-0.9187,-1.0305,-1.0835,-1.1523,-1.279,-1.3566,-1.4068,-1.4349,-1.4878,-1.5215,-1.5072,-1.4739,-1.455,-1.4615,-1.4448,-1.4433,-1.4688,-1.4328,-1.4171,-1.4482,-1.4108,-1.3984,-1.4328,-1.4405,-1.4557,-1.4862,-1.6052,-1.6793,-1.696,-1.8127,-1.8825,-1.8951,-1.8742,-1.8726,-1.8831,-1.8647,-1.8813,0.0,0.0,0.0,0.0,0.0,0.0,0.0,0.0,0.0,0.0,0.0,2.1343,2.0835,0.0,1.9871,1.9972,1.9996,2.0105,2.0644,2.0873,2.0167,1.8126,1.5495,1.3365,1.2237,1.0449,0.9304,0.9304,0.9304,0.9304,0.9304,0.876,0.815,0.7485,0.542,0.4007,0.3287,0.1919,0.1305,0.1414,0.1591,0.168,0.1794,0.1818,0.1804,0.1804,0.1804,0.1632,0.1131,-0.0739,-0.2899,-0.509,-0.6893,-0.7645,-0.7683,-0.7343,-0.7095,-0.698,-0.6819,-0.7137,-0.7547,-0.7141,-0.7341,-0.7693,-0.6995,-0.6903,-0.6976,-0.6571,-0.6695,-0.7063,-0.7643,-0.8017,-0.8386,-0.8846,-0.8889,-0.9021,-0.9851,-1.0279,-1.0889,-1.2253,-1.2782,-1.3199,-1.3808,-1.4375,-1.4805,-1.4948,-1.467,-1.4516,-1.4684,-1.4428,-1.4386,-1.467,-1.4421,-1.4212,-1.4169,-1.3822,-1.3763,-1.4162,-1.4294,-1.4467,-1.4705,-1.575,-1.6544,-1.6971,-1.8008,-1.8721,-1.9108,-1.9008,-1.8942,-1.8942,-1.8942,-1.9142,0.0,0.0,0.0,0.0,0.0,0.0,0.0,0.0,2.1343,2.315,2.3376,2.3372,2.3722,2.2815,2.2068,2.2384,2.1371,2.0711,2.1045,2.1144,2.0641,1.9409,1.7097,1.4907,1.3397,1.1217,0.9651,0.9272,0.9291,0.9304,0.9304,0.9304,0.8836,0.7836,0.6262,0.4819,0.3493,0.2117,0.1309,0.1184,0.1416,0.1564,0.1682,0.1763,0.1804,0.1804,0.1798,0.1731,0.1496,-0.1043,-0.2713,-0.3885,-0.6034,-0.7267,-0.7782,-0.7648,-0.7444,-0.7241,-0.7042,-0.7294,-0.7593,-0.7095,-0.7444,-0.7842,-0.7045,-0.6896,-0.694,-0.6566,-0.6358,-0.6461,-0.7429,-0.7742,-0.7926,-0.86,-0.8771,-0.8897,-0.9453,-0.9662,-1.0119,-1.1451,-1.1849,-1.218,-1.3014,-1.3521,-1.3956,-1.4365,-1.4225,-1.4153,-1.4379,-1.4181,-1.4084,-1.4386,-1.4474,-1.4294,-1.3739,-1.3548,-1.3587,-1.392,-1.4093,-1.4274,-1.4489,-1.5338,-1.607,-1.6655,-1.755,-1.8273,-1.8898,-1.9031,-1.9108,-1.9108,-1.8942,-1.9008,2.2391,2.0478,1.9713,2.1527,2.1194,2.1189,0.0,0.0,2.5161,2.724,2.7082,2.6635,2.6566,2.5917,2.5074,2.3947,2.3066,2.2508,2.2539,2.1546,2.0581,2.0209,1.855,1.6341,1.3434,1.229,1.1038,0.9231,0.9247,0.9304,0.9304,0.9304,0.9124,0.8748,0.724,0.5747,0.4195,0.3219,0.2023,0.0541,0.1424,0.168,0.1345,0.1653,0.1804,0.1803,0.1721,0.1722,0.1631,-0.021,-0.16,-0.2775,-0.4951,-0.6505,-0.753,-0.7598,-0.7596,-0.7547,-0.7497,-0.7693,-0.7892,-0.7596,-0.7743,-0.7842,-0.7045,-0.7123,-0.7372,-0.6551,-0.651,-0.6842,-0.7236,-0.7465,-0.7716,-0.8456,-0.8641,-0.8588,-0.8486,-0.9103,-0.9698,-0.9707,-1.0727,-1.1662,-1.1933,-1.2421,-1.3112,-1.4105,-1.4271,-1.423,-1.4071,-1.4004,-1.3996,-1.4071,-1.4335,-1.4294,-1.3739,-1.4163,-1.4119,-1.336,-1.4101,-1.4425,-1.4165,-1.5196,-1.5833,-1.5939,-1.7276,-1.8037,-1.8138,-1.8787,-1.9108,-1.9108,-1.9075,-1.9142,2.3789,2.3415,0.0,0.0,2.4471,2.5003,2.653,2.6295,2.606,2.7137,2.7479,2.7525,2.7392,2.6549,2.5881,0.0,2.4039,2.2707,2.2772,2.1607,2.0668,2.0359,1.9411,1.7443,1.4087,1.2547,1.1028,0.91,0.9139,0.9204,0.9204,0.9204,0.9095,0.8853,0.7585,0.6491,0.5449,0.3889,0.2602,0.1546,0.1418,0.1216,0.1065,0.1378,0.1576,0.1722,0.171,0.1702,0.1644,0.0261,-0.0771,-0.1676,-0.383,-0.5436,-0.6643,-0.7488,-0.7899,-0.7961,-0.7675,-0.7793,-0.7939,-0.749,-0.7543,-0.7693,-0.7191,-0.7191,-0.7248,-0.6747,-0.6655,-0.6795,-0.6963,-0.721,-0.752,-0.8007,-0.8261,-0.8385,-0.8308,-0.8459,-0.872,-0.9108,-0.955,-1.0204,-1.1236,-1.1783,-1.2422,-1.3475,-1.3635,-1.366,-1.3697,-1.3697,-1.3697,-1.3697,-1.3821,-1.385,-1.3593,-1.3615,-1.3594,-1.3543,-1.392,-1.4165,-1.4281,-1.4725,-1.5126,-1.5454,-1.626,-1.6992,-1.7717,-1.809,-1.8423,-1.8694,-1.8413,-1.8331,2.4622,0.0,0.0,2.6203,2.7069,2.794,2.8657,2.7931,2.7223,2.7585,2.7651,2.7673,2.7731,2.7055,2.6692,2.7352,2.5097,2.328,2.3372,2.1846,2.0527,2.0105,1.9631,1.8053,1.4859,1.3149,1.1575,0.9847,0.9291,0.9014,0.9014,0.9014,0.8957,0.8682,0.7953,0.7142,0.6201,0.4796,0.3494,0.231,0.1711,0.1216,0.0784,0.1157,0.1412,0.1608,0.1646,0.1685,0.162,0.0775,0.0051,-0.076,-0.2771,-0.4367,-0.576,-0.7231,-0.7985,-0.8248,-0.7845,-0.7842,-0.7939,-0.754,-0.754,-0.7637,-0.7344,-0.7282,-0.7177,-0.6768,-0.6667,-0.6703,-0.6659,-0.69,-0.7207,-0.7578,-0.7878,-0.8072,-0.8154,-0.7984,-0.7938,-0.8504,-0.8649,-0.9079,-1.0244,-1.1037,-1.1781,-1.2599,-1.2936,-1.3236,-1.3535,-1.3455,-1.336,-1.336,-1.336,-1.336,-1.336,-1.3136,-1.3136,-1.3475,-1.3558,-1.3747,-1.4002,-1.4082,-1.4417,-1.5093,-1.5492,-1.6215,-1.7265,-1.754,-1.7864,-1.8195,-1.7854,-1.7699,2.4589,0.0,2.3761,2.6941,2.8101,2.8794,3.0127,2.9849,2.948,3.0093,2.8625,2.7387,2.7988,2.8105,2.8123,2.8157,2.6372,2.4918,2.494,2.226,2.0124,1.9597,1.9069,1.7859,0.0,1.4538,1.3322,1.1899,1.0041,0.8887,0.8887,0.8887,0.8725,0.844,0.8535,0.7697,0.5924,0.6296,0.4959,0.2047,0.255,0.1968,0.0448,0.1047,0.1311,0.1308,0.1582,0.1679,0.1699,0.159,0.0919,-0.0207,-0.1822,-0.3503,-0.5197,-0.6676,-0.768,-0.8248,-0.8042,-0.7988,-0.7988,-0.7988,-0.7988,-0.7915,-0.7527,-0.7437,-0.7331,-0.654,-0.6514,-0.6633,-0.6362,-0.6463,-0.6767,-0.728,-0.7402,-0.748,-0.7773,-0.7808,-0.7747,-0.7563,-0.8174,-0.8703,-0.8775,-1.0094,-1.1186,-1.1409,-1.2268,-1.3119,-1.3717,-1.3328,-1.3023,-1.3023,-1.3023,-1.3023,-1.3023,-1.3164,-1.3129,-1.277,-1.2971,-1.3103,-1.3028,-1.3305,-1.3857,-1.4772,-1.5398,-1.6,-1.6626,-1.7336,-1.7709,-1.7719,-1.7709,-1.7699,2.4015,0.0,2.7474,2.9371,3.0467,3.1103,3.1263,3.0474,2.9393,2.8275,2.6592,2.5254,2.5091,2.5133,2.554,2.6533,2.5488,2.4611,2.4988,2.2363,2.0188,1.9585,1.9051,0.0,0.0,0.0,0.0,1.1318,1.058,0.9848,0.8777,0.8785,0.8704,0.8426,0.8454,0.8078,0.7363,0.6793,0.5373,0.3254,0.1731,0.0789,0.0386,0.0604,0.0811,0.1056,0.1305,0.1397,0.1388,0.1523,0.1369,0.0916,-0.0303,-0.1881,-0.3606,-0.5058,-0.6507,-0.7785,-0.7942,-0.7988,-0.7988,-0.7988,-0.7892,-0.7717,-0.7664,-0.7572,-0.7372,-0.7089,-0.6962,-0.6875,-0.6684,-0.6607,-0.6649,-0.6812,-0.7022,-0.7218,-0.7325,-0.7375,-0.7419,-0.7472,-0.7614,-0.8094,-0.9271,-0.9933,-1.0726,-1.2003,-1.2709,-1.3229,-1.3572,-1.3433,-1.325,-1.3031,-1.3206,-1.3155,-1.2723,-1.2815,-1.2809,-1.2591,-1.2795,-1.2837,-1.2736,-1.3041,-1.3243,-1.334,-1.436,-1.5133,-1.5601,-1.6708,-1.7399,-1.7699,-1.7699,-1.7533,2.5196,2.7232,2.9364,3.1053,3.2222,3.2813,3.2271,3.1385,3.0088,2.8176,2.6058,2.4404,2.3716,2.3478,2.3738,2.4949,2.4424,2.4183,2.5061,2.2525,2.0489,2.0303,1.9567,1.9127,0.0,0.0,0.0,1.2608,1.1456,1.0327,0.9042,0.8625,0.8418,0.8356,0.8353,0.8217,0.7932,0.7276,0.592,0.384,0.1691,0.0497,0.0274,0.0378,0.0582,0.0874,0.1029,0.1221,0.1351,0.1411,0.1516,0.1515,0.0403,-0.0862,-0.2248,-0.3584,-0.5319,-0.7044,-0.771,-0.7911,-0.7901,-0.785,-0.7739,-0.7612,-0.7651,-0.7465,-0.7221,-0.7073,-0.6901,-0.6681,-0.6313,-0.6199,-0.6248,-0.6319,-0.6657,-0.6946,-0.7107,-0.7326,-0.7501,-0.7498,-0.7471,-0.7769,-0.8855,-0.9518,-1.0421,-1.1929,-1.2562,-1.301,-1.3346,-1.3353,-1.3243,-1.3031,-1.3097,-1.298,-1.2521,-1.247,-1.24,-1.2332,-1.234,-1.2387,-1.2419,-1.2549,-1.2719,-1.2917,-1.3692,-1.4357,-1.4885,-1.591,-1.6587,-1.687,-1.7122,-1.7141,2.7835,2.8887,2.9481,3.1915,3.3247,3.3745,3.2992,3.232,3.1362,2.9463,2.6832,2.4554,0.0,0.0,2.2868,2.3502,2.3419,2.3767,2.5319,2.2819,2.0999,0.0,0.0,0.0,0.0,0.0,0.0,1.5784,0.0,1.0583,0.9735,0.8623,0.8118,0.8228,0.8159,0.8054,0.7714,0.7738,0.641,0.3779,0.2441,0.1148,0.0,0.0264,0.0515,0.0758,0.0758,0.105,0.1527,0.1304,0.1314,0.1465,0.0454,-0.0453,-0.1308,-0.2365,-0.4071,-0.6004,-0.7262,-0.7756,-0.7787,-0.7645,-0.76,-0.757,-0.7463,-0.7236,-0.6908,-0.6458,-0.6337,-0.6148,-0.5472,-0.5404,-0.5571,-0.5869,-0.6257,-0.6679,-0.7065,-0.7638,-0.7936,-0.7557,-0.7676,-0.7787,-0.7587,-0.886,-1.0217,-1.1236,-1.1879,-1.2489,-1.3119,-1.3078,-1.2988,-1.2987,-1.2723,-1.2526,-1.2475,-1.2171,-1.1996,-1.1981,-1.1728,-1.1747,-1.2058,-1.1903,-1.229,-1.3359,-1.3329,-1.3692,-1.4469,-1.5108,-1.5449,-1.5508,-1.6167,-1.6663,2.7467,2.956,3.1766,3.2822,3.3281,3.3147,3.1803,3.0827,2.9511,2.692,2.4479,2.2257,0.0,0.0,0.0,2.2223,2.3279,0.0,2.538,2.3776,0.0,2.1209,0.0,1.9865,1.9639,1.9846,0.0,0.0,1.5518,1.3212,1.1051,1.0273,0.9418,0.8233,0.806,0.7921,0.7828,0.6698,0.5303,0.366,0.2401,0.1154,0.0,0.0053,0.0156,0.0202,0.0404,0.0604,0.0702,0.0857,0.096,0.096,0.0707,0.0101,-0.0705,-0.156,-0.2542,-0.3681,-0.553,-0.6894,-0.7787,-0.7645,-0.76,-0.757,-0.7463,-0.7373,-0.7242,-0.6962,-0.6781,-0.6658,-0.6521,-0.6184,-0.5908,-0.6098,-0.626,-0.6451,-0.6679,-0.6999,-0.7246,-0.7456,-0.7899,-0.8245,-0.8166,-0.9012,-0.9966,-1.0803,-1.1346,-1.2003,-1.3046,-1.3048,-1.2892,-1.2873,-1.2858,-1.2626,-1.202,-1.1973,-1.1901,-1.1692,-1.1635,-1.156,-1.1522,-1.1677,-1.1833,-1.1856,-1.2803,-1.3563,-1.4124,-1.5335,-1.6138,-1.6605,-1.7132,-1.7234,2.9378,3.0824,3.2351,3.3097,3.2948,3.2156,3.0399,2.9398,2.8131,2.5341,2.3136,2.1194,1.9615,1.9555,0.0,0.0,0.0,0.0,2.5509,2.4491,2.3163,0.0,2.1393,0.0,2.0132,2.0156,2.0073,0.0,1.7181,1.4645,1.25,1.1008,0.967,0.8509,0.7964,0.769,0.7638,0.6687,0.5641,0.4362,0.3141,0.1951,0.0798,0.0262,0.0051,0.02,0.0,0.0352,0.0599,0.0604,0.0707,0.0808,0.0808,0.0454,-0.0101,-0.0554,-0.1393,-0.2487,-0.3917,-0.5462,-0.6882,-0.726,-0.7397,-0.7383,-0.7295,-0.7272,-0.7193,-0.6953,-0.6737,-0.6612,-0.6473,-0.6125,-0.5879,-0.6043,-0.6237,-0.643,-0.6471,-0.6972,-0.7493,-0.7706,-0.7807,-0.7884,-0.7884,-0.8539,-0.9218,-0.9685,-1.0526,-1.1446,-1.2305,-1.2863,-1.3172,-1.3239,-1.3105,-1.2814,-1.2288,-1.2042,-1.1814,-1.1606,-1.1591,-1.156,-1.1428,-1.1615,-1.1654,-1.1522,-1.2197,-1.2773,-1.326,-1.456,-1.5433,-1.593,-1.6737,-1.7079,3.1857,3.2133,3.2227,3.3063,3.2466,3.1215,2.924,2.8261,2.699,2.432,2.2495,2.1051,2.0001,1.9864,2.0114,2.0616,0.0,2.4153,2.5594,2.4995,2.4031,2.3105,2.2609,2.1855,2.0592,2.0042,2.0125,2.0913,1.8198,1.5747,1.4097,1.1562,0.9762,0.8763,0.7898,0.7434,0.7312,0.7206,0.6596,0.5369,0.4332,0.3088,0.1752,0.072,0.0251,0.0345,0.01,0.0,0.0691,0.0452,0.0505,0.0707,0.0707,0.0556,0.0404,0.0353,-0.0496,-0.175,-0.2479,-0.3735,-0.5216,-0.6554,-0.7051,-0.7098,-0.7122,-0.7112,-0.7031,-0.6793,-0.6574,-0.6379,-0.61,-0.5854,-0.5719,-0.5912,-0.6254,-0.6524,-0.6382,-0.7223,-0.8007,-0.8004,-0.7599,-0.7246,-0.7164,-0.7771,-0.8303,-0.8376,-0.9596,-1.0734,-1.1329,-1.2562,-1.3513,-1.3694,-1.335,-1.3001,-1.2743,-1.217,-1.1725,-1.1564,-1.16,-1.1591,-1.1591,-1.1591,-1.1654,-1.174,-1.1654,-1.1872,-1.2328,-1.3403,-1.4094,-1.4499,-1.5691,-1.6465,3.1398,3.2133,3.3063,3.3247,3.2202,3.0836,2.963,2.7874,0.0,0.0,2.2376,2.1519,2.055,2.0238,2.0739,2.2561,2.3046,2.3742,2.5258,2.506,2.4216,0.0,2.2221,0.0,0.0,0.0,0.0,0.0,0.0,1.8203,1.6096,1.3942,1.1401,0.8417,0.7678,0.7309,0.7243,0.7221,0.6596,0.5369,0.5097,0.3825,0.1806,0.1458,0.0869,0.005,0.0,0.0,0.0151,0.0101,0.0101,0.0152,0.0152,0.0253,0.0353,0.0149,0.0195,0.0095,-0.1449,-0.1922,-0.2379,-0.5494,-0.6786,-0.7119,-0.7292,-0.7241,-0.7115,-0.722,-0.7009,-0.6703,-0.6607,-0.6356,-0.62,-0.624,-0.6296,-0.6405,-0.6528,-0.7119,-0.7546,-0.7368,-0.7523,-0.7545,-0.7025,-0.7337,-0.7785,-0.8172,-0.8711,-0.9617,-1.1193,-1.2342,-1.3092,-1.3374,-1.3207,-1.291,-1.2437,-1.2033,-1.1659,-1.1383,-1.1499,-1.1591,-1.1591,-1.1591,-1.1529,-1.1397,-1.1654,-1.2011,-1.2481,-1.31,-1.3713,-1.4273,-1.5167,-1.5605,3.1662,3.211,3.2937,3.3212,3.1926,3.0055,2.8,0.0,0.0,2.153,2.0941,2.0704,1.9886,2.0121,0.0,2.1887,2.2627,2.359,2.4902,2.5127,0.0,2.3596,2.2916,0.0,0.0,0.0,0.0,0.0,0.0,1.7982,1.7049,1.4167,1.1495,0.9037,0.8117,0.7438,0.6935,0.7099,0.679,0.5959,0.5424,0.4581,0.3401,0.2162,0.1322,0.0807,0.0252,0.0,0.0199,0.005,0.01,0.0199,0.005,0.01,0.0199,0.0049,0.0145,0.0187,-0.102,-0.1458,-0.1789,-0.3749,-0.5132,-0.6169,-0.7004,-0.72,-0.7112,-0.7231,-0.7058,-0.681,-0.6714,-0.6562,-0.6367,-0.6312,-0.6238,-0.6273,-0.6657,-0.6995,-0.7216,-0.7317,-0.7507,-0.7517,-0.7125,-0.7297,-0.7528,-0.7673,-0.8365,-0.912,-0.9892,-1.0978,-1.2128,-1.3423,-1.3399,-1.327,-1.3131,-1.2482,-1.1927,-1.1646,-1.1494,-1.1322,-1.1092,-1.1415,-1.148,-1.1182,-1.141,-1.174,-1.2128,-1.2642,-1.31,-1.3485,-1.4362,-1.4894,3.1968,3.2222,3.2753,3.3178,3.1743,2.9481,2.668,2.5223,0.0,2.0146,1.9918,2.018,1.9642,2.0118,2.0726,0.0,2.1853,2.2855,2.4256,2.4753,2.4788,0.0,2.383,0.0,0.0,0.0,0.0,0.0,0.0,0.0,1.6978,1.3838,1.1406,1.0044,0.8703,0.7657,0.6993,0.7077,0.6963,0.6596,0.5868,0.5346,0.4959,0.3097,0.2016,0.1563,0.0707,0.0,0.0,0.01,0.015,0.0394,0.01,0.0,0.0,0.0,0.0,-0.0094,-0.065,-0.1052,-0.1441,-0.2149,-0.3571,-0.527,-0.6367,-0.6894,-0.7102,-0.7136,-0.7018,-0.6852,-0.6742,-0.6586,-0.6484,-0.6371,-0.619,-0.6194,-0.669,-0.6873,-0.7005,-0.7325,-0.7504,-0.7555,-0.7318,-0.7446,-0.7492,-0.7305,-0.7998,-0.8595,-0.8672,-0.9628,-1.1101,-1.3112,-1.3298,-1.3384,-1.3661,-1.299,-1.2375,-1.198,-1.1624,-1.1242,-1.0836,-1.1254,-1.1401,-1.1217,-1.1305,-1.1527,-1.1844,-1.2189,-1.2467,-1.2701,-1.3528,-1.4145,3.1911,3.2613,3.3224,3.3269,3.1743,2.9665,2.7522,0.0,2.3898,2.1123,2.0844,2.1162,2.1344,2.0765,2.0695,0.0,0.0,2.0829,2.3105,2.3353,2.3481,2.393,0.0,0.0,0.0,0.0,0.0,0.0,0.0,0.0,1.5654,1.3785,1.2155,1.1029,0.9037,0.7934,0.7878,0.7327,0.6994,0.6926,0.6642,0.5955,0.501,0.4671,0.3425,0.1613,0.1513,0.0,0.0,0.01,0.015,0.0394,0.01,0.0,0.0,0.0,0.0,0.0,-0.0094,0.0046,-0.0046,-0.1396,-0.3439,-0.5374,-0.5378,-0.62,-0.7125,-0.7312,-0.7146,-0.6852,-0.6742,-0.6586,-0.6508,-0.6497,-0.6381,-0.6317,-0.65,-0.6713,-0.6919,-0.6941,-0.7536,-0.793,-0.7536,-0.7652,-0.7709,-0.7502,-0.7241,-0.7477,-0.8567,-0.9263,-1.025,-1.1718,-1.2191,-1.2605,-1.3025,-1.321,-1.2958,-1.2135,-1.1942,-1.1726,-1.1503,-1.1276,-1.1276,-1.1547,-1.1577,-1.1699,-1.1992,-1.1912,-1.2022,-1.2379,-1.2741,-1.31,3.0525,3.1913,3.3201,3.2879,3.1283,2.9171,2.6841,0.0,2.3341,2.0764,2.0647,2.0963,2.0753,2.0405,2.0352,0.0,0.0,0.0,2.2148,2.2085,2.2511,2.4529,0.0,0.0,0.0,0.0,0.0,0.0,0.0,0.0,1.6214,1.5005,1.3688,1.216,1.0669,0.9357,0.8322,0.7801,0.7373,0.7135,0.6752,0.6323,0.5795,0.51,0.4331,0.3476,0.2142,0.0,0.0,0.0404,0.0251,0.0532,0.015,0.0,0.0,0.0,0.0,0.0,0.0,0.0047,0.0094,-0.0322,-0.1732,-0.3502,-0.4885,-0.566,-0.6216,-0.6991,-0.7085,-0.6852,-0.6742,-0.6522,-0.6385,-0.6385,-0.623,-0.6139,-0.6193,-0.6464,-0.669,-0.6565,-0.7294,-0.7814,-0.7551,-0.7851,-0.8037,-0.7738,-0.765,-0.7658,-0.7791,-0.8101,-0.8889,-1.0284,-1.1781,-1.2935,-1.3605,-1.3336,-1.3006,-1.2624,-1.2242,-1.176,-1.1138,-1.1291,-1.1371,-1.1298,-1.1489,-1.1721,-1.2003,-1.1936,-1.1943,-1.2003,-1.2345,-1.2584,2.937,3.1179,3.296,3.2581,3.0859,2.8643,0.0,0.0,2.2889,2.0531,2.0563,2.0839,2.0324,2.0183,2.008,0.0,0.0,1.9534,2.1084,2.0802,2.1442,0.0,0.0,0.0,0.0,0.0,0.0,0.0,0.0,0.0,1.6878,1.6102,1.4959,1.3352,1.2105,1.0698,0.9071,0.8598,0.7921,0.7113,0.683,0.6603,0.6435,0.5622,0.5118,0.4798,0.3209,0.0,0.0,0.096,0.0551,0.0579,0.015,0.0,0.0,0.0,0.0,0.0,0.0,0.0,0.0048,0.0233,-0.0414,-0.1642,-0.3652,-0.4621,-0.5314,-0.6384,-0.6743,-0.6824,-0.6671,-0.6487,-0.631,-0.6354,-0.6207,-0.6108,-0.6152,-0.6356,-0.6503,-0.6408,-0.702,-0.7534,-0.7594,-0.7884,-0.8096,-0.7979,-0.7903,-0.7747,-0.7419,-0.7591,-0.8171,-0.9207,-1.116,-1.2758,-1.3651,-1.3384,-1.3123,-1.3022,-1.2487,-1.1866,-1.1271,-1.1516,-1.1564,-1.1363,-1.1709,-1.2006,-1.2288,-1.2193,-1.2116,-1.2017,-1.2054,-1.2044,2.875,3.0753,3.2489,3.2489,3.0583,2.8184,0.0,2.442,2.2681,2.0784,2.0814,2.1063,2.0667,2.0324,2.0047,1.9829,0.0,0.0,1.9805,1.9609,0.0,0.0,0.0,0.0,0.0,0.0,0.0,0.0,0.0,0.0,1.721,1.6634,1.5791,1.4606,1.3127,1.172,1.04,0.9696,0.8602,0.6987,0.6858,0.6729,0.6606,0.6432,0.5872,0.0,0.0,0.0,0.0,0.1701,0.1098,0.0393,0.01,0.0,0.0,0.0,0.0,0.0,0.0,0.0,0.0,0.0,0.0,-0.0224,-0.1223,-0.2856,-0.4512,-0.545,-0.6196,-0.6668,-0.6555,-0.6409,-0.6334,-0.6477,-0.6402,-0.6334,-0.6477,-0.6399,-0.6367,-0.6544,-0.6753,-0.7114,-0.7686,-0.7623,-0.7729,-0.8295,-0.7785,-0.7412,-0.7755,-0.8138,-0.847,-0.8684,-1.0136,-1.1595,-1.2799,-1.3266,-1.3453,-1.3304,-1.2661,-1.2295,-1.2288,-1.1974,-1.1857,-1.1989,-1.2317,-1.2672,-1.2994,-1.2672,-1.2485,-1.2477,-1.1826,-1.1385,2.6219,2.764,2.8815,2.8502,2.7231,2.5773,2.4427,2.3294,2.2222,2.1164,2.1138,2.1178,2.07,2.0518,2.0501,2.0723,1.9745,0.0,0.0,0.0,0.0,0.0,0.0,0.0,0.0,0.0,0.0,0.0,0.0,0.0,1.6602,1.6427,1.5785,1.4659,1.4164,1.3151,1.1517,1.0501,0.944,0.8356,0.7298,0.6828,0.6854,0.6338,0.6124,0.0,0.0,0.0,0.0,0.2332,0.1552,0.1397,0.0393,0.0,0.0,0.0,0.0,0.0,0.0,0.0,0.0,0.0,0.0,-0.0044,-0.0385,-0.1378,-0.2652,-0.3794,-0.4961,-0.5817,-0.5526,-0.5899,-0.631,-0.6358,-0.6213,-0.6115,-0.6159,-0.6135,-0.6126,-0.619,-0.6563,-0.6961,-0.7137,-0.7588,-0.7913,-0.797,-0.7903,-0.7771,-0.7614,-0.7717,-0.7957,-0.8456,-0.9063,-1.0184,-1.1928,-1.2542,-1.2906,-1.3086,-1.2852,-1.2613,-1.2439,-1.2476,-1.2435,-1.2332,-1.2434,-1.2645,-1.3009,-1.2899,-1.2704,-1.247,-1.1823,-1.1372,2.4507,2.585,2.6864,2.6662,2.5658,2.4492,2.3697,2.2726,2.1882,2.1461,2.1725,2.1768,2.1024,2.1068,2.1174,2.1015,2.0175,0.0,0.0,0.0,0.0,0.0,0.0,0.0,0.0,0.0,0.0,0.0,0.0,0.0,1.6311,1.6125,1.5694,1.4946,1.5037,1.4297,1.2573,1.1465,1.03,0.8983,0.764,0.7024,0.6994,0.6497,0.646,0.0,0.0,0.0,0.0,0.3349,0.2369,0.1779,0.0858,0.0284,0.0,0.0,0.0,0.0,0.0,0.0,0.0,0.0,0.0044,0.0127,0.0209,-0.0801,-0.2217,-0.3425,-0.4705,-0.5734,-0.5702,-0.6062,-0.6378,-0.6378,-0.6227,-0.6101,-0.6003,-0.6074,-0.6098,-0.6003,-0.6377,-0.6714,-0.6865,-0.7427,-0.7836,-0.787,-0.7983,-0.7975,-0.7706,-0.7589,-0.763,-0.8037,-0.8449,-0.9224,-1.0457,-1.142,-1.2071,-1.2298,-1.258,-1.2623,-1.2424,-1.2779,-1.2846,-1.2564,-1.286,-1.2998,-1.3009,-1.276,-1.2531,-1.2403,-1.1742,-1.1337,0.0,2.5053,2.6161,2.6267,2.5228,2.4059,2.3642,2.2568,0.0,2.1792,2.247,2.2733,2.171,2.1977,2.2015,2.0914,2.0504,0.0,0.0,0.0,0.0,0.0,0.0,0.0,0.0,0.0,0.0,0.0,0.0,0.0,1.6278,1.5734,1.5433,1.5415,1.565,1.5071,1.3534,1.2521,1.1043,0.9096,0.799,0.732,0.706,0.6873,0.6794,0.0,0.0,0.0,0.0,0.464,0.3459,0.1744,0.1513,0.0907,0.0184,0.0138,0.0092,0.0092,0.0,0.0,0.0,0.0,0.0128,0.0325,0.0528,-0.0905,-0.281,-0.3761,-0.4955,-0.6076,-0.659,-0.6627,-0.6497,-0.6497,-0.6395,-0.6259,-0.6078,-0.6159,-0.6255,-0.6074,-0.6156,-0.6395,-0.6769,-0.7126,-0.7454,-0.7827,-0.7927,-0.7947,-0.7962,-0.7698,-0.7493,-0.7512,-0.8169,-0.8622,-0.8622,-1.0055,-1.1028,-1.1114,-1.188,-1.2284,-1.223,-1.2912,-1.3116,-1.2756,-1.3431,-1.3481,-1.2972,-1.231,-1.2083,-1.2244,-1.1614,-1.1247,2.1809,0.0,2.2443,2.2465,2.2233,2.1901,0.0,2.1722,0.0,0.0,0.0,0.0,0.0,2.334,2.3339,2.1408,2.1432,2.1502,2.085,0.0,0.0,0.0,0.0,0.0,0.0,0.0,0.0,0.0,0.0,1.6967,1.6245,1.5376,1.4805,1.4588,1.4636,1.4257,1.3435,1.2623,1.149,1.0053,0.8875,0.8145,0.7825,0.6911,0.6832,0.0,0.0,0.0,0.6439,0.5169,0.4273,0.3564,0.2703,0.2224,0.1978,0.1255,0.1043,0.0971,0.0266,0.0,0.0042,0.0163,0.0281,0.0317,0.0356,-0.0238,-0.0958,-0.1362,-0.2953,-0.4619,-0.4928,-0.5762,-0.6539,-0.6386,-0.6323,-0.6289,-0.6252,-0.6276,-0.6289,-0.6252,-0.6139,-0.6084,-0.6194,-0.6434,-0.6649,-0.6761,-0.7172,-0.7525,-0.7684,-0.7587,-0.7555,-0.7721,-0.7764,-0.7795,-0.7795,-0.9086,-0.9971,-1.0205,-1.1028,-1.152,-1.1622,-1.267,-1.323,-1.331,-1.3392,-1.314,-1.2636,-1.2193,-1.1916,-1.1755,-1.1602,-1.1435,2.1305,2.1253,2.1337,2.1862,2.162,2.1432,2.2004,0.0,0.0,0.0,0.0,0.0,0.0,0.0,2.3387,2.2117,2.1736,0.0,0.0,0.0,0.0,0.0,0.0,0.0,0.0,0.0,0.0,0.0,0.0,1.7323,1.6168,1.5502,1.4947,1.4491,1.4364,1.4123,1.382,1.2809,1.1806,1.0857,0.9584,0.8662,0.8117,0.7463,0.731,0.0,0.0,0.0,0.6741,0.5501,0.4786,0.4295,0.3566,0.3013,0.2592,0.1759,0.1469,0.1369,0.0471,0.0084,0.0,0.0119,0.0236,0.0314,0.0314,0.0157,-0.0157,-0.0833,-0.2147,-0.3506,-0.4346,-0.508,-0.5741,-0.6254,-0.628,-0.6153,-0.6087,-0.6132,-0.6115,-0.6016,-0.6012,-0.6002,-0.5925,-0.6328,-0.6564,-0.6417,-0.6814,-0.7202,-0.7395,-0.7307,-0.7344,-0.7621,-0.756,-0.7489,-0.7489,-0.8154,-0.8743,-0.9108,-1.0039,-1.0673,-1.0849,-1.1779,-1.2544,-1.3088,-1.2618,-1.2435,-1.2485,-1.1897,-1.1655,-1.1772,-1.1657,-1.1529,2.14,2.1363,2.1599,2.2634,2.2122,2.1667,2.2868,0.0,0.0,0.0,0.0,0.0,0.0,2.3336,0.0,0.0,0.0,0.0,0.0,0.0,0.0,0.0,0.0,0.0,0.0,0.0,0.0,0.0,0.0,1.7501,1.6068,1.5637,1.5091,1.4401,1.4177,1.4075,1.4117,1.2993,1.211,1.146,1.0273,0.9285,0.8552,0.8311,0.8031,0.7625,0.0,0.0,0.659,0.5841,0.5262,0.4761,0.4316,0.3746,0.3076,0.2254,0.1885,0.1672,0.0667,0.0165,0.0,0.004,0.0157,0.0314,0.0352,0.0351,0.0117,-0.0874,-0.1719,-0.2615,-0.4095,-0.4468,-0.4747,-0.6023,-0.6163,-0.5998,-0.5913,-0.5957,-0.5995,-0.5741,-0.5916,-0.6061,-0.5876,-0.6352,-0.6639,-0.6321,-0.6643,-0.6971,-0.7098,-0.7058,-0.7152,-0.7503,-0.7512,-0.7489,-0.7489,-0.7489,-0.7684,-0.8074,-0.9181,-1.0011,-1.0376,-1.0978,-1.1669,-1.2393,-1.1783,-1.1725,-1.2266,-1.1593,-1.1468,-1.185,-1.1694,-1.1622,2.1348,2.164,2.2147,2.2637,2.197,2.1486,2.2545,2.2078,0.0,0.0,0.0,0.0,0.0,2.5918,2.6256,0.0,0.0,0.0,0.0,0.0,0.0,0.0,0.0,0.0,0.0,0.0,0.0,0.0,0.0,1.7506,1.6002,1.5055,1.4114,1.3019,1.297,1.3061,1.3258,1.3082,1.2612,1.1907,1.1299,1.074,1.0202,0.9231,0.8832,0.8842,0.0,0.7327,0.7379,0.6521,0.6157,0.6034,0.541,0.5216,0.5178,0.393,0.3155,0.2563,0.0879,0.0158,0.0039,0.0197,0.0275,0.0313,0.0498,0.0571,0.0531,0.0335,-0.0676,-0.1907,-0.2795,-0.3749,-0.4655,-0.5322,-0.5785,-0.6118,-0.6208,-0.6233,-0.6255,-0.6204,-0.6144,-0.6075,-0.6071,-0.606,-0.5989,-0.5756,-0.639,-0.6868,-0.6789,-0.7242,-0.7635,-0.7745,-0.7598,-0.7489,-0.7489,-0.7489,-0.7521,-0.7587,-0.882,-1.0073,-1.1179,-1.1642,-1.1756,-1.1499,-1.1924,-1.1814,-1.1151,-1.1675,-1.1706,-1.1261,-1.1605,-1.1716,2.153,2.142,2.162,2.3225,2.2799,2.242,2.4114,2.3375,0.0,0.0,0.0,0.0,0.0,0.0,2.485,2.3779,0.0,0.0,0.0,0.0,0.0,0.0,0.0,0.0,0.0,0.0,0.0,0.0,0.0,0.0,1.6972,1.6594,1.5657,1.3887,1.4065,1.3799,1.3127,1.297,1.2644,1.2226,1.1827,1.132,1.0814,1.0236,0.9722,0.9201,0.0,0.7708,0.7381,0.6567,0.634,0.6467,0.6091,0.5885,0.5642,0.4199,0.3249,0.2497,0.1197,0.0616,0.0386,0.0196,0.0195,0.0307,0.0266,0.0412,0.0592,0.0475,0.011,-0.0481,-0.1515,-0.2283,-0.3016,-0.4046,-0.49,-0.5517,-0.5645,-0.5936,-0.6185,-0.6096,-0.612,-0.6105,-0.6004,-0.6082,-0.609,-0.58,-0.6063,-0.6386,-0.6668,-0.6862,-0.7175,-0.7598,-0.755,-0.7489,-0.7489,-0.7489,-0.7489,-0.7489,-0.8603,-0.9503,-1.0085,-1.0672,-1.0992,-1.1044,-1.1002,-1.1099,-1.1279,-1.1464,-1.1525,-1.1486,-1.1704,-1.1716,2.1474,2.1175,2.1239,2.3561,2.3271,2.3052,2.5538,2.4528,0.0,0.0,0.0,0.0,0.0,2.4049,0.0,2.4666,0.0,0.0,0.0,0.0,0.0,0.0,0.0,0.0,0.0,0.0,0.0,0.0,0.0,0.0,1.7997,1.8057,1.72,1.517,1.5071,1.4461,1.3238,1.2802,1.2576,1.2449,1.2167,1.1761,1.1375,1.117,1.0564,0.966,0.886,0.8123,0.7514,0.6691,0.6572,0.6787,0.6502,0.6131,0.5595,0.4256,0.3274,0.2473,0.1613,0.1084,0.0747,0.0306,0.0229,0.0262,0.0112,0.033,0.0577,0.0394,0.0573,0.0573,-0.0504,-0.0989,-0.1521,-0.2866,-0.3902,-0.4637,-0.4876,-0.5312,-0.5702,-0.5778,-0.5918,-0.6013,-0.602,-0.6228,-0.6304,-0.6006,-0.5993,-0.6161,-0.6527,-0.6581,-0.6778,-0.7297,-0.7461,-0.7489,-0.7489,-0.7446,-0.7422,-0.7422,-0.8275,-0.8823,-0.8914,-0.9581,-1.0102,-1.041,-1.0345,-1.0668,-1.145,-1.1457,-1.1555,-1.1802,-1.1833,-1.1778,2.0794,2.1206,2.189,2.3005,2.2369,2.2356,2.5701,2.4445,0.0,2.5266,0.0,0.0,0.0,2.5217,2.5733,0.0,0.0,0.0,0.0,0.0,0.0,0.0,0.0,0.0,0.0,0.0,0.0,0.0,0.0,0.0,1.8614,1.8196,1.7371,1.5963,1.4741,1.3953,1.3646,1.2762,1.2433,1.2686,1.2404,1.2362,1.2577,1.1952,1.1348,1.08,0.9562,0.8777,0.8266,0.7312,0.7136,0.7382,0.6658,0.607,0.5476,0.4533,0.3754,0.3098,0.2152,0.14,0.0778,0.0763,0.0549,0.0291,0.0284,0.0422,0.0594,0.0512,0.0509,0.0443,0.0035,-0.0446,-0.1109,-0.222,-0.2924,-0.3525,-0.422,-0.4395,-0.4628,-0.5315,-0.5444,-0.5646,-0.6251,-0.6395,-0.6366,-0.6218,-0.6453,-0.6523,-0.628,-0.6773,-0.7106,-0.6946,-0.7265,-0.7489,-0.7489,-0.7318,-0.7213,-0.7213,-0.7742,-0.8269,-0.8705,-0.9238,-0.9448,-0.9223,-1.0708,-1.1308,-1.0934,-1.1981,-1.2251,-1.1802,-1.1996,-1.191,2.1348,2.141,2.1675,2.3639,2.3089,0.0,0.0,2.5287,2.4834,2.6345,2.6162,0.0,0.0,0.0,0.0,0.0,0.0,0.0,0.0,0.0,0.0,0.0,0.0,0.0,0.0,0.0,0.0,0.0,0.0,0.0,1.9492,1.9221,1.8431,1.6854,1.5951,1.4903,1.3702,1.2815,1.2305,1.2216,1.2119,1.216,1.238,1.2134,1.1735,1.1301,1.0664,0.9783,0.8732,0.8255,0.785,0.745,0.6932,0.6511,0.6095,0.5089,0.4421,0.39,0.2769,0.2117,0.1687,0.1012,0.0721,0.0532,0.0211,0.0243,0.0375,0.0237,0.027,0.0372,0.0307,0.0,-0.0403,-0.0805,-0.1811,-0.2783,-0.305,-0.3751,-0.4386,-0.4649,-0.4716,-0.4948,-0.5646,-0.5778,-0.5914,-0.6284,-0.6251,-0.628,-0.6478,-0.6449,-0.6609,-0.7199,-0.7498,-0.7543,-0.7313,-0.7232,-0.7138,-0.6948,-0.7565,-0.7964,-0.8075,-0.8515,-0.8737,-0.8736,-0.9587,-1.0239,-1.0647,-1.1549,-1.2027,-1.2112,-1.1996,-1.1852,2.1302,2.1432,2.1733,2.3778,0.0,0.0,2.5524,2.5651,2.577,2.7359,2.6869,0.0,0.0,0.0,0.0,0.0,0.0,0.0,0.0,0.0,0.0,0.0,0.0,0.0,0.0,0.0,0.0,0.0,0.0,0.0,0.0,2.0021,1.9203,1.7803,1.679,1.5608,1.4176,1.2961,1.2241,1.2019,1.1699,1.1718,1.212,1.216,1.1991,1.1583,1.1315,1.0523,0.9436,0.8909,0.8172,0.7365,0.7095,0.6802,0.6416,0.5571,0.5067,0.4602,0.3701,0.3034,0.2526,0.18,0.1228,0.0726,0.0381,0.024,0.0202,0.0101,0.0135,0.0236,0.0404,0.0303,0.0101,-0.0067,-0.0873,-0.1678,-0.1846,-0.2716,-0.3485,-0.3651,-0.3851,-0.4184,-0.4915,-0.5047,-0.5266,-0.5879,-0.5741,-0.5774,-0.6363,-0.6121,-0.6302,-0.7292,-0.7366,-0.7342,-0.7329,-0.7221,-0.709,-0.6921,-0.7375,-0.7583,-0.7456,-0.7928,-0.8228,-0.8258,-0.8785,-0.9358,-0.9938,-1.0762,-1.1358,-1.1722,-1.1673,-1.1728,2.0367,2.1188,2.2226,2.3164,0.0,0.0,2.5675,2.5345,2.5511,2.8153,0.0,2.6577,2.6078,0.0,0.0,0.0,0.0,0.0,0.0,0.0,0.0,0.0,0.0,0.0,0.0,0.0,0.0,0.0,0.0,0.0,0.0,2.0367,1.9509,1.8715,1.7017,1.5816,1.5224,1.3292,1.2335,1.2298,1.1203,1.1135,1.1914,1.2114,1.2052,1.1792,1.1388,1.0927,1.04,0.9188,0.8096,0.7224,0.7183,0.6814,0.6279,0.6013,0.5648,0.5246,0.4928,0.4115,0.3215,0.3215,0.2112,0.0807,0.0806,0.0438,0.0034,0.0236,0.0169,0.0034,0.0236,0.0404,0.0371,-0.0168,-0.0134,-0.0134,-0.0672,-0.121,-0.1747,-0.2283,-0.2817,-0.3416,-0.4151,-0.4287,-0.4476,-0.5021,-0.4934,-0.5061,-0.5804,-0.5909,-0.6232,-0.7104,-0.684,-0.6872,-0.7529,-0.7299,-0.7116,-0.7081,-0.7086,-0.7032,-0.6903,-0.7609,-0.7879,-0.7707,-0.853,-0.8893,-0.8692,-0.9692,-1.029,-1.0511,-1.1059,-1.1571,2.1229,2.1791,0.0,2.3526,0.0,0.0,0.0,2.6184,0.0,0.0,0.0,2.6997,0.0,0.0,0.0,0.0,0.0,0.0,0.0,0.0,0.0,0.0,0.0,0.0,0.0,0.0,0.0,0.0,0.0,0.0,0.0,1.9765,1.925,1.8732,1.7521,1.6577,1.5973,1.4451,1.3492,1.3068,1.1747,1.1367,1.1771,1.1809,1.1846,1.187,1.1475,1.1055,1.0542,0.9064,0.8222,0.7777,0.7091,0.6744,0.651,0.5921,0.556,0.5329,0.4926,0.452,0.4078,0.3429,0.2882,0.228,0.1142,0.0672,0.0505,0.0169,0.0034,0.0,0.0067,0.0236,0.0303,0.0168,-0.0034,-0.0269,-0.0403,-0.0874,-0.1378,-0.1747,-0.1982,-0.2368,-0.3301,-0.3508,-0.3722,-0.432,-0.4276,-0.4368,-0.4976,-0.5758,-0.631,-0.6423,-0.6894,-0.7124,-0.6841,-0.7091,-0.7125,-0.6842,-0.7002,-0.7032,-0.6903,-0.698,-0.7038,-0.7129,-0.7474,-0.8017,-0.8759,-0.9309,-1.0034,-1.0914,-1.0844,-1.12,2.1609,2.2297,0.0,2.4167,2.4707,2.5216,2.6354,0.0,0.0,0.0,0.0,2.7283,0.0,0.0,0.0,0.0,0.0,0.0,0.0,0.0,0.0,0.0,0.0,0.0,0.0,0.0,0.0,0.0,0.0,0.0,0.0,1.9199,1.8659,1.8474,1.7385,1.6655,1.629,1.49,1.3996,1.3632,1.2345,1.1717,1.1657,1.1376,1.1323,1.1368,1.1158,1.0795,1.0225,0.9166,0.8337,0.7706,0.7319,0.6852,0.6367,0.6111,0.5852,0.5549,0.5331,0.5047,0.4712,0.415,0.3621,0.3031,0.2045,0.1364,0.084,0.0539,0.0236,-0.0034,-0.0101,-0.0034,0.0067,0.0169,0.0067,-0.0067,-0.0066,-0.0467,-0.0901,-0.1046,-0.1246,-0.1676,-0.2487,-0.2644,-0.2965,-0.3737,-0.3969,-0.4157,-0.4396,-0.5018,-0.5545,-0.5765,-0.6169,-0.6513,-0.6691,-0.6939,-0.7041,-0.6915,-0.7013,-0.7027,-0.6969,-0.6901,-0.687,-0.6892,-0.681,-0.7062,-0.7605,-0.8316,-0.9065,-0.9862,-1.0107,-1.0672,2.1696,2.2645,2.3587,2.4805,2.5723,0.0,2.8787,2.8261,2.7534,2.8168,0.0,0.0,0.0,0.0,0.0,0.0,0.0,0.0,0.0,0.0,0.0,0.0,0.0,0.0,0.0,0.0,0.0,0.0,0.0,0.0,0.0,1.8715,1.8003,1.7967,1.685,1.628,1.6324,1.4868,1.4158,1.4114,1.3011,1.2192,1.1566,1.0979,1.0635,1.0533,1.0582,1.0254,0.9633,0.931,0.8468,0.7372,0.7679,0.704,0.6001,0.6463,0.6327,0.5884,0.5868,0.5578,0.5172,0.5141,0.4338,0.3414,0.3318,0.2397,0.1344,0.1176,0.0671,0.0101,-0.0202,-0.0303,-0.0269,-0.0067,0.0101,0.0234,0.026,-0.0132,-0.0428,-0.0343,-0.0727,-0.1223,-0.1734,-0.1837,-0.2228,-0.3247,-0.3876,-0.4153,-0.3963,-0.3966,-0.4306,-0.5083,-0.4975,-0.5375,-0.671,-0.6795,-0.689,-0.7136,-0.7033,-0.7024,-0.7106,-0.7106,-0.703,-0.6885,-0.6493,-0.6149,-0.5933,-0.704,-0.7763,-0.8108,-0.9077,-1.0085,2.2486,2.2765,0.0,0.0,2.5405,2.6796,2.9075,2.9023,2.891,3.0254,2.9818,0.0,0.0,0.0,0.0,0.0,0.0,0.0,0.0,0.0,0.0,0.0,0.0,0.0,0.0,0.0,0.0,0.0,0.0,0.0,1.855,1.8314,1.7851,1.7019,1.6747,1.6587,1.661,1.5707,1.5275,0.0,1.3899,1.2687,1.1599,1.1461,1.085,0.9907,1.0338,1.0118,0.9447,0.9206,0.8847,0.8382,0.747,0.6822,0.6352,0.6218,0.5954,0.5679,0.5659,0.5705,0.5688,0.5433,0.5214,0.4937,0.4078,0.3727,0.3309,0.1877,0.1485,0.124,0.0201,-0.0166,-0.0295,-0.0235,-0.0202,-0.0167,-0.0162,-0.013,-0.0161,-0.0404,-0.0538,-0.0737,-0.1127,-0.1457,-0.1852,-0.2457,-0.3155,-0.3564,-0.3525,-0.3752,-0.3998,-0.419,-0.4795,-0.5228,-0.5337,-0.616,-0.6682,-0.6788,-0.6768,-0.6887,-0.7172,-0.6691,-0.6558,-0.6822,-0.6331,-0.6341,-0.6896,-0.6858,-0.7467,-0.8625,-0.8857,-0.972,2.1701,0.0,0.0,2.4407,0.0,2.8089,2.8912,2.9608,3.0296,3.1063,0.0,0.0,0.0,0.0,0.0,0.0,0.0,0.0,0.0,0.0,0.0,0.0,0.0,0.0,0.0,0.0,0.0,0.0,0.0,2.0149,1.8615,1.7937,1.745,1.7128,1.6441,1.6201,1.6406,1.5622,1.5232,1.5283,1.4339,1.3079,1.1561,1.0639,0.9983,0.96,0.978,0.9692,0.9437,0.9292,0.8933,0.8427,0.7976,0.7293,0.654,0.6454,0.6156,0.5764,0.5641,0.5675,0.5757,0.5659,0.5635,0.5488,0.4871,0.444,0.3951,0.29,0.2119,0.1445,0.0709,0.0065,-0.0429,-0.0528,-0.0467,-0.0368,-0.0325,-0.0228,-0.0163,-0.0249,-0.0253,-0.0386,-0.0821,-0.1438,-0.1976,-0.2211,-0.2697,-0.2977,-0.2889,-0.3009,-0.3169,-0.335,-0.3803,-0.4329,-0.4865,-0.5437,-0.5984,-0.644,-0.6533,-0.663,-0.6824,-0.6581,-0.6569,-0.6808,-0.6328,-0.6275,-0.663,-0.6708,-0.7101,-0.7759,-0.819,-0.901,2.0628,0.0,2.3375,2.4971,2.7256,0.0,2.8813,2.9895,3.0956,3.0967,0.0,0.0,0.0,0.0,0.0,0.0,0.0,0.0,0.0,0.0,0.0,0.0,0.0,0.0,0.0,0.0,0.0,0.0,0.0,1.9912,1.8989,1.7685,1.7077,1.7338,1.6167,1.5674,1.5977,1.5204,1.4857,1.4944,1.427,1.3201,1.1739,0.9855,0.9104,0.93,0.9174,0.9223,0.9354,0.9248,0.8819,0.824,0.8585,0.7891,0.6761,0.7029,0.6676,0.6021,0.5862,0.5785,0.5741,0.5892,0.5864,0.5713,0.5586,0.4999,0.4333,0.3946,0.2869,0.1765,0.1311,0.045,-0.0364,-0.0685,-0.0663,-0.0569,-0.0357,-0.0329,-0.0231,0.0,0.0063,-0.0097,-0.0612,-0.1413,-0.2034,-0.2124,-0.2406,-0.2562,-0.2369,-0.2275,-0.2353,-0.2656,-0.2734,-0.326,-0.442,-0.4611,-0.5039,-0.5918,-0.6077,-0.6245,-0.6436,-0.6571,-0.6711,-0.6808,-0.6423,-0.6173,-0.6082,-0.6549,-0.6739,-0.6696,-0.7423,-0.827,2.0881,0.0,2.3768,0.0,2.6347,2.7225,0.0,0.0,2.9596,0.0,0.0,0.0,0.0,0.0,0.0,0.0,0.0,0.0,0.0,0.0,0.0,0.0,0.0,0.0,0.0,0.0,0.0,0.0,2.0162,1.949,1.8389,1.785,1.7186,1.6316,1.6117,1.5846,1.5498,1.5029,1.4814,1.4807,1.3302,1.2547,1.2498,1.0905,0.9552,0.8487,0.8984,0.9054,0.8794,0.8536,0.8507,0.8592,0.8444,0.7897,0.7285,0.788,0.7341,0.6292,0.6607,0.6476,0.6121,0.6152,0.6233,0.6282,0.6133,0.6096,0.5856,0.4712,0.4238,0.367,0.1983,0.1091,0.0441,-0.0364,-0.0772,-0.0935,-0.0552,-0.0389,-0.0193,0.0187,0.0348,0.0258,-0.0258,-0.0808,-0.1317,-0.1784,-0.2334,-0.2638,-0.2482,-0.2416,-0.2338,-0.2219,-0.2506,-0.2796,-0.2979,-0.3482,-0.4144,-0.5011,-0.5089,-0.5555,-0.662,-0.6517,-0.6586,-0.6894,-0.6564,-0.6354,-0.6354,-0.6309,-0.6549,-0.7025,-0.7166,-0.7797,2.0339,2.1311,2.224,0.0,2.4812,2.5893,2.8018,0.0,2.8575,0.0,0.0,0.0,0.0,0.0,0.0,0.0,0.0,0.0,0.0,0.0,0.0,0.0,0.0,0.0,0.0,0.0,0.0,0.0,1.9863,1.9362,1.835,1.7856,1.7401,1.7,1.6418,1.5877,1.5465,1.4749,1.4307,1.4062,1.3169,1.2658,1.2449,1.1541,1.0435,0.9267,0.9369,0.9224,0.8903,0.8644,0.8602,0.8692,0.8578,0.826,0.7877,0.8103,0.7849,0.736,0.703,0.6844,0.6706,0.6419,0.6222,0.6105,0.6055,0.5933,0.5715,0.5104,0.4594,0.4025,0.3161,0.1883,0.0694,0.0319,-0.0361,-0.0869,-0.0715,-0.0458,-0.0164,0.0319,0.0448,0.0385,0.0032,-0.0283,-0.0689,-0.1267,-0.1701,-0.2041,-0.2252,-0.2279,-0.2261,-0.2174,-0.2257,-0.2432,-0.2792,-0.2986,-0.3403,-0.4122,-0.4622,-0.5144,-0.5664,-0.6268,-0.6625,-0.6788,-0.6652,-0.6517,-0.6408,-0.6332,-0.6413,-0.6603,-0.6788,-0.7361,0.0,0.0,2.0823,2.2006,2.3263,2.4575,0.0,0.0,0.0,0.0,0.0,0.0,0.0,0.0,0.0,0.0,0.0,0.0,0.0,0.0,0.0,0.0,0.0,0.0,0.0,0.0,0.0,0.0,1.9769,1.9356,1.8584,1.7961,1.7661,1.7639,1.6602,1.5861,1.5516,1.4463,1.3743,1.335,1.3138,1.2839,1.2445,1.2154,1.1421,1.0385,0.9921,0.9481,0.9094,0.8744,0.8637,0.8724,0.8637,0.8445,0.8209,0.8434,0.8409,0.8214,0.7716,0.7436,0.7212,0.6824,0.6392,0.6018,0.5927,0.5705,0.5449,0.5361,0.4798,0.4178,0.4002,0.2617,0.1229,0.0987,0.0128,-0.0664,-0.0655,-0.0394,-0.0033,0.0421,0.0578,0.0569,0.0368,0.0153,-0.0183,-0.0724,-0.1122,-0.151,-0.1918,-0.2104,-0.2212,-0.2212,-0.2071,-0.2181,-0.2627,-0.2543,-0.2738,-0.332,-0.3984,-0.4453,-0.4677,-0.5741,-0.6376,-0.6458,-0.6701,-0.6707,-0.6517,-0.6436,-0.6359,-0.6255,-0.6468,-0.6929,0.0,1.9777,0.0,2.1132,2.205,0.0,0.0,0.0,0.0,0.0,0.0,0.0,0.0,0.0,0.0,0.0,0.0,0.0,0.0,0.0,0.0,0.0,0.0,0.0,0.0,0.0,0.0,0.0,1.9953,1.9447,1.8913,1.8375,1.7893,1.7523,1.6465,1.5769,1.5516,1.4192,1.333,1.2935,1.291,1.291,1.2861,1.2842,1.2348,1.1461,1.0432,0.968,0.9139,0.8568,0.8505,0.8751,0.8449,0.8153,0.8069,0.9204,0.9017,0.832,0.9094,0.8533,0.7474,0.7456,0.6966,0.6306,0.5994,0.5785,0.5652,0.5453,0.5144,0.4699,0.3993,0.3212,0.2364,0.1477,0.0504,-0.026,-0.0301,0.0,0.0313,0.0482,0.0758,0.092,0.0713,0.0443,0.0146,-0.0198,-0.0844,-0.1378,-0.1603,-0.1964,-0.2212,-0.2212,-0.2071,-0.2015,-0.2043,-0.1934,-0.2102,-0.2708,-0.2792,-0.3178,-0.4009,-0.4889,-0.5523,-0.5828,-0.6647,-0.7009,-0.6879,-0.6549,-0.6381,-0.6386,-0.6282,-0.6507,0.0,0.0,0.0,1.9879,1.9968,2.0234,2.2371,2.288,0.0,0.0,0.0,0.0,0.0,0.0,0.0,0.0,0.0,0.0,0.0,0.0,0.0,0.0,0.0,0.0,0.0,0.0,0.0,0.0,0.0,1.9022,1.8287,1.7959,1.7806,1.7881,1.6927,1.5823,1.4609,1.354,1.2953,1.2905,1.2905,1.2905,1.2905,1.2905,1.2544,1.1902,1.1462,1.087,1.0176,0.9442,0.9261,0.9384,0.8837,0.8664,0.8789,0.9329,0.9525,0.9519,0.9426,0.8998,0.8452,0.798,0.7073,0.6147,0.6154,0.5657,0.5072,0.5065,0.5001,0.484,0.4585,0.3807,0.2813,0.1684,0.0795,0.0184,0.0158,0.0063,0.0062,0.0336,0.0604,0.0742,0.0546,0.0599,0.0512,0.0,-0.0308,-0.0701,-0.1319,-0.1656,-0.1906,-0.2183,-0.2155,-0.2099,-0.2015,-0.1961,-0.1989,-0.2102,-0.2488,-0.2847,-0.3151,-0.4006,-0.4618,-0.4952,-0.5437,-0.6095,-0.6906,-0.668,-0.6517,-0.6413,-0.6388,-0.6663,1.8036,0.0,0.0,0.0,0.0,1.9034,2.0772,0.0,0.0,0.0,0.0,0.0,0.0,0.0,0.0,0.0,0.0,0.0,0.0,0.0,0.0,0.0,0.0,0.0,0.0,0.0,0.0,0.0,0.0,0.0,1.8276,1.8097,1.7817,1.7368,1.6815,1.562,1.3745,1.3194,1.2895,1.2783,1.2808,1.2808,1.2783,1.2808,1.2627,1.2292,1.2298,1.1774,1.0888,1.0252,0.9985,0.9875,0.9336,0.9081,0.9032,0.9291,0.9575,0.9762,0.9451,0.9174,0.8842,0.829,0.7419,0.6528,0.6401,0.5782,0.5115,0.4943,0.4846,0.4763,0.4763,0.4107,0.3196,0.2104,0.145,0.1018,0.0773,0.0329,0.003,0.0177,0.0409,0.0576,0.0507,0.0673,0.0673,0.0196,0.0056,-0.0252,-0.0926,-0.1347,-0.1712,-0.1962,-0.2128,-0.2155,-0.2015,-0.1987,-0.1933,-0.1797,-0.2184,-0.2406,-0.2406,-0.3234,-0.3812,-0.4012,-0.4611,-0.5352,-0.629,-0.641,-0.6502,-0.6608,-0.6605,-0.6849,0.0,0.0,0.0,0.0,0.0,0.0,1.8988,0.0,2.0735,0.0,0.0,0.0,0.0,0.0,0.0,0.0,0.0,0.0,0.0,0.0,0.0,0.0,0.0,0.0,0.0,0.0,0.0,0.0,2.0754,1.9953,1.8954,1.8873,1.7965,1.5986,1.603,1.5121,1.305,1.3266,1.3094,1.2505,1.2627,1.2627,1.2505,1.2627,1.27,1.271,1.2832,1.2274,1.1234,1.0938,1.0585,1.0192,0.9917,0.9328,0.8699,0.9207,0.9155,0.8929,0.9362,0.9126,0.861,0.8463,0.804,0.7455,0.6755,0.6263,0.582,0.5112,0.4708,0.4491,0.4491,0.4156,0.3602,0.2731,0.2543,0.2289,0.1509,0.0868,0.0368,0.0058,0.0229,0.0477,0.0645,0.0701,0.0617,0.0421,0.0168,-0.0084,-0.0364,-0.1094,-0.1572,-0.16,-0.1962,-0.2127,-0.2015,-0.1987,-0.1933,-0.1797,-0.1797,-0.1797,-0.1797,-0.2625,-0.3065,-0.3067,-0.4226,-0.4916,-0.5078,-0.5712,-0.6336,-0.6978,-0.6873,-0.7075,1.7374,0.0,0.0,0.0,0.0,0.0,1.8272,1.8519,1.8952,0.0,0.0,0.0,0.0,0.0,0.0,0.0,0.0,0.0,0.0,0.0,0.0,0.0,0.0,0.0,0.0,0.0,0.0,0.0,2.0386,1.9603,1.88,1.8468,1.7737,1.6443,1.6106,1.5182,1.3597,1.3266,1.2914,1.2505,1.2529,1.2529,1.2505,1.2529,1.2603,1.27,1.2735,1.2578,1.2258,1.1901,1.1421,1.0863,1.0295,0.9937,0.9656,0.937,0.9726,1.031,0.9814,0.9621,0.9559,0.9114,0.8261,0.734,0.7138,0.6344,0.5456,0.5238,0.4842,0.4491,0.4491,0.4156,0.3777,0.3615,0.3261,0.2822,0.24,0.1986,0.1431,0.0482,0.0621,0.0785,0.0393,0.0421,0.0477,0.0421,0.0168,-0.0084,-0.0364,-0.0729,-0.1122,-0.1543,-0.1712,-0.1794,-0.1852,-0.1933,-0.1933,-0.1797,-0.1797,-0.1797,-0.1797,-0.2018,-0.2266,-0.2519,-0.2836,-0.3523,-0.4537,-0.5702,-0.6348,-0.6504,-0.7193,-0.7755,0.0,0.0,0.0,0.0,0.0,0.0,1.7859,1.8052,1.8287,0.0,0.0,0.0,0.0,0.0,0.0,0.0,0.0,0.0,0.0,0.0,0.0,0.0,0.0,0.0,0.0,2.347,2.2573,2.1473,2.0771,1.9994,1.9159,1.8691,1.7962,1.6968,1.6664,1.5816,1.4358,1.389,1.3336,1.2623,1.2471,1.2382,1.2348,1.2397,1.2455,1.2529,1.2603,1.2627,1.2603,1.2357,1.1993,1.1535,1.1023,1.0558,1.0079,0.9612,0.9763,1.0102,0.9596,0.9507,0.9591,0.9105,0.8475,0.7857,0.7482,0.6804,0.6041,0.5555,0.4983,0.4491,0.4491,0.4294,0.4101,0.4187,0.3938,0.3602,0.3294,0.313,0.2599,0.1175,0.1065,0.101,0.0505,0.0533,0.0533,0.028,0.0112,-0.0084,-0.028,-0.0533,-0.0842,-0.1178,-0.1459,-0.1628,-0.1713,-0.1877,-0.1961,-0.1878,-0.1824,-0.1797,-0.1797,-0.182,-0.1934,-0.2116,-0.2266,-0.306,-0.452,-0.5412,-0.6203,-0.6902,-0.7588,-0.8085,0.0,0.0,0.0,0.0,1.8382,0.0,1.7653,1.7981,1.8181,1.7433,0.0,0.0,0.0,0.0,0.0,0.0,0.0,0.0,0.0,0.0,0.0,0.0,0.0,0.0,2.471,2.3604,2.2651,2.2068,2.1436,2.0707,1.9746,1.9183,1.8453,1.743,1.7407,1.6672,1.5121,1.4813,1.4031,1.2788,1.2501,1.2274,1.2101,1.2224,1.2283,1.2308,1.2431,1.248,1.248,1.2505,1.2348,1.2076,1.1852,1.1175,1.032,1.0035,0.9658,0.926,0.9146,0.9187,0.9201,0.8771,0.8692,0.8593,0.7788,0.7434,0.7047,0.5891,0.5097,0.457,0.4519,0.4491,0.4463,0.4463,0.4463,0.438,0.4079,0.4079,0.3716,0.2179,0.1652,0.1318,0.0897,0.0898,0.0757,0.0196,0.0056,-0.0028,-0.0196,-0.0477,-0.0673,-0.0729,-0.1178,-0.1487,-0.1572,-0.1794,-0.1959,-0.1987,-0.1878,-0.1828,-0.1807,-0.1854,-0.1916,-0.193,-0.2245,-0.3172,-0.4737,-0.5066,-0.6073,-0.7712,-0.8012,-0.8267,0.0,0.0,0.0,0.0,0.0,0.0,1.7482,1.722,1.7025,0.0,0.0,0.0,0.0,0.0,0.0,0.0,0.0,0.0,0.0,0.0,0.0,0.0,0.0,0.0,2.3345,2.3059,2.2472,2.1446,2.0873,2.0308,1.9723,1.9183,1.8453,1.743,1.7407,1.6672,1.5121,1.5037,1.4254,1.2788,1.2716,1.2491,1.2101,1.2126,1.22,1.2298,1.2332,1.2348,1.2357,1.2455,1.2348,1.2101,1.2051,1.1769,1.136,1.0931,1.0847,1.0809,1.0067,0.9782,0.9648,0.8984,0.8639,0.8401,0.7949,0.7488,0.6891,0.5691,0.5254,0.5034,0.4598,0.4384,0.4249,0.4249,0.4162,0.4104,0.4166,0.4024,0.3855,0.3716,0.3016,0.2237,0.1679,0.1373,0.1122,0.0785,0.0393,0.0028,-0.0308,-0.0421,-0.0561,-0.0842,-0.0729,-0.0842,-0.1319,-0.1543,-0.1712,-0.1824,-0.1905,-0.1927,-0.1891,-0.1905,-0.1958,-0.2058,-0.2332,-0.3088,-0.4325,-0.5433,-0.6563,-0.7708,-0.8152,-0.8527,0.0,0.0,0.0,1.7159,0.0,0.0,0.0,1.7065,1.7002,1.6999,0.0,0.0,0.0,0.0,0.0,0.0,0.0,0.0,0.0,0.0,0.0,0.0,0.0,0.0,2.2963,2.2621,2.2224,2.1818,2.1161,2.055,1.9988,1.9523,1.8816,1.7783,1.776,1.7276,1.6261,1.5753,1.4984,1.3935,1.3153,1.2677,1.2452,1.2215,1.215,1.22,1.22,1.22,1.22,1.2274,1.2249,1.22,1.2126,1.2026,1.1852,1.1401,1.109,1.0824,1.0347,1.0012,0.9674,0.9162,0.8824,0.8533,0.8242,0.7649,0.6977,0.6372,0.5714,0.5167,0.4952,0.4546,0.4193,0.4193,0.4138,0.4107,0.4107,0.4052,0.4024,0.4079,0.3744,0.3183,0.2291,0.1931,0.1597,0.1176,0.084,0.0504,0.0056,-0.0056,-0.028,-0.0757,-0.0701,-0.0814,-0.1262,-0.1543,-0.1796,-0.199,-0.202,-0.2023,-0.1997,-0.1999,-0.1997,-0.2016,-0.2243,-0.2762,-0.36,-0.4784,-0.5976,-0.7179,-0.7697,-0.81,0.0,0.0,0.0,0.0,0.0,1.7178,0.0,0.0,0.0,0.0,0.0,0.0,0.0,0.0,0.0,0.0,0.0,0.0,0.0,0.0,0.0,0.0,0.0,0.0,0.0,2.2063,2.177,2.2016,2.1504,2.083,2.0082,1.9762,1.9189,1.8228,1.8166,1.7924,1.7433,1.6545,1.5764,1.5134,1.3652,1.2885,1.2788,1.2304,1.2101,1.2101,1.2101,1.2101,1.2101,1.2101,1.2175,1.2298,1.22,1.22,1.2175,1.1877,1.1242,1.0549,1.0549,1.0138,0.9562,0.929,0.9008,0.8752,0.848,0.7916,0.7327,0.7214,0.6367,0.5464,0.5304,0.4791,0.4304,0.4193,0.4138,0.4107,0.4024,0.4079,0.4138,0.4052,0.4107,0.3855,0.2875,0.2543,0.2211,0.1566,0.1342,0.1063,0.0588,0.0336,0.0,-0.0477,-0.0701,-0.0926,-0.1206,-0.1515,-0.1829,-0.2091,-0.2087,-0.2099,-0.2095,-0.2116,-0.2066,-0.1891,-0.204,-0.2377,-0.293,-0.3781,-0.493,-0.6375,-0.697,-0.7342,0.0,0.0,0.0,0.0,1.6919,0.0,0.0,0.0,1.7451,1.6395,0.0,0.0,0.0,0.0,0.0,0.0,0.0,0.0,0.0,0.0,0.0,0.0,0.0,0.0,0.0,2.1066,2.0769,2.0646,2.0937,2.0594,1.946,1.9373,1.9116,1.8556,1.8437,1.8123,1.7586,1.6991,1.6225,1.5266,1.4092,1.3266,1.2788,1.2304,1.2101,1.2101,1.2101,1.2101,1.2101,1.2101,1.2175,1.2298,1.2397,1.2529,1.2627,1.27,1.2042,1.1108,1.1108,1.0464,0.9562,0.929,0.9008,0.8752,0.848,0.8342,0.8156,0.7605,0.7176,0.6615,0.5437,0.4976,0.468,0.4159,0.3938,0.3882,0.3965,0.4024,0.4052,0.4166,0.4079,0.3913,0.3527,0.3357,0.2993,0.2211,0.1874,0.1538,0.109,0.0532,0.0168,0.0112,-0.0224,-0.0589,-0.0926,-0.1206,-0.1478,-0.1727,-0.1968,-0.2111,-0.2102,-0.2141,-0.2107,-0.1891,-0.1793,-0.2038,-0.2633,-0.2868,-0.3822,-0.5452,-0.6063,-0.6454,0.0,0.0,0.0,0.0,0.0,0.0,1.6683,0.0,1.664,0.0,0.0,0.0,0.0,0.0,0.0,0.0,1.6289,0.0,0.0,0.0,0.0,0.0,0.0,0.0,0.0,0.0,0.0,0.0,2.0375,1.9876,1.8658,1.9046,1.9269,1.9195,1.8887,1.8795,1.889,1.761,1.6767,1.6326,1.4484,1.3491,1.3242,1.2461,1.2101,1.2101,1.2101,1.2101,1.2101,1.2101,1.2126,1.22,1.2323,1.2505,1.27,1.2676,1.2224,1.1535,1.1133,1.0523,0.9855,0.9368,0.914,0.8982,0.8718,0.8533,0.8342,0.8096,0.753,0.6858,0.6394,0.5578,0.4842,0.457,0.4156,0.3796,0.3774,0.383,0.391,0.3965,0.4052,0.4024,0.3774,0.3552,0.3218,0.2689,0.2437,0.2155,0.1679,0.1343,0.1008,0.0643,0.014,-0.0252,-0.0477,-0.1176,-0.1647,-0.1792,-0.207,-0.2138,-0.1993,-0.2023,-0.1958,-0.1792,-0.1715,-0.1903,-0.2296,-0.2379,-0.284,-0.3721,-0.5049,-0.5741,1.8291,0.0,0.0,0.0,0.0,0.0,0.0,0.0,0.0,0.0,0.0,0.0,0.0,0.0,0.0,0.0,0.0,1.6585,0.0,0.0,0.0,0.0,0.0,0.0,0.0,0.0,0.0,0.0,0.0,1.9325,1.7908,1.8759,1.9329,1.9369,1.9164,1.9194,1.947,1.7916,1.7117,1.6995,1.4677,1.3586,1.3515,1.2535,1.2076,1.2051,1.2076,1.2101,1.2101,1.2101,1.2101,1.2101,1.22,1.2382,1.2578,1.2529,1.2224,1.1769,1.1242,1.0684,1.0069,0.9368,0.9211,0.9263,0.8982,0.8771,0.8606,0.8533,0.7937,0.7262,0.7079,0.6258,0.5363,0.4979,0.4484,0.4018,0.3719,0.3744,0.3796,0.3744,0.3938,0.4024,0.3799,0.3577,0.333,0.2998,0.2802,0.2577,0.224,0.1959,0.1621,0.1202,0.0615,0.0225,0.0227,-0.0766,-0.1529,-0.1865,-0.2125,-0.2168,-0.1924,-0.1947,-0.1927,-0.1767,-0.177,-0.184,-0.2057,-0.2071,-0.2208,-0.2435,-0.3977,-0.4698,0.0,0.0,0.0,1.6987,0.0,0.0,0.0,0.0,1.6491,0.0,0.0,0.0,0.0,0.0,0.0,0.0,0.0,0.0,0.0,0.0,0.0,0.0,0.0,0.0,0.0,0.0,0.0,0.0,0.0,0.0,1.7236,1.8446,1.909,1.8822,1.9052,1.9001,1.8637,1.7726,1.7143,1.6787,1.4628,1.3539,1.3372,1.251,1.2026,1.1902,1.2051,1.2101,1.2101,1.2101,1.2101,1.2101,1.2101,1.22,1.2332,1.2446,1.215,1.1703,1.1678,1.104,1.0069,0.9271,0.9263,0.9536,0.9263,0.9185,0.9106,0.8857,0.8586,0.8123,0.7149,0.688,0.6502,0.5199,0.4869,0.4677,0.3962,0.3796,0.3771,0.3638,0.3716,0.3771,0.3638,0.3602,0.3489,0.3158,0.2856,0.2691,0.2691,0.2155,0.179,0.1762,0.1229,0.0962,0.1228,0.0264,-0.0753,-0.1728,-0.205,-0.2111,-0.189,-0.2083,-0.208,-0.1894,-0.1894,-0.1894,-0.1895,-0.2019,-0.2119,-0.2122,-0.2841,-0.318,0.0,0.0,1.8437,1.7544,0.0,0.0,0.0,0.0,0.0,0.0,0.0,0.0,0.0,0.0,0.0,0.0,0.0,0.0,0.0,0.0,0.0,0.0,0.0,0.0,0.0,0.0,0.0,0.0,0.0,0.0,0.0,1.6979,1.821,1.865,1.9004,1.9356,1.9652,1.8496,1.7711,1.7303,1.5238,1.4217,1.4097,1.2914,1.2382,1.2446,1.2803,1.2623,1.2126,1.2452,1.2378,1.2101,1.2101,1.2126,1.2175,1.2224,1.2175,1.2051,1.1694,1.0897,1.0028,0.9862,0.9699,0.9588,0.9484,0.9335,0.9133,0.8765,0.8527,0.8235,0.7488,0.7101,0.6718,0.6064,0.5328,0.4673,0.4349,0.3938,0.3663,0.3613,0.3638,0.3691,0.3716,0.3577,0.3383,0.313,0.3107,0.3013,0.2727,0.2571,0.2517,0.2657,0.1993,0.1727,0.2113,0.0678,-0.0508,-0.1088,-0.1805,-0.213,-0.1977,-0.2104,-0.2115,-0.1891,-0.2032,-0.198,-0.1706,-0.1784,-0.1699,-0.1458,-0.1985,-0.2508,1.8281,1.8652,0.0,1.8166,1.7481,0.0,1.7051,0.0,0.0,0.0,0.0,0.0,0.0,0.0,0.0,0.0,0.0,0.0,0.0,1.7109,0.0,0.0,0.0,0.0,0.0,0.0,0.0,0.0,0.0,0.0,0.0,0.0,1.7921,1.8103,1.8873,1.9422,1.9694,1.8768,1.7991,1.7363,1.5746,1.4812,1.448,1.3481,1.2997,1.2983,1.3372,1.3122,1.2452,1.2643,1.2516,1.215,1.2076,1.2026,1.2026,1.2076,1.215,1.215,1.1619,1.1032,1.0507,1.037,1.0087,0.9803,0.9803,0.9595,0.9256,0.887,0.8606,0.8368,0.7869,0.7456,0.7069,0.6578,0.59,0.5277,0.4869,0.4337,0.3941,0.3922,0.3792,0.3751,0.3846,0.3763,0.3634,0.3447,0.3385,0.3237,0.3018,0.3013,0.3044,0.3072,0.2628,0.239,0.2492,0.1412,0.0428,-0.0301,-0.1208,-0.1708,-0.1735,-0.2092,-0.2138,-0.19,-0.2105,-0.2052,-0.1715,-0.1673,-0.1554,-0.1332,-0.1633,-0.2119]}]]